<?xml version="1.0" encoding="UTF-8" standalone="no" ?>
<gpx xmlns="http://www.topografix.com/GPX/1/1" xmlns:xsi="http://www.w3.org/2001/XMLSchema-instance" xsi:schemaLocation="http://www.topografix.com/GPX/1/1 http://www.topografix.com/GPX/1/1/gpx.xsd" version="1.1" creator="VisuGPX - https://www.visugpx.com">
  <metadata>
    <name>Boucle St Adrien Gouy 27k500m</name>
    <desc><![CDATA[Départ point P Rouen bord de Seine]]></desc>
  </metadata>
  <trk>
    <name><![CDATA[Boucle St Adrien Gouy 27k500m_1]]></name>
    <trkseg>
      <trkpt lat="49.4318" lon="1.10669">
        <ele>10.9</ele>
        <time>2022-02-27T13:19:41.000Z</time>
      </trkpt>
      <trkpt lat="49.43171" lon="1.10678">
        <ele>11.1</ele>
        <time>2022-02-27T13:19:34.000Z</time>
      </trkpt>
      <trkpt lat="49.43159" lon="1.1069">
        <ele>8.4</ele>
        <time>2022-02-27T13:14:01.000Z</time>
      </trkpt>
      <trkpt lat="49.43148" lon="1.10692">
        <ele>8.2</ele>
        <time>2022-02-27T13:13:56.000Z</time>
      </trkpt>
      <trkpt lat="49.43138" lon="1.10694">
        <ele>8.4</ele>
        <time>2022-02-27T13:13:52.000Z</time>
      </trkpt>
      <trkpt lat="49.43128" lon="1.10702">
        <ele>7.9</ele>
        <time>2022-02-27T13:13:49.000Z</time>
      </trkpt>
      <trkpt lat="49.4312" lon="1.1071">
        <ele>8.2</ele>
        <time>2022-02-27T13:13:47.000Z</time>
      </trkpt>
      <trkpt lat="49.43113" lon="1.10719">
        <ele>8.6</ele>
        <time>2022-02-27T13:13:45.000Z</time>
      </trkpt>
      <trkpt lat="49.43104" lon="1.10727">
        <ele>8.4</ele>
        <time>2022-02-27T13:13:43.000Z</time>
      </trkpt>
      <trkpt lat="49.43096" lon="1.10736">
        <ele>8.2</ele>
        <time>2022-02-27T13:13:41.000Z</time>
      </trkpt>
      <trkpt lat="49.43088" lon="1.10745">
        <ele>8.3</ele>
        <time>2022-02-27T13:13:39.000Z</time>
      </trkpt>
      <trkpt lat="49.4308" lon="1.10753">
        <ele>7.7</ele>
        <time>2022-02-27T13:13:37.000Z</time>
      </trkpt>
      <trkpt lat="49.43071" lon="1.10762">
        <ele>8</ele>
        <time>2022-02-27T13:13:35.000Z</time>
      </trkpt>
      <trkpt lat="49.43063" lon="1.10771">
        <ele>8</ele>
        <time>2022-02-27T13:13:33.000Z</time>
      </trkpt>
      <trkpt lat="49.43054" lon="1.1078">
        <ele>8.2</ele>
        <time>2022-02-27T13:13:31.000Z</time>
      </trkpt>
      <trkpt lat="49.43046" lon="1.10789">
        <ele>8.2</ele>
        <time>2022-02-27T13:13:29.000Z</time>
      </trkpt>
      <trkpt lat="49.43039" lon="1.10798">
        <ele>7.7</ele>
        <time>2022-02-27T13:13:27.000Z</time>
      </trkpt>
      <trkpt lat="49.4303" lon="1.10808">
        <ele>7.8</ele>
        <time>2022-02-27T13:13:25.000Z</time>
      </trkpt>
      <trkpt lat="49.43022" lon="1.10817">
        <ele>7.9</ele>
        <time>2022-02-27T13:13:23.000Z</time>
      </trkpt>
      <trkpt lat="49.43013" lon="1.10826">
        <ele>8.1</ele>
        <time>2022-02-27T13:13:21.000Z</time>
      </trkpt>
      <trkpt lat="49.43005" lon="1.10834">
        <ele>8.5</ele>
        <time>2022-02-27T13:13:19.000Z</time>
      </trkpt>
      <trkpt lat="49.42997" lon="1.10843">
        <ele>8.2</ele>
        <time>2022-02-27T13:13:17.000Z</time>
      </trkpt>
      <trkpt lat="49.42988" lon="1.10852">
        <ele>7.9</ele>
        <time>2022-02-27T13:13:15.000Z</time>
      </trkpt>
      <trkpt lat="49.4298" lon="1.1086">
        <ele>7.9</ele>
        <time>2022-02-27T13:13:13.000Z</time>
      </trkpt>
      <trkpt lat="49.42972" lon="1.10869">
        <ele>8</ele>
        <time>2022-02-27T13:13:11.000Z</time>
      </trkpt>
      <trkpt lat="49.42965" lon="1.10877">
        <ele>7.8</ele>
        <time>2022-02-27T13:13:09.000Z</time>
      </trkpt>
      <trkpt lat="49.42954" lon="1.10888">
        <ele>8.1</ele>
        <time>2022-02-27T13:13:06.000Z</time>
      </trkpt>
      <trkpt lat="49.42943" lon="1.10899">
        <ele>8.3</ele>
        <time>2022-02-27T13:13:03.000Z</time>
      </trkpt>
      <trkpt lat="49.42932" lon="1.10912">
        <ele>7.8</ele>
        <time>2022-02-27T13:13:00.000Z</time>
      </trkpt>
      <trkpt lat="49.42921" lon="1.10923">
        <ele>7.8</ele>
        <time>2022-02-27T13:12:57.000Z</time>
      </trkpt>
      <trkpt lat="49.4291" lon="1.10935">
        <ele>7.9</ele>
        <time>2022-02-27T13:12:54.000Z</time>
      </trkpt>
      <trkpt lat="49.42899" lon="1.10947">
        <ele>7.9</ele>
        <time>2022-02-27T13:12:51.000Z</time>
      </trkpt>
      <trkpt lat="49.42891" lon="1.10955">
        <ele>8</ele>
        <time>2022-02-27T13:12:49.000Z</time>
      </trkpt>
      <trkpt lat="49.42881" lon="1.10967">
        <ele>8.2</ele>
        <time>2022-02-27T13:12:46.000Z</time>
      </trkpt>
      <trkpt lat="49.4287" lon="1.10978">
        <ele>8.1</ele>
        <time>2022-02-27T13:12:43.000Z</time>
      </trkpt>
      <trkpt lat="49.42862" lon="1.10986">
        <ele>8.2</ele>
        <time>2022-02-27T13:12:41.000Z</time>
      </trkpt>
      <trkpt lat="49.42854" lon="1.10995">
        <ele>8</ele>
        <time>2022-02-27T13:12:39.000Z</time>
      </trkpt>
      <trkpt lat="49.42846" lon="1.11003">
        <ele>8.1</ele>
        <time>2022-02-27T13:12:37.000Z</time>
      </trkpt>
      <trkpt lat="49.42838" lon="1.11011">
        <ele>8</ele>
        <time>2022-02-27T13:12:35.000Z</time>
      </trkpt>
      <trkpt lat="49.42829" lon="1.11019">
        <ele>7.8</ele>
        <time>2022-02-27T13:12:33.000Z</time>
      </trkpt>
      <trkpt lat="49.4282" lon="1.11027">
        <ele>8</ele>
        <time>2022-02-27T13:12:31.000Z</time>
      </trkpt>
      <trkpt lat="49.42812" lon="1.11034">
        <ele>8.1</ele>
        <time>2022-02-27T13:12:29.000Z</time>
      </trkpt>
      <trkpt lat="49.42803" lon="1.11042">
        <ele>8.2</ele>
        <time>2022-02-27T13:12:27.000Z</time>
      </trkpt>
      <trkpt lat="49.42794" lon="1.11049">
        <ele>7.9</ele>
        <time>2022-02-27T13:12:25.000Z</time>
      </trkpt>
      <trkpt lat="49.42786" lon="1.11056">
        <ele>7.6</ele>
        <time>2022-02-27T13:12:23.000Z</time>
      </trkpt>
      <trkpt lat="49.42776" lon="1.11062">
        <ele>7.9</ele>
        <time>2022-02-27T13:12:21.000Z</time>
      </trkpt>
      <trkpt lat="49.42767" lon="1.11069">
        <ele>7.8</ele>
        <time>2022-02-27T13:12:19.000Z</time>
      </trkpt>
      <trkpt lat="49.42759" lon="1.11075">
        <ele>7.8</ele>
        <time>2022-02-27T13:12:17.000Z</time>
      </trkpt>
      <trkpt lat="49.4275" lon="1.1108">
        <ele>7.5</ele>
        <time>2022-02-27T13:12:15.000Z</time>
      </trkpt>
      <trkpt lat="49.42741" lon="1.11086">
        <ele>7.6</ele>
        <time>2022-02-27T13:12:13.000Z</time>
      </trkpt>
      <trkpt lat="49.42732" lon="1.11092">
        <ele>7.9</ele>
        <time>2022-02-27T13:12:11.000Z</time>
      </trkpt>
      <trkpt lat="49.42722" lon="1.11097">
        <ele>7.8</ele>
        <time>2022-02-27T13:12:09.000Z</time>
      </trkpt>
      <trkpt lat="49.42713" lon="1.11102">
        <ele>7.4</ele>
        <time>2022-02-27T13:12:07.000Z</time>
      </trkpt>
      <trkpt lat="49.42703" lon="1.11107">
        <ele>7.5</ele>
        <time>2022-02-27T13:12:05.000Z</time>
      </trkpt>
      <trkpt lat="49.42694" lon="1.11112">
        <ele>7.4</ele>
        <time>2022-02-27T13:12:03.000Z</time>
      </trkpt>
      <trkpt lat="49.42684" lon="1.11117">
        <ele>7.4</ele>
        <time>2022-02-27T13:12:01.000Z</time>
      </trkpt>
      <trkpt lat="49.42675" lon="1.11122">
        <ele>7.2</ele>
        <time>2022-02-27T13:11:59.000Z</time>
      </trkpt>
      <trkpt lat="49.42665" lon="1.11127">
        <ele>7.4</ele>
        <time>2022-02-27T13:11:57.000Z</time>
      </trkpt>
      <trkpt lat="49.42655" lon="1.11131">
        <ele>7.8</ele>
        <time>2022-02-27T13:11:55.000Z</time>
      </trkpt>
      <trkpt lat="49.42645" lon="1.11136">
        <ele>8</ele>
        <time>2022-02-27T13:11:53.000Z</time>
      </trkpt>
      <trkpt lat="49.42635" lon="1.11141">
        <ele>7.7</ele>
        <time>2022-02-27T13:11:51.000Z</time>
      </trkpt>
      <trkpt lat="49.42626" lon="1.11146">
        <ele>7.6</ele>
        <time>2022-02-27T13:11:49.000Z</time>
      </trkpt>
      <trkpt lat="49.42616" lon="1.1115">
        <ele>7.7</ele>
        <time>2022-02-27T13:11:47.000Z</time>
      </trkpt>
      <trkpt lat="49.42606" lon="1.11155">
        <ele>7.5</ele>
        <time>2022-02-27T13:11:45.000Z</time>
      </trkpt>
      <trkpt lat="49.42596" lon="1.1116">
        <ele>7.6</ele>
        <time>2022-02-27T13:11:43.000Z</time>
      </trkpt>
      <trkpt lat="49.42586" lon="1.11165">
        <ele>7.6</ele>
        <time>2022-02-27T13:11:41.000Z</time>
      </trkpt>
      <trkpt lat="49.42576" lon="1.1117">
        <ele>7.5</ele>
        <time>2022-02-27T13:11:39.000Z</time>
      </trkpt>
      <trkpt lat="49.42566" lon="1.11175">
        <ele>7.6</ele>
        <time>2022-02-27T13:11:37.000Z</time>
      </trkpt>
      <trkpt lat="49.42556" lon="1.1118">
        <ele>7.3</ele>
        <time>2022-02-27T13:11:35.000Z</time>
      </trkpt>
      <trkpt lat="49.42546" lon="1.11185">
        <ele>7.4</ele>
        <time>2022-02-27T13:11:33.000Z</time>
      </trkpt>
      <trkpt lat="49.42536" lon="1.1119">
        <ele>7.6</ele>
        <time>2022-02-27T13:11:31.000Z</time>
      </trkpt>
      <trkpt lat="49.42526" lon="1.11195">
        <ele>7.5</ele>
        <time>2022-02-27T13:11:29.000Z</time>
      </trkpt>
      <trkpt lat="49.42517" lon="1.112">
        <ele>7.9</ele>
        <time>2022-02-27T13:11:27.000Z</time>
      </trkpt>
      <trkpt lat="49.42507" lon="1.11204">
        <ele>7.6</ele>
        <time>2022-02-27T13:11:25.000Z</time>
      </trkpt>
      <trkpt lat="49.42497" lon="1.11209">
        <ele>7.5</ele>
        <time>2022-02-27T13:11:23.000Z</time>
      </trkpt>
      <trkpt lat="49.42488" lon="1.11214">
        <ele>7.7</ele>
        <time>2022-02-27T13:11:21.000Z</time>
      </trkpt>
      <trkpt lat="49.42478" lon="1.11219">
        <ele>7.6</ele>
        <time>2022-02-27T13:11:19.000Z</time>
      </trkpt>
      <trkpt lat="49.42469" lon="1.11224">
        <ele>7.8</ele>
        <time>2022-02-27T13:11:17.000Z</time>
      </trkpt>
      <trkpt lat="49.42459" lon="1.11229">
        <ele>7.5</ele>
        <time>2022-02-27T13:11:15.000Z</time>
      </trkpt>
      <trkpt lat="49.4245" lon="1.11234">
        <ele>7.8</ele>
        <time>2022-02-27T13:11:13.000Z</time>
      </trkpt>
      <trkpt lat="49.4244" lon="1.11239">
        <ele>7.7</ele>
        <time>2022-02-27T13:11:11.000Z</time>
      </trkpt>
      <trkpt lat="49.42431" lon="1.11244">
        <ele>7.7</ele>
        <time>2022-02-27T13:11:09.000Z</time>
      </trkpt>
      <trkpt lat="49.42421" lon="1.1125">
        <ele>7.8</ele>
        <time>2022-02-27T13:11:07.000Z</time>
      </trkpt>
      <trkpt lat="49.42412" lon="1.11255">
        <ele>7.9</ele>
        <time>2022-02-27T13:11:05.000Z</time>
      </trkpt>
      <trkpt lat="49.42403" lon="1.1126">
        <ele>8</ele>
        <time>2022-02-27T13:11:03.000Z</time>
      </trkpt>
      <trkpt lat="49.42394" lon="1.11267">
        <ele>8.1</ele>
        <time>2022-02-27T13:11:01.000Z</time>
      </trkpt>
      <trkpt lat="49.42386" lon="1.11273">
        <ele>7.8</ele>
        <time>2022-02-27T13:10:59.000Z</time>
      </trkpt>
      <trkpt lat="49.42377" lon="1.11278">
        <ele>7.6</ele>
        <time>2022-02-27T13:10:57.000Z</time>
      </trkpt>
      <trkpt lat="49.42369" lon="1.11284">
        <ele>7.8</ele>
        <time>2022-02-27T13:10:55.000Z</time>
      </trkpt>
      <trkpt lat="49.4236" lon="1.1129">
        <ele>7.8</ele>
        <time>2022-02-27T13:10:53.000Z</time>
      </trkpt>
      <trkpt lat="49.42352" lon="1.11296">
        <ele>7.9</ele>
        <time>2022-02-27T13:10:51.000Z</time>
      </trkpt>
      <trkpt lat="49.42343" lon="1.11303">
        <ele>7.8</ele>
        <time>2022-02-27T13:10:49.000Z</time>
      </trkpt>
      <trkpt lat="49.42333" lon="1.1131">
        <ele>7.5</ele>
        <time>2022-02-27T13:10:47.000Z</time>
      </trkpt>
      <trkpt lat="49.42323" lon="1.11317">
        <ele>7.7</ele>
        <time>2022-02-27T13:10:45.000Z</time>
      </trkpt>
      <trkpt lat="49.42313" lon="1.11324">
        <ele>7.6</ele>
        <time>2022-02-27T13:10:43.000Z</time>
      </trkpt>
      <trkpt lat="49.42303" lon="1.11331">
        <ele>7.5</ele>
        <time>2022-02-27T13:10:41.000Z</time>
      </trkpt>
      <trkpt lat="49.42293" lon="1.11338">
        <ele>8.1</ele>
        <time>2022-02-27T13:10:39.000Z</time>
      </trkpt>
      <trkpt lat="49.42284" lon="1.11345">
        <ele>8</ele>
        <time>2022-02-27T13:10:37.000Z</time>
      </trkpt>
      <trkpt lat="49.42274" lon="1.11352">
        <ele>7.9</ele>
        <time>2022-02-27T13:10:35.000Z</time>
      </trkpt>
      <trkpt lat="49.42263" lon="1.11359">
        <ele>7.6</ele>
        <time>2022-02-27T13:10:33.000Z</time>
      </trkpt>
      <trkpt lat="49.42253" lon="1.11366">
        <ele>7.3</ele>
        <time>2022-02-27T13:10:31.000Z</time>
      </trkpt>
      <trkpt lat="49.42243" lon="1.11373">
        <ele>7.1</ele>
        <time>2022-02-27T13:10:29.000Z</time>
      </trkpt>
      <trkpt lat="49.42233" lon="1.1138">
        <ele>7</ele>
        <time>2022-02-27T13:10:27.000Z</time>
      </trkpt>
      <trkpt lat="49.42223" lon="1.11387">
        <ele>7.1</ele>
        <time>2022-02-27T13:10:25.000Z</time>
      </trkpt>
      <trkpt lat="49.42214" lon="1.11394">
        <ele>7.3</ele>
        <time>2022-02-27T13:10:23.000Z</time>
      </trkpt>
      <trkpt lat="49.42204" lon="1.11401">
        <ele>7.3</ele>
        <time>2022-02-27T13:10:21.000Z</time>
      </trkpt>
      <trkpt lat="49.42194" lon="1.11408">
        <ele>7.5</ele>
        <time>2022-02-27T13:10:19.000Z</time>
      </trkpt>
      <trkpt lat="49.42184" lon="1.11415">
        <ele>7.8</ele>
        <time>2022-02-27T13:10:17.000Z</time>
      </trkpt>
      <trkpt lat="49.42173" lon="1.11423">
        <ele>7.6</ele>
        <time>2022-02-27T13:10:15.000Z</time>
      </trkpt>
      <trkpt lat="49.42162" lon="1.1143">
        <ele>7.5</ele>
        <time>2022-02-27T13:10:13.000Z</time>
      </trkpt>
      <trkpt lat="49.42151" lon="1.11437">
        <ele>7.2</ele>
        <time>2022-02-27T13:10:11.000Z</time>
      </trkpt>
      <trkpt lat="49.42141" lon="1.11444">
        <ele>7.4</ele>
        <time>2022-02-27T13:10:09.000Z</time>
      </trkpt>
      <trkpt lat="49.42131" lon="1.1145">
        <ele>7.4</ele>
        <time>2022-02-27T13:10:07.000Z</time>
      </trkpt>
      <trkpt lat="49.42122" lon="1.11455">
        <ele>7.2</ele>
        <time>2022-02-27T13:10:05.000Z</time>
      </trkpt>
      <trkpt lat="49.42113" lon="1.11461">
        <ele>7.1</ele>
        <time>2022-02-27T13:10:03.000Z</time>
      </trkpt>
      <trkpt lat="49.42105" lon="1.11467">
        <ele>7.2</ele>
        <time>2022-02-27T13:10:01.000Z</time>
      </trkpt>
      <trkpt lat="49.42096" lon="1.11473">
        <ele>7.5</ele>
        <time>2022-02-27T13:09:59.000Z</time>
      </trkpt>
      <trkpt lat="49.42087" lon="1.11479">
        <ele>7.1</ele>
        <time>2022-02-27T13:09:57.000Z</time>
      </trkpt>
      <trkpt lat="49.42077" lon="1.11485">
        <ele>7.3</ele>
        <time>2022-02-27T13:09:55.000Z</time>
      </trkpt>
      <trkpt lat="49.42068" lon="1.11491">
        <ele>7.2</ele>
        <time>2022-02-27T13:09:53.000Z</time>
      </trkpt>
      <trkpt lat="49.42058" lon="1.11496">
        <ele>7.2</ele>
        <time>2022-02-27T13:09:51.000Z</time>
      </trkpt>
      <trkpt lat="49.42048" lon="1.11502">
        <ele>7.3</ele>
        <time>2022-02-27T13:09:49.000Z</time>
      </trkpt>
      <trkpt lat="49.42039" lon="1.11508">
        <ele>7.9</ele>
        <time>2022-02-27T13:09:47.000Z</time>
      </trkpt>
      <trkpt lat="49.42029" lon="1.11513">
        <ele>7.6</ele>
        <time>2022-02-27T13:09:45.000Z</time>
      </trkpt>
      <trkpt lat="49.42019" lon="1.11519">
        <ele>7.2</ele>
        <time>2022-02-27T13:09:43.000Z</time>
      </trkpt>
      <trkpt lat="49.4201" lon="1.11524">
        <ele>7.1</ele>
        <time>2022-02-27T13:09:41.000Z</time>
      </trkpt>
      <trkpt lat="49.42" lon="1.1153">
        <ele>7.1</ele>
        <time>2022-02-27T13:09:39.000Z</time>
      </trkpt>
      <trkpt lat="49.41991" lon="1.11535">
        <ele>7.3</ele>
        <time>2022-02-27T13:09:37.000Z</time>
      </trkpt>
      <trkpt lat="49.41981" lon="1.1154">
        <ele>7.3</ele>
        <time>2022-02-27T13:09:35.000Z</time>
      </trkpt>
      <trkpt lat="49.41972" lon="1.11545">
        <ele>7.5</ele>
        <time>2022-02-27T13:09:33.000Z</time>
      </trkpt>
      <trkpt lat="49.41963" lon="1.1155">
        <ele>7.4</ele>
        <time>2022-02-27T13:09:31.000Z</time>
      </trkpt>
      <trkpt lat="49.41954" lon="1.11555">
        <ele>7.1</ele>
        <time>2022-02-27T13:09:29.000Z</time>
      </trkpt>
      <trkpt lat="49.41944" lon="1.1156">
        <ele>7.2</ele>
        <time>2022-02-27T13:09:27.000Z</time>
      </trkpt>
      <trkpt lat="49.41935" lon="1.11565">
        <ele>7.2</ele>
        <time>2022-02-27T13:09:25.000Z</time>
      </trkpt>
      <trkpt lat="49.41926" lon="1.1157">
        <ele>7.1</ele>
        <time>2022-02-27T13:09:23.000Z</time>
      </trkpt>
      <trkpt lat="49.41917" lon="1.11575">
        <ele>7.4</ele>
        <time>2022-02-27T13:09:21.000Z</time>
      </trkpt>
      <trkpt lat="49.41908" lon="1.1158">
        <ele>7.3</ele>
        <time>2022-02-27T13:09:19.000Z</time>
      </trkpt>
      <trkpt lat="49.41899" lon="1.11585">
        <ele>7.1</ele>
        <time>2022-02-27T13:09:17.000Z</time>
      </trkpt>
      <trkpt lat="49.41889" lon="1.1159">
        <ele>7.1</ele>
        <time>2022-02-27T13:09:15.000Z</time>
      </trkpt>
      <trkpt lat="49.4188" lon="1.11595">
        <ele>6.9</ele>
        <time>2022-02-27T13:09:13.000Z</time>
      </trkpt>
      <trkpt lat="49.41871" lon="1.116">
        <ele>7</ele>
        <time>2022-02-27T13:09:11.000Z</time>
      </trkpt>
      <trkpt lat="49.41862" lon="1.11606">
        <ele>6.7</ele>
        <time>2022-02-27T13:09:09.000Z</time>
      </trkpt>
      <trkpt lat="49.41852" lon="1.11611">
        <ele>6.7</ele>
        <time>2022-02-27T13:09:07.000Z</time>
      </trkpt>
      <trkpt lat="49.41843" lon="1.11616">
        <ele>6.4</ele>
        <time>2022-02-27T13:09:05.000Z</time>
      </trkpt>
      <trkpt lat="49.41834" lon="1.11621">
        <ele>6.1</ele>
        <time>2022-02-27T13:09:03.000Z</time>
      </trkpt>
      <trkpt lat="49.41825" lon="1.11626">
        <ele>6.5</ele>
        <time>2022-02-27T13:09:01.000Z</time>
      </trkpt>
      <trkpt lat="49.41816" lon="1.11631">
        <ele>6.4</ele>
        <time>2022-02-27T13:08:59.000Z</time>
      </trkpt>
      <trkpt lat="49.41807" lon="1.11636">
        <ele>6.3</ele>
        <time>2022-02-27T13:08:57.000Z</time>
      </trkpt>
      <trkpt lat="49.41794" lon="1.11643">
        <ele>6</ele>
        <time>2022-02-27T13:08:54.000Z</time>
      </trkpt>
      <trkpt lat="49.41782" lon="1.1165">
        <ele>6.6</ele>
        <time>2022-02-27T13:08:51.000Z</time>
      </trkpt>
      <trkpt lat="49.4177" lon="1.11657">
        <ele>6.5</ele>
        <time>2022-02-27T13:08:48.000Z</time>
      </trkpt>
      <trkpt lat="49.41761" lon="1.11662">
        <ele>6.5</ele>
        <time>2022-02-27T13:08:46.000Z</time>
      </trkpt>
      <trkpt lat="49.41752" lon="1.11667">
        <ele>6.6</ele>
        <time>2022-02-27T13:08:44.000Z</time>
      </trkpt>
      <trkpt lat="49.41742" lon="1.11672">
        <ele>6.6</ele>
        <time>2022-02-27T13:08:42.000Z</time>
      </trkpt>
      <trkpt lat="49.41732" lon="1.11677">
        <ele>6.7</ele>
        <time>2022-02-27T13:08:40.000Z</time>
      </trkpt>
      <trkpt lat="49.41722" lon="1.11683">
        <ele>6.8</ele>
        <time>2022-02-27T13:08:38.000Z</time>
      </trkpt>
      <trkpt lat="49.41713" lon="1.11689">
        <ele>7.1</ele>
        <time>2022-02-27T13:08:36.000Z</time>
      </trkpt>
      <trkpt lat="49.41704" lon="1.11694">
        <ele>7.1</ele>
        <time>2022-02-27T13:08:34.000Z</time>
      </trkpt>
      <trkpt lat="49.41692" lon="1.117">
        <ele>7.2</ele>
        <time>2022-02-27T13:08:31.000Z</time>
      </trkpt>
      <trkpt lat="49.4168" lon="1.11707">
        <ele>7.1</ele>
        <time>2022-02-27T13:08:28.000Z</time>
      </trkpt>
      <trkpt lat="49.41667" lon="1.11714">
        <ele>7</ele>
        <time>2022-02-27T13:08:25.000Z</time>
      </trkpt>
      <trkpt lat="49.41659" lon="1.11719">
        <ele>7.1</ele>
        <time>2022-02-27T13:08:23.000Z</time>
      </trkpt>
      <trkpt lat="49.4165" lon="1.11724">
        <ele>7.1</ele>
        <time>2022-02-27T13:08:21.000Z</time>
      </trkpt>
      <trkpt lat="49.41641" lon="1.11729">
        <ele>6.8</ele>
        <time>2022-02-27T13:08:19.000Z</time>
      </trkpt>
      <trkpt lat="49.41629" lon="1.11736">
        <ele>6.9</ele>
        <time>2022-02-27T13:08:16.000Z</time>
      </trkpt>
      <trkpt lat="49.41621" lon="1.11741">
        <ele>7</ele>
        <time>2022-02-27T13:08:14.000Z</time>
      </trkpt>
      <trkpt lat="49.41612" lon="1.11745">
        <ele>6.9</ele>
        <time>2022-02-27T13:08:12.000Z</time>
      </trkpt>
      <trkpt lat="49.41603" lon="1.1175">
        <ele>7</ele>
        <time>2022-02-27T13:08:10.000Z</time>
      </trkpt>
      <trkpt lat="49.41594" lon="1.11755">
        <ele>7.1</ele>
        <time>2022-02-27T13:08:08.000Z</time>
      </trkpt>
      <trkpt lat="49.41585" lon="1.11761">
        <ele>6.8</ele>
        <time>2022-02-27T13:08:06.000Z</time>
      </trkpt>
      <trkpt lat="49.41576" lon="1.11765">
        <ele>6.7</ele>
        <time>2022-02-27T13:08:04.000Z</time>
      </trkpt>
      <trkpt lat="49.41568" lon="1.1177">
        <ele>6.6</ele>
        <time>2022-02-27T13:08:02.000Z</time>
      </trkpt>
      <trkpt lat="49.41559" lon="1.11775">
        <ele>6.7</ele>
        <time>2022-02-27T13:08:00.000Z</time>
      </trkpt>
      <trkpt lat="49.4155" lon="1.1178">
        <ele>6.7</ele>
        <time>2022-02-27T13:07:58.000Z</time>
      </trkpt>
      <trkpt lat="49.41541" lon="1.11785">
        <ele>7.1</ele>
        <time>2022-02-27T13:07:56.000Z</time>
      </trkpt>
      <trkpt lat="49.41532" lon="1.1179">
        <ele>7</ele>
        <time>2022-02-27T13:07:54.000Z</time>
      </trkpt>
      <trkpt lat="49.41523" lon="1.11794">
        <ele>6.7</ele>
        <time>2022-02-27T13:07:52.000Z</time>
      </trkpt>
      <trkpt lat="49.41514" lon="1.118">
        <ele>6.9</ele>
        <time>2022-02-27T13:07:50.000Z</time>
      </trkpt>
      <trkpt lat="49.41506" lon="1.11805">
        <ele>6.9</ele>
        <time>2022-02-27T13:07:48.000Z</time>
      </trkpt>
      <trkpt lat="49.41497" lon="1.11809">
        <ele>6.8</ele>
        <time>2022-02-27T13:07:46.000Z</time>
      </trkpt>
      <trkpt lat="49.41488" lon="1.11814">
        <ele>6.8</ele>
        <time>2022-02-27T13:07:44.000Z</time>
      </trkpt>
      <trkpt lat="49.41479" lon="1.11819">
        <ele>6.9</ele>
        <time>2022-02-27T13:07:42.000Z</time>
      </trkpt>
      <trkpt lat="49.41471" lon="1.11824">
        <ele>6.8</ele>
        <time>2022-02-27T13:07:40.000Z</time>
      </trkpt>
      <trkpt lat="49.41462" lon="1.11828">
        <ele>6.7</ele>
        <time>2022-02-27T13:07:38.000Z</time>
      </trkpt>
      <trkpt lat="49.41449" lon="1.11835">
        <ele>7.3</ele>
        <time>2022-02-27T13:07:35.000Z</time>
      </trkpt>
      <trkpt lat="49.41437" lon="1.11842">
        <ele>7.4</ele>
        <time>2022-02-27T13:07:32.000Z</time>
      </trkpt>
      <trkpt lat="49.41425" lon="1.11848">
        <ele>7.4</ele>
        <time>2022-02-27T13:07:29.000Z</time>
      </trkpt>
      <trkpt lat="49.41413" lon="1.11854">
        <ele>7.6</ele>
        <time>2022-02-27T13:07:26.000Z</time>
      </trkpt>
      <trkpt lat="49.41401" lon="1.11861">
        <ele>7.2</ele>
        <time>2022-02-27T13:07:23.000Z</time>
      </trkpt>
      <trkpt lat="49.4139" lon="1.11866">
        <ele>7.1</ele>
        <time>2022-02-27T13:07:20.000Z</time>
      </trkpt>
      <trkpt lat="49.41379" lon="1.11872">
        <ele>7.4</ele>
        <time>2022-02-27T13:07:17.000Z</time>
      </trkpt>
      <trkpt lat="49.4137" lon="1.11877">
        <ele>7.6</ele>
        <time>2022-02-27T13:07:14.000Z</time>
      </trkpt>
      <trkpt lat="49.4136" lon="1.11882">
        <ele>8</ele>
        <time>2022-02-27T13:07:11.000Z</time>
      </trkpt>
      <trkpt lat="49.41349" lon="1.11887">
        <ele>7.4</ele>
        <time>2022-02-27T13:07:08.000Z</time>
      </trkpt>
      <trkpt lat="49.41338" lon="1.11892">
        <ele>6.8</ele>
        <time>2022-02-27T13:07:05.000Z</time>
      </trkpt>
      <trkpt lat="49.41328" lon="1.11896">
        <ele>7</ele>
        <time>2022-02-27T13:07:02.000Z</time>
      </trkpt>
      <trkpt lat="49.41328" lon="1.1191">
        <ele>7.2</ele>
        <time>2022-02-27T13:06:57.000Z</time>
      </trkpt>
      <trkpt lat="49.41322" lon="1.11921">
        <ele>7.8</ele>
        <time>2022-02-27T13:06:53.000Z</time>
      </trkpt>
      <trkpt lat="49.41309" lon="1.11928">
        <ele>7.8</ele>
        <time>2022-02-27T13:06:50.000Z</time>
      </trkpt>
      <trkpt lat="49.41301" lon="1.11932">
        <ele>7.8</ele>
        <time>2022-02-27T13:06:48.000Z</time>
      </trkpt>
      <trkpt lat="49.41291" lon="1.11936">
        <ele>7.8</ele>
        <time>2022-02-27T13:06:46.000Z</time>
      </trkpt>
      <trkpt lat="49.41282" lon="1.11941">
        <ele>7.8</ele>
        <time>2022-02-27T13:06:44.000Z</time>
      </trkpt>
      <trkpt lat="49.41273" lon="1.11945">
        <ele>7.6</ele>
        <time>2022-02-27T13:06:42.000Z</time>
      </trkpt>
      <trkpt lat="49.41264" lon="1.1195">
        <ele>7.2</ele>
        <time>2022-02-27T13:06:40.000Z</time>
      </trkpt>
      <trkpt lat="49.41255" lon="1.11954">
        <ele>7.1</ele>
        <time>2022-02-27T13:06:38.000Z</time>
      </trkpt>
      <trkpt lat="49.41242" lon="1.1196">
        <ele>7</ele>
        <time>2022-02-27T13:06:35.000Z</time>
      </trkpt>
      <trkpt lat="49.4123" lon="1.11965">
        <ele>7</ele>
        <time>2022-02-27T13:06:32.000Z</time>
      </trkpt>
      <trkpt lat="49.41217" lon="1.11971">
        <ele>6.7</ele>
        <time>2022-02-27T13:06:29.000Z</time>
      </trkpt>
      <trkpt lat="49.41208" lon="1.11975">
        <ele>6.8</ele>
        <time>2022-02-27T13:06:27.000Z</time>
      </trkpt>
      <trkpt lat="49.41198" lon="1.11977">
        <ele>6.8</ele>
        <time>2022-02-27T13:06:25.000Z</time>
      </trkpt>
      <trkpt lat="49.41188" lon="1.11979">
        <ele>6.8</ele>
        <time>2022-02-27T13:06:23.000Z</time>
      </trkpt>
      <trkpt lat="49.41177" lon="1.11984">
        <ele>6.8</ele>
        <time>2022-02-27T13:06:21.000Z</time>
      </trkpt>
      <trkpt lat="49.41167" lon="1.11988">
        <ele>7.1</ele>
        <time>2022-02-27T13:06:19.000Z</time>
      </trkpt>
      <trkpt lat="49.41158" lon="1.11992">
        <ele>6.8</ele>
        <time>2022-02-27T13:06:17.000Z</time>
      </trkpt>
      <trkpt lat="49.41149" lon="1.11996">
        <ele>7.4</ele>
        <time>2022-02-27T13:06:15.000Z</time>
      </trkpt>
      <trkpt lat="49.4114" lon="1.12">
        <ele>7.3</ele>
        <time>2022-02-27T13:06:13.000Z</time>
      </trkpt>
      <trkpt lat="49.41128" lon="1.12007">
        <ele>6.6</ele>
        <time>2022-02-27T13:06:10.000Z</time>
      </trkpt>
      <trkpt lat="49.41119" lon="1.12011">
        <ele>6.6</ele>
        <time>2022-02-27T13:06:08.000Z</time>
      </trkpt>
      <trkpt lat="49.41106" lon="1.12016">
        <ele>6.9</ele>
        <time>2022-02-27T13:06:05.000Z</time>
      </trkpt>
      <trkpt lat="49.41096" lon="1.12009">
        <ele>7.1</ele>
        <time>2022-02-27T13:06:01.000Z</time>
      </trkpt>
      <trkpt lat="49.41087" lon="1.12006">
        <ele>6.8</ele>
        <time>2022-02-27T13:05:57.000Z</time>
      </trkpt>
      <trkpt lat="49.41075" lon="1.1201">
        <ele>6.7</ele>
        <time>2022-02-27T13:05:54.000Z</time>
      </trkpt>
      <trkpt lat="49.41066" lon="1.12014">
        <ele>7</ele>
        <time>2022-02-27T13:05:52.000Z</time>
      </trkpt>
      <trkpt lat="49.41053" lon="1.12018">
        <ele>7.1</ele>
        <time>2022-02-27T13:05:49.000Z</time>
      </trkpt>
      <trkpt lat="49.41044" lon="1.12021">
        <ele>7.3</ele>
        <time>2022-02-27T13:05:47.000Z</time>
      </trkpt>
      <trkpt lat="49.41035" lon="1.12024">
        <ele>7.9</ele>
        <time>2022-02-27T13:05:45.000Z</time>
      </trkpt>
      <trkpt lat="49.41025" lon="1.12028">
        <ele>7.7</ele>
        <time>2022-02-27T13:05:43.000Z</time>
      </trkpt>
      <trkpt lat="49.41016" lon="1.12031">
        <ele>7.2</ele>
        <time>2022-02-27T13:05:41.000Z</time>
      </trkpt>
      <trkpt lat="49.41006" lon="1.12035">
        <ele>7.1</ele>
        <time>2022-02-27T13:05:39.000Z</time>
      </trkpt>
      <trkpt lat="49.40995" lon="1.12038">
        <ele>7.3</ele>
        <time>2022-02-27T13:05:37.000Z</time>
      </trkpt>
      <trkpt lat="49.40985" lon="1.12042">
        <ele>6.8</ele>
        <time>2022-02-27T13:05:35.000Z</time>
      </trkpt>
      <trkpt lat="49.40974" lon="1.12046">
        <ele>6.7</ele>
        <time>2022-02-27T13:05:33.000Z</time>
      </trkpt>
      <trkpt lat="49.40965" lon="1.12049">
        <ele>6.7</ele>
        <time>2022-02-27T13:05:31.000Z</time>
      </trkpt>
      <trkpt lat="49.40957" lon="1.12054">
        <ele>6.9</ele>
        <time>2022-02-27T13:05:29.000Z</time>
      </trkpt>
      <trkpt lat="49.40946" lon="1.12061">
        <ele>6.9</ele>
        <time>2022-02-27T13:05:26.000Z</time>
      </trkpt>
      <trkpt lat="49.40934" lon="1.12067">
        <ele>7.1</ele>
        <time>2022-02-27T13:05:23.000Z</time>
      </trkpt>
      <trkpt lat="49.40921" lon="1.12072">
        <ele>7.4</ele>
        <time>2022-02-27T13:05:20.000Z</time>
      </trkpt>
      <trkpt lat="49.40912" lon="1.12075">
        <ele>7.7</ele>
        <time>2022-02-27T13:05:18.000Z</time>
      </trkpt>
      <trkpt lat="49.40902" lon="1.12078">
        <ele>7.3</ele>
        <time>2022-02-27T13:05:16.000Z</time>
      </trkpt>
      <trkpt lat="49.40892" lon="1.12082">
        <ele>7.6</ele>
        <time>2022-02-27T13:05:14.000Z</time>
      </trkpt>
      <trkpt lat="49.40881" lon="1.12085">
        <ele>7.5</ele>
        <time>2022-02-27T13:05:12.000Z</time>
      </trkpt>
      <trkpt lat="49.4087" lon="1.12089">
        <ele>7.6</ele>
        <time>2022-02-27T13:05:10.000Z</time>
      </trkpt>
      <trkpt lat="49.40859" lon="1.12093">
        <ele>7.5</ele>
        <time>2022-02-27T13:05:08.000Z</time>
      </trkpt>
      <trkpt lat="49.40848" lon="1.12096">
        <ele>7.5</ele>
        <time>2022-02-27T13:05:06.000Z</time>
      </trkpt>
      <trkpt lat="49.40837" lon="1.12099">
        <ele>7.4</ele>
        <time>2022-02-27T13:05:04.000Z</time>
      </trkpt>
      <trkpt lat="49.40826" lon="1.12101">
        <ele>7.1</ele>
        <time>2022-02-27T13:05:02.000Z</time>
      </trkpt>
      <trkpt lat="49.40815" lon="1.12103">
        <ele>7.2</ele>
        <time>2022-02-27T13:05:00.000Z</time>
      </trkpt>
      <trkpt lat="49.40804" lon="1.12105">
        <ele>7.1</ele>
        <time>2022-02-27T13:04:58.000Z</time>
      </trkpt>
      <trkpt lat="49.40793" lon="1.12107">
        <ele>7.3</ele>
        <time>2022-02-27T13:04:56.000Z</time>
      </trkpt>
      <trkpt lat="49.40781" lon="1.1211">
        <ele>7.2</ele>
        <time>2022-02-27T13:04:54.000Z</time>
      </trkpt>
      <trkpt lat="49.4077" lon="1.12112">
        <ele>7.4</ele>
        <time>2022-02-27T13:04:52.000Z</time>
      </trkpt>
      <trkpt lat="49.40758" lon="1.12115">
        <ele>7.8</ele>
        <time>2022-02-27T13:04:50.000Z</time>
      </trkpt>
      <trkpt lat="49.40747" lon="1.12117">
        <ele>7.5</ele>
        <time>2022-02-27T13:04:48.000Z</time>
      </trkpt>
      <trkpt lat="49.40736" lon="1.1212">
        <ele>7</ele>
        <time>2022-02-27T13:04:46.000Z</time>
      </trkpt>
      <trkpt lat="49.40724" lon="1.12123">
        <ele>7.2</ele>
        <time>2022-02-27T13:04:44.000Z</time>
      </trkpt>
      <trkpt lat="49.40713" lon="1.12126">
        <ele>7</ele>
        <time>2022-02-27T13:04:42.000Z</time>
      </trkpt>
      <trkpt lat="49.40701" lon="1.1213">
        <ele>7</ele>
        <time>2022-02-27T13:04:40.000Z</time>
      </trkpt>
      <trkpt lat="49.4069" lon="1.12135">
        <ele>7</ele>
        <time>2022-02-27T13:04:38.000Z</time>
      </trkpt>
      <trkpt lat="49.40679" lon="1.12138">
        <ele>6.9</ele>
        <time>2022-02-27T13:04:36.000Z</time>
      </trkpt>
      <trkpt lat="49.40668" lon="1.1214">
        <ele>7.3</ele>
        <time>2022-02-27T13:04:34.000Z</time>
      </trkpt>
      <trkpt lat="49.40657" lon="1.12142">
        <ele>7.2</ele>
        <time>2022-02-27T13:04:32.000Z</time>
      </trkpt>
      <trkpt lat="49.40646" lon="1.12145">
        <ele>6.7</ele>
        <time>2022-02-27T13:04:30.000Z</time>
      </trkpt>
      <trkpt lat="49.40636" lon="1.12147">
        <ele>6.7</ele>
        <time>2022-02-27T13:04:28.000Z</time>
      </trkpt>
      <trkpt lat="49.40625" lon="1.12149">
        <ele>7.1</ele>
        <time>2022-02-27T13:04:26.000Z</time>
      </trkpt>
      <trkpt lat="49.40614" lon="1.12152">
        <ele>6.8</ele>
        <time>2022-02-27T13:04:24.000Z</time>
      </trkpt>
      <trkpt lat="49.40604" lon="1.12154">
        <ele>6.4</ele>
        <time>2022-02-27T13:04:22.000Z</time>
      </trkpt>
      <trkpt lat="49.40593" lon="1.12156">
        <ele>6.8</ele>
        <time>2022-02-27T13:04:20.000Z</time>
      </trkpt>
      <trkpt lat="49.40582" lon="1.12158">
        <ele>6.8</ele>
        <time>2022-02-27T13:04:18.000Z</time>
      </trkpt>
      <trkpt lat="49.40571" lon="1.1216">
        <ele>6.8</ele>
        <time>2022-02-27T13:04:16.000Z</time>
      </trkpt>
      <trkpt lat="49.4056" lon="1.12163">
        <ele>6.9</ele>
        <time>2022-02-27T13:04:14.000Z</time>
      </trkpt>
      <trkpt lat="49.4055" lon="1.12166">
        <ele>6.7</ele>
        <time>2022-02-27T13:04:12.000Z</time>
      </trkpt>
      <trkpt lat="49.40539" lon="1.12169">
        <ele>6.8</ele>
        <time>2022-02-27T13:04:10.000Z</time>
      </trkpt>
      <trkpt lat="49.40528" lon="1.12171">
        <ele>7</ele>
        <time>2022-02-27T13:04:08.000Z</time>
      </trkpt>
      <trkpt lat="49.40517" lon="1.12173">
        <ele>7</ele>
        <time>2022-02-27T13:04:06.000Z</time>
      </trkpt>
      <trkpt lat="49.40505" lon="1.12175">
        <ele>6.5</ele>
        <time>2022-02-27T13:04:04.000Z</time>
      </trkpt>
      <trkpt lat="49.40494" lon="1.12177">
        <ele>6.6</ele>
        <time>2022-02-27T13:04:02.000Z</time>
      </trkpt>
      <trkpt lat="49.40483" lon="1.1218">
        <ele>6.9</ele>
        <time>2022-02-27T13:04:00.000Z</time>
      </trkpt>
      <trkpt lat="49.40472" lon="1.12182">
        <ele>7</ele>
        <time>2022-02-27T13:03:58.000Z</time>
      </trkpt>
      <trkpt lat="49.40461" lon="1.12184">
        <ele>6.6</ele>
        <time>2022-02-27T13:03:56.000Z</time>
      </trkpt>
      <trkpt lat="49.4045" lon="1.12186">
        <ele>6.4</ele>
        <time>2022-02-27T13:03:54.000Z</time>
      </trkpt>
      <trkpt lat="49.40439" lon="1.12188">
        <ele>6.8</ele>
        <time>2022-02-27T13:03:52.000Z</time>
      </trkpt>
      <trkpt lat="49.40428" lon="1.1219">
        <ele>6.9</ele>
        <time>2022-02-27T13:03:50.000Z</time>
      </trkpt>
      <trkpt lat="49.40417" lon="1.12193">
        <ele>6.9</ele>
        <time>2022-02-27T13:03:48.000Z</time>
      </trkpt>
      <trkpt lat="49.40407" lon="1.12196">
        <ele>7.5</ele>
        <time>2022-02-27T13:03:46.000Z</time>
      </trkpt>
      <trkpt lat="49.40397" lon="1.12198">
        <ele>7.5</ele>
        <time>2022-02-27T13:03:44.000Z</time>
      </trkpt>
      <trkpt lat="49.40386" lon="1.122">
        <ele>7.5</ele>
        <time>2022-02-27T13:03:42.000Z</time>
      </trkpt>
      <trkpt lat="49.40376" lon="1.12201">
        <ele>7.5</ele>
        <time>2022-02-27T13:03:40.000Z</time>
      </trkpt>
      <trkpt lat="49.40365" lon="1.12201">
        <ele>7.2</ele>
        <time>2022-02-27T13:03:38.000Z</time>
      </trkpt>
      <trkpt lat="49.40354" lon="1.12203">
        <ele>7.4</ele>
        <time>2022-02-27T13:03:36.000Z</time>
      </trkpt>
      <trkpt lat="49.40343" lon="1.12206">
        <ele>7.3</ele>
        <time>2022-02-27T13:03:34.000Z</time>
      </trkpt>
      <trkpt lat="49.40332" lon="1.12207">
        <ele>7.1</ele>
        <time>2022-02-27T13:03:32.000Z</time>
      </trkpt>
      <trkpt lat="49.40322" lon="1.12211">
        <ele>7.3</ele>
        <time>2022-02-27T13:03:30.000Z</time>
      </trkpt>
      <trkpt lat="49.40312" lon="1.12216">
        <ele>7.4</ele>
        <time>2022-02-27T13:03:28.000Z</time>
      </trkpt>
      <trkpt lat="49.40301" lon="1.12217">
        <ele>7.4</ele>
        <time>2022-02-27T13:03:26.000Z</time>
      </trkpt>
      <trkpt lat="49.40291" lon="1.12215">
        <ele>7.2</ele>
        <time>2022-02-27T13:03:24.000Z</time>
      </trkpt>
      <trkpt lat="49.4028" lon="1.12215">
        <ele>7</ele>
        <time>2022-02-27T13:03:22.000Z</time>
      </trkpt>
      <trkpt lat="49.40269" lon="1.12217">
        <ele>7.1</ele>
        <time>2022-02-27T13:03:20.000Z</time>
      </trkpt>
      <trkpt lat="49.40258" lon="1.12218">
        <ele>7</ele>
        <time>2022-02-27T13:03:18.000Z</time>
      </trkpt>
      <trkpt lat="49.40248" lon="1.1222">
        <ele>7.4</ele>
        <time>2022-02-27T13:03:16.000Z</time>
      </trkpt>
      <trkpt lat="49.40237" lon="1.12221">
        <ele>7.7</ele>
        <time>2022-02-27T13:03:14.000Z</time>
      </trkpt>
      <trkpt lat="49.40226" lon="1.12222">
        <ele>7.3</ele>
        <time>2022-02-27T13:03:12.000Z</time>
      </trkpt>
      <trkpt lat="49.40215" lon="1.12224">
        <ele>7.4</ele>
        <time>2022-02-27T13:03:10.000Z</time>
      </trkpt>
      <trkpt lat="49.40203" lon="1.12224">
        <ele>7.1</ele>
        <time>2022-02-27T13:03:08.000Z</time>
      </trkpt>
      <trkpt lat="49.40192" lon="1.12225">
        <ele>7.1</ele>
        <time>2022-02-27T13:03:06.000Z</time>
      </trkpt>
      <trkpt lat="49.4018" lon="1.12226">
        <ele>7.3</ele>
        <time>2022-02-27T13:03:04.000Z</time>
      </trkpt>
      <trkpt lat="49.40169" lon="1.12227">
        <ele>7.3</ele>
        <time>2022-02-27T13:03:02.000Z</time>
      </trkpt>
      <trkpt lat="49.40157" lon="1.12227">
        <ele>7.6</ele>
        <time>2022-02-27T13:03:00.000Z</time>
      </trkpt>
      <trkpt lat="49.40145" lon="1.12228">
        <ele>7.9</ele>
        <time>2022-02-27T13:02:58.000Z</time>
      </trkpt>
      <trkpt lat="49.40134" lon="1.12229">
        <ele>7.9</ele>
        <time>2022-02-27T13:02:56.000Z</time>
      </trkpt>
      <trkpt lat="49.40122" lon="1.1223">
        <ele>7.8</ele>
        <time>2022-02-27T13:02:54.000Z</time>
      </trkpt>
      <trkpt lat="49.40111" lon="1.12231">
        <ele>7.9</ele>
        <time>2022-02-27T13:02:52.000Z</time>
      </trkpt>
      <trkpt lat="49.401" lon="1.12232">
        <ele>7.9</ele>
        <time>2022-02-27T13:02:50.000Z</time>
      </trkpt>
      <trkpt lat="49.40089" lon="1.12232">
        <ele>7.8</ele>
        <time>2022-02-27T13:02:48.000Z</time>
      </trkpt>
      <trkpt lat="49.40079" lon="1.12234">
        <ele>7.7</ele>
        <time>2022-02-27T13:02:46.000Z</time>
      </trkpt>
      <trkpt lat="49.40068" lon="1.12235">
        <ele>7.6</ele>
        <time>2022-02-27T13:02:44.000Z</time>
      </trkpt>
      <trkpt lat="49.40057" lon="1.12236">
        <ele>7.8</ele>
        <time>2022-02-27T13:02:42.000Z</time>
      </trkpt>
      <trkpt lat="49.40047" lon="1.12237">
        <ele>8</ele>
        <time>2022-02-27T13:02:40.000Z</time>
      </trkpt>
      <trkpt lat="49.40037" lon="1.12236">
        <ele>7.9</ele>
        <time>2022-02-27T13:02:38.000Z</time>
      </trkpt>
      <trkpt lat="49.40026" lon="1.12234">
        <ele>8</ele>
        <time>2022-02-27T13:02:36.000Z</time>
      </trkpt>
      <trkpt lat="49.40016" lon="1.12234">
        <ele>8.2</ele>
        <time>2022-02-27T13:02:34.000Z</time>
      </trkpt>
      <trkpt lat="49.40006" lon="1.12235">
        <ele>8.1</ele>
        <time>2022-02-27T13:02:32.000Z</time>
      </trkpt>
      <trkpt lat="49.39995" lon="1.12235">
        <ele>8</ele>
        <time>2022-02-27T13:02:30.000Z</time>
      </trkpt>
      <trkpt lat="49.39984" lon="1.12236">
        <ele>8.1</ele>
        <time>2022-02-27T13:02:28.000Z</time>
      </trkpt>
      <trkpt lat="49.39974" lon="1.12236">
        <ele>7.7</ele>
        <time>2022-02-27T13:02:26.000Z</time>
      </trkpt>
      <trkpt lat="49.39963" lon="1.12236">
        <ele>7.7</ele>
        <time>2022-02-27T13:02:24.000Z</time>
      </trkpt>
      <trkpt lat="49.39953" lon="1.12237">
        <ele>7.9</ele>
        <time>2022-02-27T13:02:22.000Z</time>
      </trkpt>
      <trkpt lat="49.39942" lon="1.12237">
        <ele>8.1</ele>
        <time>2022-02-27T13:02:20.000Z</time>
      </trkpt>
      <trkpt lat="49.39932" lon="1.12238">
        <ele>8.3</ele>
        <time>2022-02-27T13:02:18.000Z</time>
      </trkpt>
      <trkpt lat="49.39921" lon="1.12239">
        <ele>8.6</ele>
        <time>2022-02-27T13:02:16.000Z</time>
      </trkpt>
      <trkpt lat="49.39911" lon="1.1224">
        <ele>8.4</ele>
        <time>2022-02-27T13:02:14.000Z</time>
      </trkpt>
      <trkpt lat="49.399" lon="1.12241">
        <ele>7.9</ele>
        <time>2022-02-27T13:02:12.000Z</time>
      </trkpt>
      <trkpt lat="49.3989" lon="1.12242">
        <ele>7.6</ele>
        <time>2022-02-27T13:02:10.000Z</time>
      </trkpt>
      <trkpt lat="49.39879" lon="1.12243">
        <ele>7.6</ele>
        <time>2022-02-27T13:02:08.000Z</time>
      </trkpt>
      <trkpt lat="49.39868" lon="1.12244">
        <ele>7.4</ele>
        <time>2022-02-27T13:02:06.000Z</time>
      </trkpt>
      <trkpt lat="49.39857" lon="1.12246">
        <ele>7.3</ele>
        <time>2022-02-27T13:02:04.000Z</time>
      </trkpt>
      <trkpt lat="49.39846" lon="1.12248">
        <ele>7.2</ele>
        <time>2022-02-27T13:02:02.000Z</time>
      </trkpt>
      <trkpt lat="49.39835" lon="1.12249">
        <ele>7.2</ele>
        <time>2022-02-27T13:02:00.000Z</time>
      </trkpt>
      <trkpt lat="49.39824" lon="1.12251">
        <ele>7.2</ele>
        <time>2022-02-27T13:01:58.000Z</time>
      </trkpt>
      <trkpt lat="49.39813" lon="1.12251">
        <ele>7.3</ele>
        <time>2022-02-27T13:01:56.000Z</time>
      </trkpt>
      <trkpt lat="49.39803" lon="1.12251">
        <ele>7.3</ele>
        <time>2022-02-27T13:01:54.000Z</time>
      </trkpt>
      <trkpt lat="49.39792" lon="1.1225">
        <ele>7.7</ele>
        <time>2022-02-27T13:01:52.000Z</time>
      </trkpt>
      <trkpt lat="49.39782" lon="1.12248">
        <ele>7.9</ele>
        <time>2022-02-27T13:01:50.000Z</time>
      </trkpt>
      <trkpt lat="49.39771" lon="1.12247">
        <ele>8</ele>
        <time>2022-02-27T13:01:48.000Z</time>
      </trkpt>
      <trkpt lat="49.39761" lon="1.12246">
        <ele>8</ele>
        <time>2022-02-27T13:01:46.000Z</time>
      </trkpt>
      <trkpt lat="49.39752" lon="1.12246">
        <ele>7.8</ele>
        <time>2022-02-27T13:01:44.000Z</time>
      </trkpt>
      <trkpt lat="49.39742" lon="1.12247">
        <ele>7.7</ele>
        <time>2022-02-27T13:01:42.000Z</time>
      </trkpt>
      <trkpt lat="49.39733" lon="1.12248">
        <ele>7.6</ele>
        <time>2022-02-27T13:01:40.000Z</time>
      </trkpt>
      <trkpt lat="49.39724" lon="1.12249">
        <ele>7.5</ele>
        <time>2022-02-27T13:01:38.000Z</time>
      </trkpt>
      <trkpt lat="49.39714" lon="1.12251">
        <ele>7.8</ele>
        <time>2022-02-27T13:01:36.000Z</time>
      </trkpt>
      <trkpt lat="49.39704" lon="1.12252">
        <ele>7.9</ele>
        <time>2022-02-27T13:01:34.000Z</time>
      </trkpt>
      <trkpt lat="49.39693" lon="1.12254">
        <ele>7.9</ele>
        <time>2022-02-27T13:01:32.000Z</time>
      </trkpt>
      <trkpt lat="49.39682" lon="1.12256">
        <ele>8.1</ele>
        <time>2022-02-27T13:01:30.000Z</time>
      </trkpt>
      <trkpt lat="49.3967" lon="1.12257">
        <ele>8</ele>
        <time>2022-02-27T13:01:28.000Z</time>
      </trkpt>
      <trkpt lat="49.39658" lon="1.12258">
        <ele>7.9</ele>
        <time>2022-02-27T13:01:26.000Z</time>
      </trkpt>
      <trkpt lat="49.39646" lon="1.12259">
        <ele>7.9</ele>
        <time>2022-02-27T13:01:24.000Z</time>
      </trkpt>
      <trkpt lat="49.39633" lon="1.12258">
        <ele>7.7</ele>
        <time>2022-02-27T13:01:22.000Z</time>
      </trkpt>
      <trkpt lat="49.39621" lon="1.12257">
        <ele>7.2</ele>
        <time>2022-02-27T13:01:20.000Z</time>
      </trkpt>
      <trkpt lat="49.39609" lon="1.12257">
        <ele>7.1</ele>
        <time>2022-02-27T13:01:18.000Z</time>
      </trkpt>
      <trkpt lat="49.39596" lon="1.12258">
        <ele>7.4</ele>
        <time>2022-02-27T13:01:16.000Z</time>
      </trkpt>
      <trkpt lat="49.39584" lon="1.12258">
        <ele>7.2</ele>
        <time>2022-02-27T13:01:14.000Z</time>
      </trkpt>
      <trkpt lat="49.39573" lon="1.12258">
        <ele>7.3</ele>
        <time>2022-02-27T13:01:12.000Z</time>
      </trkpt>
      <trkpt lat="49.39563" lon="1.12257">
        <ele>7.3</ele>
        <time>2022-02-27T13:01:10.000Z</time>
      </trkpt>
      <trkpt lat="49.3955" lon="1.12257">
        <ele>7.5</ele>
        <time>2022-02-27T13:01:07.000Z</time>
      </trkpt>
      <trkpt lat="49.3954" lon="1.12257">
        <ele>7.4</ele>
        <time>2022-02-27T13:01:05.000Z</time>
      </trkpt>
      <trkpt lat="49.3953" lon="1.12258">
        <ele>7.4</ele>
        <time>2022-02-27T13:01:03.000Z</time>
      </trkpt>
      <trkpt lat="49.3952" lon="1.12259">
        <ele>7.5</ele>
        <time>2022-02-27T13:01:01.000Z</time>
      </trkpt>
      <trkpt lat="49.39509" lon="1.12261">
        <ele>7.6</ele>
        <time>2022-02-27T13:00:59.000Z</time>
      </trkpt>
      <trkpt lat="49.39499" lon="1.12263">
        <ele>7.5</ele>
        <time>2022-02-27T13:00:57.000Z</time>
      </trkpt>
      <trkpt lat="49.39489" lon="1.12266">
        <ele>7.4</ele>
        <time>2022-02-27T13:00:55.000Z</time>
      </trkpt>
      <trkpt lat="49.39479" lon="1.12269">
        <ele>7.6</ele>
        <time>2022-02-27T13:00:53.000Z</time>
      </trkpt>
      <trkpt lat="49.39468" lon="1.12273">
        <ele>7.8</ele>
        <time>2022-02-27T13:00:51.000Z</time>
      </trkpt>
      <trkpt lat="49.39456" lon="1.12276">
        <ele>7.8</ele>
        <time>2022-02-27T13:00:49.000Z</time>
      </trkpt>
      <trkpt lat="49.39444" lon="1.12278">
        <ele>7.7</ele>
        <time>2022-02-27T13:00:47.000Z</time>
      </trkpt>
      <trkpt lat="49.39432" lon="1.12281">
        <ele>7.9</ele>
        <time>2022-02-27T13:00:45.000Z</time>
      </trkpt>
      <trkpt lat="49.39421" lon="1.12283">
        <ele>7.7</ele>
        <time>2022-02-27T13:00:43.000Z</time>
      </trkpt>
      <trkpt lat="49.39409" lon="1.12286">
        <ele>7.8</ele>
        <time>2022-02-27T13:00:41.000Z</time>
      </trkpt>
      <trkpt lat="49.39398" lon="1.12289">
        <ele>7.6</ele>
        <time>2022-02-27T13:00:39.000Z</time>
      </trkpt>
      <trkpt lat="49.39386" lon="1.12292">
        <ele>7.5</ele>
        <time>2022-02-27T13:00:37.000Z</time>
      </trkpt>
      <trkpt lat="49.39375" lon="1.12295">
        <ele>7.4</ele>
        <time>2022-02-27T13:00:35.000Z</time>
      </trkpt>
      <trkpt lat="49.39364" lon="1.12298">
        <ele>7.3</ele>
        <time>2022-02-27T13:00:33.000Z</time>
      </trkpt>
      <trkpt lat="49.39354" lon="1.12301">
        <ele>7.5</ele>
        <time>2022-02-27T13:00:31.000Z</time>
      </trkpt>
      <trkpt lat="49.39344" lon="1.12305">
        <ele>7.7</ele>
        <time>2022-02-27T13:00:29.000Z</time>
      </trkpt>
      <trkpt lat="49.39335" lon="1.12308">
        <ele>7.9</ele>
        <time>2022-02-27T13:00:27.000Z</time>
      </trkpt>
      <trkpt lat="49.39326" lon="1.12311">
        <ele>8.1</ele>
        <time>2022-02-27T13:00:25.000Z</time>
      </trkpt>
      <trkpt lat="49.39313" lon="1.12316">
        <ele>8.1</ele>
        <time>2022-02-27T13:00:22.000Z</time>
      </trkpt>
      <trkpt lat="49.39304" lon="1.12318">
        <ele>7.4</ele>
        <time>2022-02-27T13:00:20.000Z</time>
      </trkpt>
      <trkpt lat="49.39295" lon="1.12322">
        <ele>7.4</ele>
        <time>2022-02-27T13:00:18.000Z</time>
      </trkpt>
      <trkpt lat="49.39285" lon="1.12326">
        <ele>7.4</ele>
        <time>2022-02-27T13:00:16.000Z</time>
      </trkpt>
      <trkpt lat="49.39276" lon="1.1233">
        <ele>7.5</ele>
        <time>2022-02-27T13:00:14.000Z</time>
      </trkpt>
      <trkpt lat="49.39267" lon="1.12333">
        <ele>7.5</ele>
        <time>2022-02-27T13:00:12.000Z</time>
      </trkpt>
      <trkpt lat="49.39257" lon="1.12336">
        <ele>7.4</ele>
        <time>2022-02-27T13:00:10.000Z</time>
      </trkpt>
      <trkpt lat="49.39247" lon="1.1234">
        <ele>7</ele>
        <time>2022-02-27T13:00:08.000Z</time>
      </trkpt>
      <trkpt lat="49.39236" lon="1.12343">
        <ele>7.6</ele>
        <time>2022-02-27T13:00:06.000Z</time>
      </trkpt>
      <trkpt lat="49.39226" lon="1.12346">
        <ele>6.8</ele>
        <time>2022-02-27T13:00:04.000Z</time>
      </trkpt>
      <trkpt lat="49.39215" lon="1.1235">
        <ele>6.2</ele>
        <time>2022-02-27T13:00:02.000Z</time>
      </trkpt>
      <trkpt lat="49.39205" lon="1.12354">
        <ele>7</ele>
        <time>2022-02-27T13:00:00.000Z</time>
      </trkpt>
      <trkpt lat="49.39195" lon="1.12358">
        <ele>7.6</ele>
        <time>2022-02-27T12:59:58.000Z</time>
      </trkpt>
      <trkpt lat="49.39185" lon="1.12363">
        <ele>6.5</ele>
        <time>2022-02-27T12:59:56.000Z</time>
      </trkpt>
      <trkpt lat="49.39175" lon="1.12367">
        <ele>7.4</ele>
        <time>2022-02-27T12:59:54.000Z</time>
      </trkpt>
      <trkpt lat="49.39165" lon="1.12371">
        <ele>8</ele>
        <time>2022-02-27T12:59:52.000Z</time>
      </trkpt>
      <trkpt lat="49.39155" lon="1.12375">
        <ele>7.5</ele>
        <time>2022-02-27T12:59:50.000Z</time>
      </trkpt>
      <trkpt lat="49.39145" lon="1.12378">
        <ele>7.5</ele>
        <time>2022-02-27T12:59:48.000Z</time>
      </trkpt>
      <trkpt lat="49.39135" lon="1.12381">
        <ele>7.1</ele>
        <time>2022-02-27T12:59:46.000Z</time>
      </trkpt>
      <trkpt lat="49.39126" lon="1.12386">
        <ele>7.2</ele>
        <time>2022-02-27T12:59:44.000Z</time>
      </trkpt>
      <trkpt lat="49.39116" lon="1.12391">
        <ele>7.1</ele>
        <time>2022-02-27T12:59:42.000Z</time>
      </trkpt>
      <trkpt lat="49.39105" lon="1.12396">
        <ele>7.1</ele>
        <time>2022-02-27T12:59:40.000Z</time>
      </trkpt>
      <trkpt lat="49.39095" lon="1.12401">
        <ele>7</ele>
        <time>2022-02-27T12:59:38.000Z</time>
      </trkpt>
      <trkpt lat="49.39086" lon="1.12408">
        <ele>7.3</ele>
        <time>2022-02-27T12:59:36.000Z</time>
      </trkpt>
      <trkpt lat="49.39078" lon="1.12417">
        <ele>7.4</ele>
        <time>2022-02-27T12:59:34.000Z</time>
      </trkpt>
      <trkpt lat="49.3907" lon="1.12427">
        <ele>7.7</ele>
        <time>2022-02-27T12:59:32.000Z</time>
      </trkpt>
      <trkpt lat="49.39063" lon="1.12439">
        <ele>7.8</ele>
        <time>2022-02-27T12:59:30.000Z</time>
      </trkpt>
      <trkpt lat="49.39056" lon="1.1245">
        <ele>7.8</ele>
        <time>2022-02-27T12:59:28.000Z</time>
      </trkpt>
      <trkpt lat="49.39048" lon="1.12465">
        <ele>7.8</ele>
        <time>2022-02-27T12:59:25.000Z</time>
      </trkpt>
      <trkpt lat="49.39039" lon="1.12479">
        <ele>8</ele>
        <time>2022-02-27T12:59:22.000Z</time>
      </trkpt>
      <trkpt lat="49.39029" lon="1.12481">
        <ele>8.9</ele>
        <time>2022-02-27T12:59:19.000Z</time>
      </trkpt>
      <trkpt lat="49.3902" lon="1.12479">
        <ele>8.8</ele>
        <time>2022-02-27T12:59:16.000Z</time>
      </trkpt>
      <trkpt lat="49.3901" lon="1.12478">
        <ele>8.4</ele>
        <time>2022-02-27T12:59:13.000Z</time>
      </trkpt>
      <trkpt lat="49.39" lon="1.12472">
        <ele>7.3</ele>
        <time>2022-02-27T12:59:10.000Z</time>
      </trkpt>
      <trkpt lat="49.3899" lon="1.12471">
        <ele>7.3</ele>
        <time>2022-02-27T12:59:07.000Z</time>
      </trkpt>
      <trkpt lat="49.3898" lon="1.12473">
        <ele>7</ele>
        <time>2022-02-27T12:59:03.000Z</time>
      </trkpt>
      <trkpt lat="49.3897" lon="1.12466">
        <ele>6.9</ele>
        <time>2022-02-27T12:58:59.000Z</time>
      </trkpt>
      <trkpt lat="49.38968" lon="1.12448">
        <ele>6.9</ele>
        <time>2022-02-27T12:58:55.000Z</time>
      </trkpt>
      <trkpt lat="49.38963" lon="1.12433">
        <ele>6.8</ele>
        <time>2022-02-27T12:58:52.000Z</time>
      </trkpt>
      <trkpt lat="49.38956" lon="1.12424">
        <ele>7.1</ele>
        <time>2022-02-27T12:58:49.000Z</time>
      </trkpt>
      <trkpt lat="49.38946" lon="1.12428">
        <ele>7.3</ele>
        <time>2022-02-27T12:58:46.000Z</time>
      </trkpt>
      <trkpt lat="49.38937" lon="1.12434">
        <ele>7.8</ele>
        <time>2022-02-27T12:58:43.000Z</time>
      </trkpt>
      <trkpt lat="49.38928" lon="1.12431">
        <ele>7.4</ele>
        <time>2022-02-27T12:58:40.000Z</time>
      </trkpt>
      <trkpt lat="49.38916" lon="1.12425">
        <ele>7.9</ele>
        <time>2022-02-27T12:58:36.000Z</time>
      </trkpt>
      <trkpt lat="49.38906" lon="1.1242">
        <ele>7.5</ele>
        <time>2022-02-27T12:58:30.000Z</time>
      </trkpt>
      <trkpt lat="49.38897" lon="1.12416">
        <ele>7.2</ele>
        <time>2022-02-27T12:58:23.000Z</time>
      </trkpt>
      <trkpt lat="49.38887" lon="1.12416">
        <ele>7.3</ele>
        <time>2022-02-27T12:58:18.000Z</time>
      </trkpt>
      <trkpt lat="49.38876" lon="1.12418">
        <ele>7.5</ele>
        <time>2022-02-27T12:58:14.000Z</time>
      </trkpt>
      <trkpt lat="49.38867" lon="1.12427">
        <ele>6.7</ele>
        <time>2022-02-27T12:58:10.000Z</time>
      </trkpt>
      <trkpt lat="49.38867" lon="1.12445">
        <ele>6.6</ele>
        <time>2022-02-27T12:58:08.000Z</time>
      </trkpt>
      <trkpt lat="49.38866" lon="1.1247">
        <ele>7.7</ele>
        <time>2022-02-27T12:58:06.000Z</time>
      </trkpt>
      <trkpt lat="49.38866" lon="1.12497">
        <ele>8</ele>
        <time>2022-02-27T12:58:04.000Z</time>
      </trkpt>
      <trkpt lat="49.38866" lon="1.12522">
        <ele>9.8</ele>
        <time>2022-02-27T12:58:02.000Z</time>
      </trkpt>
      <trkpt lat="49.38866" lon="1.12545">
        <ele>12.1</ele>
        <time>2022-02-27T12:58:00.000Z</time>
      </trkpt>
      <trkpt lat="49.38866" lon="1.12566">
        <ele>13.8</ele>
        <time>2022-02-27T12:57:58.000Z</time>
      </trkpt>
      <trkpt lat="49.38863" lon="1.12583">
        <ele>16</ele>
        <time>2022-02-27T12:57:55.000Z</time>
      </trkpt>
      <trkpt lat="49.38844" lon="1.12758">
        <ele>24.1</ele>
      </trkpt>
      <trkpt lat="49.38753" lon="1.12978">
        <ele>38.7</ele>
      </trkpt>
      <trkpt lat="49.3867" lon="1.13181">
        <ele>54.8</ele>
      </trkpt>
      <trkpt lat="49.38655" lon="1.13388">
        <ele>78</ele>
      </trkpt>
      <trkpt lat="49.38576" lon="1.13277">
        <ele>87.2</ele>
      </trkpt>
      <trkpt lat="49.38491" lon="1.13312">
        <ele>118.5</ele>
      </trkpt>
      <trkpt lat="49.38441" lon="1.13349">
        <ele>127.8</ele>
      </trkpt>
      <trkpt lat="49.38397" lon="1.1341">
        <ele>132.3</ele>
      </trkpt>
      <trkpt lat="49.38311" lon="1.13403">
        <ele>131.6</ele>
      </trkpt>
      <trkpt lat="49.38255" lon="1.13393">
        <ele>130.3</ele>
      </trkpt>
      <trkpt lat="49.38096" lon="1.13372">
        <ele>132.4</ele>
      </trkpt>
      <trkpt lat="49.37665" lon="1.13352">
        <ele>124.3</ele>
      </trkpt>
      <trkpt lat="49.37497" lon="1.13335">
        <ele>119.7</ele>
        <time>2022-02-27T12:57:51.000Z</time>
      </trkpt>
      <trkpt lat="49.37426" lon="1.12994">
        <ele>129.3</ele>
        <time>2022-02-27T12:27:48.000Z</time>
      </trkpt>
      <trkpt lat="49.37482" lon="1.13267">
        <ele>120.9</ele>
      </trkpt>
      <trkpt lat="49.37426" lon="1.12994">
        <ele>128.8</ele>
        <time>2022-02-27T12:26:22.000Z</time>
      </trkpt>
      <trkpt lat="49.37426" lon="1.12995">
        <ele>128.6</ele>
        <time>2022-02-27T12:25:51.000Z</time>
      </trkpt>
      <trkpt lat="49.37409" lon="1.12998">
        <ele>128.5</ele>
        <time>2022-02-27T12:23:57.000Z</time>
      </trkpt>
      <trkpt lat="49.374" lon="1.12995">
        <ele>127.4</ele>
        <time>2022-02-27T12:23:54.000Z</time>
      </trkpt>
      <trkpt lat="49.3739" lon="1.12991">
        <ele>126.1</ele>
        <time>2022-02-27T12:23:51.000Z</time>
      </trkpt>
      <trkpt lat="49.3738" lon="1.12989">
        <ele>124.7</ele>
        <time>2022-02-27T12:23:48.000Z</time>
      </trkpt>
      <trkpt lat="49.37368" lon="1.12989">
        <ele>123.2</ele>
        <time>2022-02-27T12:23:44.000Z</time>
      </trkpt>
      <trkpt lat="49.37358" lon="1.12982">
        <ele>119.9</ele>
        <time>2022-02-27T12:23:40.000Z</time>
      </trkpt>
      <trkpt lat="49.37349" lon="1.12979">
        <ele>117.3</ele>
        <time>2022-02-27T12:23:34.000Z</time>
      </trkpt>
      <trkpt lat="49.37326" lon="1.12955">
        <ele>114</ele>
        <time>2022-02-27T12:23:20.000Z</time>
      </trkpt>
      <trkpt lat="49.37317" lon="1.12942">
        <ele>113.3</ele>
        <time>2022-02-27T12:23:16.000Z</time>
      </trkpt>
      <trkpt lat="49.37306" lon="1.12939">
        <ele>111</ele>
        <time>2022-02-27T12:23:12.000Z</time>
      </trkpt>
      <trkpt lat="49.37296" lon="1.12937">
        <ele>109.8</ele>
        <time>2022-02-27T12:23:09.000Z</time>
      </trkpt>
      <trkpt lat="49.37286" lon="1.12933">
        <ele>108.1</ele>
        <time>2022-02-27T12:23:06.000Z</time>
      </trkpt>
      <trkpt lat="49.37276" lon="1.12926">
        <ele>106.2</ele>
        <time>2022-02-27T12:23:03.000Z</time>
      </trkpt>
      <trkpt lat="49.37265" lon="1.12919">
        <ele>106.5</ele>
        <time>2022-02-27T12:22:58.000Z</time>
      </trkpt>
      <trkpt lat="49.37264" lon="1.12919">
        <ele>106.5</ele>
        <time>2022-02-27T12:22:47.000Z</time>
      </trkpt>
      <trkpt lat="49.37259" lon="1.12916">
        <ele>105.8</ele>
        <time>2022-02-27T12:22:42.000Z</time>
      </trkpt>
      <trkpt lat="49.37249" lon="1.1291">
        <ele>105.2</ele>
        <time>2022-02-27T12:22:39.000Z</time>
      </trkpt>
      <trkpt lat="49.37241" lon="1.12903">
        <ele>104.8</ele>
        <time>2022-02-27T12:22:37.000Z</time>
      </trkpt>
      <trkpt lat="49.37233" lon="1.12896">
        <ele>104.6</ele>
        <time>2022-02-27T12:22:35.000Z</time>
      </trkpt>
      <trkpt lat="49.37225" lon="1.12889">
        <ele>105.2</ele>
        <time>2022-02-27T12:22:33.000Z</time>
      </trkpt>
      <trkpt lat="49.37217" lon="1.12881">
        <ele>105.6</ele>
        <time>2022-02-27T12:22:31.000Z</time>
      </trkpt>
      <trkpt lat="49.37206" lon="1.1287">
        <ele>106.2</ele>
        <time>2022-02-27T12:22:28.000Z</time>
      </trkpt>
      <trkpt lat="49.37198" lon="1.12861">
        <ele>106.6</ele>
        <time>2022-02-27T12:22:25.000Z</time>
      </trkpt>
      <trkpt lat="49.37193" lon="1.12846">
        <ele>107.4</ele>
        <time>2022-02-27T12:22:18.000Z</time>
      </trkpt>
      <trkpt lat="49.37194" lon="1.12843">
        <ele>107.8</ele>
        <time>2022-02-27T12:22:07.000Z</time>
      </trkpt>
      <trkpt lat="49.37194" lon="1.12842">
        <ele>107.9</ele>
        <time>2022-02-27T12:18:22.000Z</time>
      </trkpt>
      <trkpt lat="49.37193" lon="1.12844">
        <ele>108.9</ele>
        <time>2022-02-27T12:18:04.000Z</time>
      </trkpt>
      <trkpt lat="49.37192" lon="1.12844">
        <ele>108.8</ele>
        <time>2022-02-27T12:17:59.000Z</time>
      </trkpt>
      <trkpt lat="49.37191" lon="1.12844">
        <ele>107.5</ele>
        <time>2022-02-27T12:11:01.000Z</time>
      </trkpt>
      <trkpt lat="49.37191" lon="1.12843">
        <ele>107.3</ele>
        <time>2022-02-27T12:10:55.000Z</time>
      </trkpt>
      <trkpt lat="49.37191" lon="1.12844">
        <ele>107.3</ele>
        <time>2022-02-27T12:10:39.000Z</time>
      </trkpt>
      <trkpt lat="49.3719" lon="1.12851">
        <ele>106.8</ele>
        <time>2022-02-27T12:10:13.000Z</time>
      </trkpt>
      <trkpt lat="49.37198" lon="1.12858">
        <ele>106.5</ele>
        <time>2022-02-27T12:10:10.000Z</time>
      </trkpt>
      <trkpt lat="49.37206" lon="1.12866">
        <ele>105.1</ele>
        <time>2022-02-27T12:10:07.000Z</time>
      </trkpt>
      <trkpt lat="49.37215" lon="1.12879">
        <ele>104.5</ele>
        <time>2022-02-27T12:10:04.000Z</time>
      </trkpt>
      <trkpt lat="49.37223" lon="1.12887">
        <ele>103.9</ele>
        <time>2022-02-27T12:10:02.000Z</time>
      </trkpt>
      <trkpt lat="49.37233" lon="1.12897">
        <ele>104</ele>
        <time>2022-02-27T12:09:59.000Z</time>
      </trkpt>
      <trkpt lat="49.37244" lon="1.12907">
        <ele>103.6</ele>
        <time>2022-02-27T12:09:56.000Z</time>
      </trkpt>
      <trkpt lat="49.37256" lon="1.12915">
        <ele>105.5</ele>
        <time>2022-02-27T12:09:53.000Z</time>
      </trkpt>
      <trkpt lat="49.37266" lon="1.1292">
        <ele>105.4</ele>
        <time>2022-02-27T12:09:50.000Z</time>
      </trkpt>
      <trkpt lat="49.37276" lon="1.12926">
        <ele>105.5</ele>
        <time>2022-02-27T12:09:48.000Z</time>
      </trkpt>
      <trkpt lat="49.37287" lon="1.12928">
        <ele>108.8</ele>
        <time>2022-02-27T12:09:46.000Z</time>
      </trkpt>
      <trkpt lat="49.37297" lon="1.12933">
        <ele>110.7</ele>
        <time>2022-02-27T12:09:44.000Z</time>
      </trkpt>
      <trkpt lat="49.37306" lon="1.12938">
        <ele>113</ele>
        <time>2022-02-27T12:09:42.000Z</time>
      </trkpt>
      <trkpt lat="49.37317" lon="1.12943">
        <ele>113</ele>
        <time>2022-02-27T12:09:38.000Z</time>
      </trkpt>
      <trkpt lat="49.37324" lon="1.12953">
        <ele>113.5</ele>
        <time>2022-02-27T12:09:33.000Z</time>
      </trkpt>
      <trkpt lat="49.37333" lon="1.12966">
        <ele>114.2</ele>
        <time>2022-02-27T12:09:30.000Z</time>
      </trkpt>
      <trkpt lat="49.37339" lon="1.12984">
        <ele>114</ele>
        <time>2022-02-27T12:05:39.000Z</time>
      </trkpt>
      <trkpt lat="49.37333" lon="1.12995">
        <ele>110.2</ele>
        <time>2022-02-27T12:05:35.000Z</time>
      </trkpt>
      <trkpt lat="49.37334" lon="1.1301">
        <ele>108.6</ele>
        <time>2022-02-27T12:05:31.000Z</time>
      </trkpt>
      <trkpt lat="49.37337" lon="1.13025">
        <ele>107.3</ele>
        <time>2022-02-27T12:05:27.000Z</time>
      </trkpt>
      <trkpt lat="49.3734" lon="1.13038">
        <ele>106.3</ele>
        <time>2022-02-27T12:05:24.000Z</time>
      </trkpt>
      <trkpt lat="49.37348" lon="1.13053">
        <ele>106.5</ele>
        <time>2022-02-27T12:05:20.000Z</time>
      </trkpt>
      <trkpt lat="49.37354" lon="1.13067">
        <ele>105.9</ele>
        <time>2022-02-27T12:05:16.000Z</time>
      </trkpt>
      <trkpt lat="49.37354" lon="1.13084">
        <ele>104.1</ele>
        <time>2022-02-27T12:05:11.000Z</time>
      </trkpt>
      <trkpt lat="49.37351" lon="1.13097">
        <ele>101.9</ele>
        <time>2022-02-27T12:05:07.000Z</time>
      </trkpt>
      <trkpt lat="49.37347" lon="1.13111">
        <ele>99</ele>
        <time>2022-02-27T12:05:03.000Z</time>
      </trkpt>
      <trkpt lat="49.37345" lon="1.13127">
        <ele>97.4</ele>
        <time>2022-02-27T12:04:59.000Z</time>
      </trkpt>
      <trkpt lat="49.37346" lon="1.13143">
        <ele>95.9</ele>
        <time>2022-02-27T12:04:55.000Z</time>
      </trkpt>
      <trkpt lat="49.37347" lon="1.13157">
        <ele>95.6</ele>
        <time>2022-02-27T12:04:52.000Z</time>
      </trkpt>
      <trkpt lat="49.37348" lon="1.13172">
        <ele>94.9</ele>
        <time>2022-02-27T12:04:49.000Z</time>
      </trkpt>
      <trkpt lat="49.3735" lon="1.13187">
        <ele>94.6</ele>
        <time>2022-02-27T12:04:46.000Z</time>
      </trkpt>
      <trkpt lat="49.37353" lon="1.13201">
        <ele>94.6</ele>
        <time>2022-02-27T12:04:43.000Z</time>
      </trkpt>
      <trkpt lat="49.37355" lon="1.13216">
        <ele>93.9</ele>
        <time>2022-02-27T12:04:40.000Z</time>
      </trkpt>
      <trkpt lat="49.37358" lon="1.13229">
        <ele>93</ele>
        <time>2022-02-27T12:04:37.000Z</time>
      </trkpt>
      <trkpt lat="49.3736" lon="1.13244">
        <ele>93.3</ele>
        <time>2022-02-27T12:04:34.000Z</time>
      </trkpt>
      <trkpt lat="49.37363" lon="1.13258">
        <ele>93</ele>
        <time>2022-02-27T12:04:31.000Z</time>
      </trkpt>
      <trkpt lat="49.37368" lon="1.13271">
        <ele>92.9</ele>
        <time>2022-02-27T12:04:28.000Z</time>
      </trkpt>
      <trkpt lat="49.3737" lon="1.13286">
        <ele>92</ele>
        <time>2022-02-27T12:04:25.000Z</time>
      </trkpt>
      <trkpt lat="49.37373" lon="1.13303">
        <ele>92</ele>
        <time>2022-02-27T12:04:21.000Z</time>
      </trkpt>
      <trkpt lat="49.37377" lon="1.1332">
        <ele>91.6</ele>
        <time>2022-02-27T12:04:17.000Z</time>
      </trkpt>
      <trkpt lat="49.3738" lon="1.13337">
        <ele>90.7</ele>
        <time>2022-02-27T12:04:13.000Z</time>
      </trkpt>
      <trkpt lat="49.37383" lon="1.13353">
        <ele>89.2</ele>
        <time>2022-02-27T12:04:09.000Z</time>
      </trkpt>
      <trkpt lat="49.37385" lon="1.13369">
        <ele>88.6</ele>
        <time>2022-02-27T12:04:05.000Z</time>
      </trkpt>
      <trkpt lat="49.37389" lon="1.13384">
        <ele>87.9</ele>
        <time>2022-02-27T12:04:01.000Z</time>
      </trkpt>
      <trkpt lat="49.37395" lon="1.13398">
        <ele>88.4</ele>
        <time>2022-02-27T12:03:57.000Z</time>
      </trkpt>
      <trkpt lat="49.37402" lon="1.13413">
        <ele>87.5</ele>
        <time>2022-02-27T12:03:53.000Z</time>
      </trkpt>
      <trkpt lat="49.37409" lon="1.13425">
        <ele>87.4</ele>
        <time>2022-02-27T12:03:48.000Z</time>
      </trkpt>
      <trkpt lat="49.37416" lon="1.13436">
        <ele>87.6</ele>
        <time>2022-02-27T12:03:42.000Z</time>
      </trkpt>
      <trkpt lat="49.37417" lon="1.13437">
        <ele>87.6</ele>
        <time>2022-02-27T12:02:45.000Z</time>
      </trkpt>
      <trkpt lat="49.37417" lon="1.13436">
        <ele>86.6</ele>
        <time>2022-02-27T11:59:30.000Z</time>
      </trkpt>
      <trkpt lat="49.37418" lon="1.13436">
        <ele>86.4</ele>
        <time>2022-02-27T11:57:31.000Z</time>
      </trkpt>
      <trkpt lat="49.3742" lon="1.13441">
        <ele>86.5</ele>
        <time>2022-02-27T11:57:26.000Z</time>
      </trkpt>
      <trkpt lat="49.37422" lon="1.13455">
        <ele>84.9</ele>
        <time>2022-02-27T11:57:21.000Z</time>
      </trkpt>
      <trkpt lat="49.3742" lon="1.13471">
        <ele>83.2</ele>
        <time>2022-02-27T11:57:16.000Z</time>
      </trkpt>
      <trkpt lat="49.37418" lon="1.13484">
        <ele>81.1</ele>
        <time>2022-02-27T11:57:12.000Z</time>
      </trkpt>
      <trkpt lat="49.37416" lon="1.13498">
        <ele>80.1</ele>
        <time>2022-02-27T11:57:08.000Z</time>
      </trkpt>
      <trkpt lat="49.37418" lon="1.13512">
        <ele>77</ele>
        <time>2022-02-27T11:57:04.000Z</time>
      </trkpt>
      <trkpt lat="49.37422" lon="1.13528">
        <ele>74.2</ele>
        <time>2022-02-27T11:56:59.000Z</time>
      </trkpt>
      <trkpt lat="49.37425" lon="1.13542">
        <ele>71.6</ele>
        <time>2022-02-27T11:56:55.000Z</time>
      </trkpt>
      <trkpt lat="49.37428" lon="1.13556">
        <ele>69.3</ele>
        <time>2022-02-27T11:56:51.000Z</time>
      </trkpt>
      <trkpt lat="49.37431" lon="1.1357">
        <ele>67.9</ele>
        <time>2022-02-27T11:56:47.000Z</time>
      </trkpt>
      <trkpt lat="49.37434" lon="1.13585">
        <ele>65.5</ele>
        <time>2022-02-27T11:56:42.000Z</time>
      </trkpt>
      <trkpt lat="49.37437" lon="1.136">
        <ele>63.8</ele>
        <time>2022-02-27T11:56:37.000Z</time>
      </trkpt>
      <trkpt lat="49.3744" lon="1.13615">
        <ele>61</ele>
        <time>2022-02-27T11:56:32.000Z</time>
      </trkpt>
      <trkpt lat="49.37444" lon="1.1363">
        <ele>58.3</ele>
        <time>2022-02-27T11:56:27.000Z</time>
      </trkpt>
      <trkpt lat="49.37448" lon="1.13645">
        <ele>55.8</ele>
        <time>2022-02-27T11:56:22.000Z</time>
      </trkpt>
      <trkpt lat="49.37454" lon="1.13658">
        <ele>53.1</ele>
        <time>2022-02-27T11:56:17.000Z</time>
      </trkpt>
      <trkpt lat="49.37461" lon="1.1367">
        <ele>50.7</ele>
        <time>2022-02-27T11:56:12.000Z</time>
      </trkpt>
      <trkpt lat="49.37468" lon="1.13683">
        <ele>47.5</ele>
        <time>2022-02-27T11:56:07.000Z</time>
      </trkpt>
      <trkpt lat="49.37473" lon="1.13695">
        <ele>46.5</ele>
        <time>2022-02-27T11:56:01.000Z</time>
      </trkpt>
      <trkpt lat="49.3748" lon="1.13707">
        <ele>46.6</ele>
        <time>2022-02-27T11:55:51.000Z</time>
      </trkpt>
      <trkpt lat="49.37479" lon="1.13708">
        <ele>45.9</ele>
        <time>2022-02-27T11:55:35.000Z</time>
      </trkpt>
      <trkpt lat="49.37479" lon="1.13709">
        <ele>44</ele>
        <time>2022-02-27T11:52:41.000Z</time>
      </trkpt>
      <trkpt lat="49.37477" lon="1.1372">
        <ele>42.6</ele>
        <time>2022-02-27T11:52:33.000Z</time>
      </trkpt>
      <trkpt lat="49.37468" lon="1.13729">
        <ele>39.7</ele>
        <time>2022-02-27T11:52:28.000Z</time>
      </trkpt>
      <trkpt lat="49.37459" lon="1.13727">
        <ele>36.7</ele>
        <time>2022-02-27T11:52:22.000Z</time>
      </trkpt>
      <trkpt lat="49.37455" lon="1.1374">
        <ele>33.9</ele>
        <time>2022-02-27T11:52:16.000Z</time>
      </trkpt>
      <trkpt lat="49.37455" lon="1.13741">
        <ele>33.5</ele>
        <time>2022-02-27T11:52:08.000Z</time>
      </trkpt>
      <trkpt lat="49.37452" lon="1.13748">
        <ele>31.7</ele>
        <time>2022-02-27T11:51:58.000Z</time>
      </trkpt>
      <trkpt lat="49.37451" lon="1.1375">
        <ele>30.7</ele>
        <time>2022-02-27T11:51:47.000Z</time>
      </trkpt>
      <trkpt lat="49.37447" lon="1.13763">
        <ele>28</ele>
        <time>2022-02-27T11:51:38.000Z</time>
      </trkpt>
      <trkpt lat="49.37439" lon="1.13753">
        <ele>26.4</ele>
        <time>2022-02-27T11:51:31.000Z</time>
      </trkpt>
      <trkpt lat="49.37433" lon="1.13742">
        <ele>25</ele>
        <time>2022-02-27T11:51:25.000Z</time>
      </trkpt>
      <trkpt lat="49.37426" lon="1.13733">
        <ele>23.7</ele>
        <time>2022-02-27T11:51:18.000Z</time>
      </trkpt>
      <trkpt lat="49.37418" lon="1.13723">
        <ele>23.5</ele>
        <time>2022-02-27T11:51:10.000Z</time>
      </trkpt>
      <trkpt lat="49.37413" lon="1.13711">
        <ele>22.5</ele>
        <time>2022-02-27T11:51:04.000Z</time>
      </trkpt>
      <trkpt lat="49.37408" lon="1.13699">
        <ele>22.6</ele>
        <time>2022-02-27T11:51:00.000Z</time>
      </trkpt>
      <trkpt lat="49.37402" lon="1.13685">
        <ele>22.1</ele>
        <time>2022-02-27T11:50:56.000Z</time>
      </trkpt>
      <trkpt lat="49.37397" lon="1.13673">
        <ele>22.5</ele>
        <time>2022-02-27T11:50:52.000Z</time>
      </trkpt>
      <trkpt lat="49.3739" lon="1.13661">
        <ele>23.2</ele>
        <time>2022-02-27T11:50:48.000Z</time>
      </trkpt>
      <trkpt lat="49.37383" lon="1.13649">
        <ele>22.6</ele>
        <time>2022-02-27T11:50:45.000Z</time>
      </trkpt>
      <trkpt lat="49.37377" lon="1.13638">
        <ele>21.5</ele>
        <time>2022-02-27T11:50:42.000Z</time>
      </trkpt>
      <trkpt lat="49.3737" lon="1.13627">
        <ele>21</ele>
        <time>2022-02-27T11:50:39.000Z</time>
      </trkpt>
      <trkpt lat="49.37364" lon="1.13617">
        <ele>20.9</ele>
        <time>2022-02-27T11:50:36.000Z</time>
      </trkpt>
      <trkpt lat="49.37358" lon="1.13607">
        <ele>20.6</ele>
        <time>2022-02-27T11:50:33.000Z</time>
      </trkpt>
      <trkpt lat="49.37351" lon="1.13597">
        <ele>20.4</ele>
        <time>2022-02-27T11:50:30.000Z</time>
      </trkpt>
      <trkpt lat="49.37345" lon="1.13586">
        <ele>20.3</ele>
        <time>2022-02-27T11:50:27.000Z</time>
      </trkpt>
      <trkpt lat="49.37339" lon="1.13575">
        <ele>20.2</ele>
        <time>2022-02-27T11:50:24.000Z</time>
      </trkpt>
      <trkpt lat="49.37332" lon="1.13566">
        <ele>20.1</ele>
        <time>2022-02-27T11:50:21.000Z</time>
      </trkpt>
      <trkpt lat="49.37326" lon="1.13555">
        <ele>19.6</ele>
        <time>2022-02-27T11:50:18.000Z</time>
      </trkpt>
      <trkpt lat="49.37319" lon="1.13542">
        <ele>19.1</ele>
        <time>2022-02-27T11:50:14.000Z</time>
      </trkpt>
      <trkpt lat="49.37311" lon="1.1353">
        <ele>18.5</ele>
        <time>2022-02-27T11:50:10.000Z</time>
      </trkpt>
      <trkpt lat="49.37305" lon="1.13519">
        <ele>18</ele>
        <time>2022-02-27T11:50:07.000Z</time>
      </trkpt>
      <trkpt lat="49.37296" lon="1.13506">
        <ele>18.2</ele>
        <time>2022-02-27T11:50:03.000Z</time>
      </trkpt>
      <trkpt lat="49.37289" lon="1.13493">
        <ele>18</ele>
        <time>2022-02-27T11:49:59.000Z</time>
      </trkpt>
      <trkpt lat="49.37282" lon="1.13481">
        <ele>17.5</ele>
        <time>2022-02-27T11:49:55.000Z</time>
      </trkpt>
      <trkpt lat="49.37277" lon="1.1347">
        <ele>17.1</ele>
        <time>2022-02-27T11:49:52.000Z</time>
      </trkpt>
      <trkpt lat="49.3727" lon="1.13457">
        <ele>17.2</ele>
        <time>2022-02-27T11:49:49.000Z</time>
      </trkpt>
      <trkpt lat="49.37264" lon="1.13441">
        <ele>17.2</ele>
        <time>2022-02-27T11:49:46.000Z</time>
      </trkpt>
      <trkpt lat="49.37258" lon="1.13425">
        <ele>16.8</ele>
        <time>2022-02-27T11:49:43.000Z</time>
      </trkpt>
      <trkpt lat="49.37251" lon="1.13409">
        <ele>16.4</ele>
        <time>2022-02-27T11:49:40.000Z</time>
      </trkpt>
      <trkpt lat="49.37245" lon="1.13393">
        <ele>16.5</ele>
        <time>2022-02-27T11:49:37.000Z</time>
      </trkpt>
      <trkpt lat="49.37239" lon="1.13377">
        <ele>16.3</ele>
        <time>2022-02-27T11:49:34.000Z</time>
      </trkpt>
      <trkpt lat="49.37234" lon="1.1336">
        <ele>16.5</ele>
        <time>2022-02-27T11:49:31.000Z</time>
      </trkpt>
      <trkpt lat="49.37228" lon="1.13344">
        <ele>16.4</ele>
        <time>2022-02-27T11:49:28.000Z</time>
      </trkpt>
      <trkpt lat="49.37223" lon="1.13328">
        <ele>16.2</ele>
        <time>2022-02-27T11:49:25.000Z</time>
      </trkpt>
      <trkpt lat="49.37218" lon="1.13311">
        <ele>15.8</ele>
        <time>2022-02-27T11:49:22.000Z</time>
      </trkpt>
      <trkpt lat="49.37213" lon="1.13296">
        <ele>15.2</ele>
        <time>2022-02-27T11:49:19.000Z</time>
      </trkpt>
      <trkpt lat="49.37208" lon="1.1328">
        <ele>15.1</ele>
        <time>2022-02-27T11:49:16.000Z</time>
      </trkpt>
      <trkpt lat="49.37203" lon="1.13264">
        <ele>14.7</ele>
        <time>2022-02-27T11:49:13.000Z</time>
      </trkpt>
      <trkpt lat="49.37198" lon="1.13248">
        <ele>13.9</ele>
        <time>2022-02-27T11:49:10.000Z</time>
      </trkpt>
      <trkpt lat="49.37193" lon="1.13233">
        <ele>13.6</ele>
        <time>2022-02-27T11:49:07.000Z</time>
      </trkpt>
      <trkpt lat="49.37187" lon="1.13218">
        <ele>12.6</ele>
        <time>2022-02-27T11:49:04.000Z</time>
      </trkpt>
      <trkpt lat="49.37181" lon="1.13204">
        <ele>12.5</ele>
        <time>2022-02-27T11:49:01.000Z</time>
      </trkpt>
      <trkpt lat="49.37174" lon="1.13192">
        <ele>12.2</ele>
        <time>2022-02-27T11:48:58.000Z</time>
      </trkpt>
      <trkpt lat="49.37165" lon="1.13181">
        <ele>11.5</ele>
        <time>2022-02-27T11:48:55.000Z</time>
      </trkpt>
      <trkpt lat="49.37157" lon="1.1317">
        <ele>10.7</ele>
        <time>2022-02-27T11:48:52.000Z</time>
      </trkpt>
      <trkpt lat="49.37149" lon="1.1316">
        <ele>10.5</ele>
        <time>2022-02-27T11:48:49.000Z</time>
      </trkpt>
      <trkpt lat="49.37141" lon="1.13149">
        <ele>9.9</ele>
        <time>2022-02-27T11:48:46.000Z</time>
      </trkpt>
      <trkpt lat="49.37132" lon="1.13139">
        <ele>9.4</ele>
        <time>2022-02-27T11:48:43.000Z</time>
      </trkpt>
      <trkpt lat="49.37124" lon="1.13129">
        <ele>8.9</ele>
        <time>2022-02-27T11:48:40.000Z</time>
      </trkpt>
      <trkpt lat="49.37115" lon="1.13119">
        <ele>8.3</ele>
        <time>2022-02-27T11:48:37.000Z</time>
      </trkpt>
      <trkpt lat="49.37105" lon="1.13111">
        <ele>8.3</ele>
        <time>2022-02-27T11:48:34.000Z</time>
      </trkpt>
      <trkpt lat="49.37094" lon="1.13106">
        <ele>7</ele>
        <time>2022-02-27T11:48:31.000Z</time>
      </trkpt>
      <trkpt lat="49.37082" lon="1.13103">
        <ele>6.9</ele>
        <time>2022-02-27T11:48:28.000Z</time>
      </trkpt>
      <trkpt lat="49.37071" lon="1.13101">
        <ele>6.5</ele>
        <time>2022-02-27T11:48:25.000Z</time>
      </trkpt>
      <trkpt lat="49.3706" lon="1.13097">
        <ele>6.3</ele>
        <time>2022-02-27T11:48:22.000Z</time>
      </trkpt>
      <trkpt lat="49.37049" lon="1.1309">
        <ele>7</ele>
        <time>2022-02-27T11:48:19.000Z</time>
      </trkpt>
      <trkpt lat="49.37039" lon="1.13083">
        <ele>6.3</ele>
        <time>2022-02-27T11:48:16.000Z</time>
      </trkpt>
      <trkpt lat="49.37028" lon="1.13077">
        <ele>6.4</ele>
        <time>2022-02-27T11:48:13.000Z</time>
      </trkpt>
      <trkpt lat="49.37018" lon="1.1307">
        <ele>6</ele>
        <time>2022-02-27T11:48:10.000Z</time>
      </trkpt>
      <trkpt lat="49.37008" lon="1.13063">
        <ele>5.7</ele>
        <time>2022-02-27T11:48:07.000Z</time>
      </trkpt>
      <trkpt lat="49.36999" lon="1.13055">
        <ele>5</ele>
        <time>2022-02-27T11:48:04.000Z</time>
      </trkpt>
      <trkpt lat="49.36991" lon="1.13049">
        <ele>5.2</ele>
        <time>2022-02-27T11:48:00.000Z</time>
      </trkpt>
      <trkpt lat="49.36981" lon="1.1304">
        <ele>4.7</ele>
        <time>2022-02-27T11:47:56.000Z</time>
      </trkpt>
      <trkpt lat="49.36973" lon="1.13031">
        <ele>4.9</ele>
        <time>2022-02-27T11:47:52.000Z</time>
      </trkpt>
      <trkpt lat="49.36965" lon="1.13022">
        <ele>4.7</ele>
        <time>2022-02-27T11:47:49.000Z</time>
      </trkpt>
      <trkpt lat="49.36956" lon="1.13012">
        <ele>4.3</ele>
        <time>2022-02-27T11:47:46.000Z</time>
      </trkpt>
      <trkpt lat="49.36946" lon="1.13002">
        <ele>4.5</ele>
        <time>2022-02-27T11:47:43.000Z</time>
      </trkpt>
      <trkpt lat="49.36938" lon="1.12992">
        <ele>4.4</ele>
        <time>2022-02-27T11:47:40.000Z</time>
      </trkpt>
      <trkpt lat="49.3693" lon="1.12981">
        <ele>3.9</ele>
        <time>2022-02-27T11:47:37.000Z</time>
      </trkpt>
      <trkpt lat="49.36923" lon="1.1297">
        <ele>3.9</ele>
        <time>2022-02-27T11:47:34.000Z</time>
      </trkpt>
      <trkpt lat="49.36916" lon="1.12959">
        <ele>4.3</ele>
        <time>2022-02-27T11:47:31.000Z</time>
      </trkpt>
      <trkpt lat="49.3691" lon="1.12947">
        <ele>4.2</ele>
        <time>2022-02-27T11:47:27.000Z</time>
      </trkpt>
      <trkpt lat="49.36903" lon="1.12935">
        <ele>3.7</ele>
        <time>2022-02-27T11:47:22.000Z</time>
      </trkpt>
      <trkpt lat="49.36898" lon="1.12923">
        <ele>4.1</ele>
        <time>2022-02-27T11:47:18.000Z</time>
      </trkpt>
      <trkpt lat="49.36892" lon="1.12911">
        <ele>4.4</ele>
        <time>2022-02-27T11:47:14.000Z</time>
      </trkpt>
      <trkpt lat="49.36886" lon="1.129">
        <ele>4.8</ele>
        <time>2022-02-27T11:47:07.000Z</time>
      </trkpt>
      <trkpt lat="49.36886" lon="1.12899">
        <ele>5.9</ele>
        <time>2022-02-27T11:45:58.000Z</time>
      </trkpt>
      <trkpt lat="49.36881" lon="1.12899">
        <ele>5.2</ele>
        <time>2022-02-27T11:45:52.000Z</time>
      </trkpt>
      <trkpt lat="49.36872" lon="1.12907">
        <ele>5</ele>
        <time>2022-02-27T11:45:48.000Z</time>
      </trkpt>
      <trkpt lat="49.36876" lon="1.12919">
        <ele>5.2</ele>
        <time>2022-02-27T11:45:44.000Z</time>
      </trkpt>
      <trkpt lat="49.36879" lon="1.12934">
        <ele>5.7</ele>
        <time>2022-02-27T11:45:42.000Z</time>
      </trkpt>
      <trkpt lat="49.36879" lon="1.1295">
        <ele>6.8</ele>
        <time>2022-02-27T11:45:40.000Z</time>
      </trkpt>
      <trkpt lat="49.36877" lon="1.12964">
        <ele>7.5</ele>
        <time>2022-02-27T11:45:38.000Z</time>
      </trkpt>
      <trkpt lat="49.36866" lon="1.12967">
        <ele>9.5</ele>
        <time>2022-02-27T11:45:35.000Z</time>
      </trkpt>
      <trkpt lat="49.36856" lon="1.12959">
        <ele>10.7</ele>
        <time>2022-02-27T11:45:33.000Z</time>
      </trkpt>
      <trkpt lat="49.36843" lon="1.12948">
        <ele>13.1</ele>
        <time>2022-02-27T11:45:31.000Z</time>
      </trkpt>
      <trkpt lat="49.36835" lon="1.1294">
        <ele>14.2</ele>
        <time>2022-02-27T11:45:30.000Z</time>
      </trkpt>
      <trkpt lat="49.36821" lon="1.12933">
        <ele>15.5</ele>
        <time>2022-02-27T11:45:28.000Z</time>
      </trkpt>
      <trkpt lat="49.36809" lon="1.12934">
        <ele>17</ele>
        <time>2022-02-27T11:45:26.000Z</time>
      </trkpt>
      <trkpt lat="49.36798" lon="1.12939">
        <ele>19</ele>
        <time>2022-02-27T11:45:24.000Z</time>
      </trkpt>
      <trkpt lat="49.36789" lon="1.12945">
        <ele>21.8</ele>
        <time>2022-02-27T11:45:22.000Z</time>
      </trkpt>
      <trkpt lat="49.36778" lon="1.12955">
        <ele>22.9</ele>
        <time>2022-02-27T11:45:18.000Z</time>
      </trkpt>
      <trkpt lat="49.3677" lon="1.12963">
        <ele>24.8</ele>
        <time>2022-02-27T11:45:10.000Z</time>
      </trkpt>
      <trkpt lat="49.3677" lon="1.12962">
        <ele>24.5</ele>
        <time>2022-02-27T11:44:37.000Z</time>
      </trkpt>
      <trkpt lat="49.3677" lon="1.12961">
        <ele>24.3</ele>
        <time>2022-02-27T11:43:35.000Z</time>
      </trkpt>
      <trkpt lat="49.36771" lon="1.12961">
        <ele>24.1</ele>
        <time>2022-02-27T11:42:06.000Z</time>
      </trkpt>
      <trkpt lat="49.36762" lon="1.1297">
        <ele>25.2</ele>
        <time>2022-02-27T11:41:34.000Z</time>
      </trkpt>
      <trkpt lat="49.36756" lon="1.1298">
        <ele>26.7</ele>
        <time>2022-02-27T11:41:32.000Z</time>
      </trkpt>
      <trkpt lat="49.36749" lon="1.12995">
        <ele>28.6</ele>
        <time>2022-02-27T11:41:30.000Z</time>
      </trkpt>
      <trkpt lat="49.3674" lon="1.13015">
        <ele>30.4</ele>
        <time>2022-02-27T11:41:28.000Z</time>
      </trkpt>
      <trkpt lat="49.36733" lon="1.13034">
        <ele>31.3</ele>
        <time>2022-02-27T11:41:26.000Z</time>
      </trkpt>
      <trkpt lat="49.36728" lon="1.13049">
        <ele>32.9</ele>
        <time>2022-02-27T11:41:24.000Z</time>
      </trkpt>
      <trkpt lat="49.36721" lon="1.13062">
        <ele>35.7</ele>
        <time>2022-02-27T11:41:22.000Z</time>
      </trkpt>
      <trkpt lat="49.36713" lon="1.13081">
        <ele>37.2</ele>
        <time>2022-02-27T11:41:20.000Z</time>
      </trkpt>
      <trkpt lat="49.36703" lon="1.131">
        <ele>38.5</ele>
        <time>2022-02-27T11:41:18.000Z</time>
      </trkpt>
      <trkpt lat="49.36694" lon="1.13118">
        <ele>40.4</ele>
        <time>2022-02-27T11:41:16.000Z</time>
      </trkpt>
      <trkpt lat="49.36687" lon="1.13135">
        <ele>42.1</ele>
        <time>2022-02-27T11:41:14.000Z</time>
      </trkpt>
      <trkpt lat="49.36683" lon="1.13152">
        <ele>43</ele>
        <time>2022-02-27T11:41:12.000Z</time>
      </trkpt>
      <trkpt lat="49.36679" lon="1.13166">
        <ele>44.4</ele>
        <time>2022-02-27T11:41:10.000Z</time>
      </trkpt>
      <trkpt lat="49.36677" lon="1.1318">
        <ele>45.5</ele>
        <time>2022-02-27T11:41:08.000Z</time>
      </trkpt>
      <trkpt lat="49.36675" lon="1.13198">
        <ele>47.1</ele>
        <time>2022-02-27T11:41:06.000Z</time>
      </trkpt>
      <trkpt lat="49.36676" lon="1.13217">
        <ele>47.5</ele>
        <time>2022-02-27T11:41:04.000Z</time>
      </trkpt>
      <trkpt lat="49.36678" lon="1.13233">
        <ele>49.1</ele>
        <time>2022-02-27T11:41:02.000Z</time>
      </trkpt>
      <trkpt lat="49.3668" lon="1.13248">
        <ele>51.9</ele>
        <time>2022-02-27T11:41:00.000Z</time>
      </trkpt>
      <trkpt lat="49.36681" lon="1.13263">
        <ele>53.3</ele>
        <time>2022-02-27T11:40:58.000Z</time>
      </trkpt>
      <trkpt lat="49.36684" lon="1.13278">
        <ele>54.9</ele>
        <time>2022-02-27T11:40:56.000Z</time>
      </trkpt>
      <trkpt lat="49.36688" lon="1.13295">
        <ele>55.1</ele>
        <time>2022-02-27T11:40:54.000Z</time>
      </trkpt>
      <trkpt lat="49.36693" lon="1.13309">
        <ele>56.6</ele>
        <time>2022-02-27T11:40:52.000Z</time>
      </trkpt>
      <trkpt lat="49.36698" lon="1.13323">
        <ele>58.9</ele>
        <time>2022-02-27T11:40:50.000Z</time>
      </trkpt>
      <trkpt lat="49.36703" lon="1.1334">
        <ele>59.6</ele>
        <time>2022-02-27T11:40:48.000Z</time>
      </trkpt>
      <trkpt lat="49.36709" lon="1.13356">
        <ele>61.4</ele>
        <time>2022-02-27T11:40:46.000Z</time>
      </trkpt>
      <trkpt lat="49.36715" lon="1.1337">
        <ele>63.3</ele>
        <time>2022-02-27T11:40:44.000Z</time>
      </trkpt>
      <trkpt lat="49.36721" lon="1.13384">
        <ele>65.6</ele>
        <time>2022-02-27T11:40:42.000Z</time>
      </trkpt>
      <trkpt lat="49.36727" lon="1.134">
        <ele>67.6</ele>
        <time>2022-02-27T11:40:40.000Z</time>
      </trkpt>
      <trkpt lat="49.36736" lon="1.13417">
        <ele>69.2</ele>
        <time>2022-02-27T11:40:38.000Z</time>
      </trkpt>
      <trkpt lat="49.36743" lon="1.13437">
        <ele>71.8</ele>
        <time>2022-02-27T11:40:36.000Z</time>
      </trkpt>
      <trkpt lat="49.36749" lon="1.13456">
        <ele>74.7</ele>
        <time>2022-02-27T11:40:34.000Z</time>
      </trkpt>
      <trkpt lat="49.36754" lon="1.13471">
        <ele>77.5</ele>
        <time>2022-02-27T11:40:32.000Z</time>
      </trkpt>
      <trkpt lat="49.36758" lon="1.13489">
        <ele>78.9</ele>
        <time>2022-02-27T11:40:30.000Z</time>
      </trkpt>
      <trkpt lat="49.36763" lon="1.13508">
        <ele>80.8</ele>
        <time>2022-02-27T11:40:28.000Z</time>
      </trkpt>
      <trkpt lat="49.36767" lon="1.13526">
        <ele>83.1</ele>
        <time>2022-02-27T11:40:26.000Z</time>
      </trkpt>
      <trkpt lat="49.36772" lon="1.13541">
        <ele>85.1</ele>
        <time>2022-02-27T11:40:24.000Z</time>
      </trkpt>
      <trkpt lat="49.36775" lon="1.13554">
        <ele>86.4</ele>
        <time>2022-02-27T11:40:22.000Z</time>
      </trkpt>
      <trkpt lat="49.36779" lon="1.13569">
        <ele>87.9</ele>
        <time>2022-02-27T11:40:20.000Z</time>
      </trkpt>
      <trkpt lat="49.36785" lon="1.13588">
        <ele>89.2</ele>
        <time>2022-02-27T11:40:18.000Z</time>
      </trkpt>
      <trkpt lat="49.36791" lon="1.13606">
        <ele>90.9</ele>
        <time>2022-02-27T11:40:16.000Z</time>
      </trkpt>
      <trkpt lat="49.36795" lon="1.13623">
        <ele>92.2</ele>
        <time>2022-02-27T11:40:14.000Z</time>
      </trkpt>
      <trkpt lat="49.368" lon="1.13638">
        <ele>95.1</ele>
        <time>2022-02-27T11:40:12.000Z</time>
      </trkpt>
      <trkpt lat="49.36807" lon="1.13654">
        <ele>98.8</ele>
        <time>2022-02-27T11:40:10.000Z</time>
      </trkpt>
      <trkpt lat="49.36813" lon="1.13671">
        <ele>99.6</ele>
        <time>2022-02-27T11:40:08.000Z</time>
      </trkpt>
      <trkpt lat="49.36819" lon="1.13688">
        <ele>101.7</ele>
        <time>2022-02-27T11:40:06.000Z</time>
      </trkpt>
      <trkpt lat="49.36827" lon="1.13703">
        <ele>103.7</ele>
        <time>2022-02-27T11:40:04.000Z</time>
      </trkpt>
      <trkpt lat="49.36833" lon="1.13718">
        <ele>105.7</ele>
        <time>2022-02-27T11:40:02.000Z</time>
      </trkpt>
      <trkpt lat="49.36839" lon="1.13735">
        <ele>107.6</ele>
        <time>2022-02-27T11:40:00.000Z</time>
      </trkpt>
      <trkpt lat="49.36843" lon="1.13751">
        <ele>108.1</ele>
        <time>2022-02-27T11:39:58.000Z</time>
      </trkpt>
      <trkpt lat="49.36843" lon="1.13769">
        <ele>111.2</ele>
        <time>2022-02-27T11:39:56.000Z</time>
      </trkpt>
      <trkpt lat="49.36841" lon="1.13788">
        <ele>112.3</ele>
        <time>2022-02-27T11:39:54.000Z</time>
      </trkpt>
      <trkpt lat="49.36839" lon="1.13809">
        <ele>113.5</ele>
        <time>2022-02-27T11:39:52.000Z</time>
      </trkpt>
      <trkpt lat="49.36836" lon="1.13831">
        <ele>115.6</ele>
        <time>2022-02-27T11:39:50.000Z</time>
      </trkpt>
      <trkpt lat="49.36832" lon="1.13851">
        <ele>118.1</ele>
        <time>2022-02-27T11:39:48.000Z</time>
      </trkpt>
      <trkpt lat="49.36832" lon="1.13867">
        <ele>119.2</ele>
        <time>2022-02-27T11:39:46.000Z</time>
      </trkpt>
      <trkpt lat="49.36836" lon="1.13883">
        <ele>119.5</ele>
        <time>2022-02-27T11:39:44.000Z</time>
      </trkpt>
      <trkpt lat="49.36842" lon="1.13902">
        <ele>120.6</ele>
        <time>2022-02-27T11:39:42.000Z</time>
      </trkpt>
      <trkpt lat="49.3685" lon="1.13923">
        <ele>121.8</ele>
        <time>2022-02-27T11:39:40.000Z</time>
      </trkpt>
      <trkpt lat="49.36856" lon="1.13944">
        <ele>121.8</ele>
        <time>2022-02-27T11:39:38.000Z</time>
      </trkpt>
      <trkpt lat="49.36863" lon="1.13964">
        <ele>121.9</ele>
        <time>2022-02-27T11:39:36.000Z</time>
      </trkpt>
      <trkpt lat="49.36868" lon="1.13983">
        <ele>123.6</ele>
        <time>2022-02-27T11:39:34.000Z</time>
      </trkpt>
      <trkpt lat="49.36874" lon="1.14003">
        <ele>125</ele>
        <time>2022-02-27T11:39:32.000Z</time>
      </trkpt>
      <trkpt lat="49.3688" lon="1.14022">
        <ele>124.2</ele>
        <time>2022-02-27T11:39:30.000Z</time>
      </trkpt>
      <trkpt lat="49.36885" lon="1.14042">
        <ele>124.1</ele>
        <time>2022-02-27T11:39:28.000Z</time>
      </trkpt>
      <trkpt lat="49.36891" lon="1.14061">
        <ele>124.4</ele>
        <time>2022-02-27T11:39:26.000Z</time>
      </trkpt>
      <trkpt lat="49.36896" lon="1.1408">
        <ele>125.4</ele>
        <time>2022-02-27T11:39:24.000Z</time>
      </trkpt>
      <trkpt lat="49.36902" lon="1.14097">
        <ele>126.5</ele>
        <time>2022-02-27T11:39:22.000Z</time>
      </trkpt>
      <trkpt lat="49.36907" lon="1.14115">
        <ele>128.1</ele>
        <time>2022-02-27T11:39:20.000Z</time>
      </trkpt>
      <trkpt lat="49.36912" lon="1.14133">
        <ele>128.1</ele>
        <time>2022-02-27T11:39:18.000Z</time>
      </trkpt>
      <trkpt lat="49.36916" lon="1.14151">
        <ele>126.9</ele>
        <time>2022-02-27T11:39:16.000Z</time>
      </trkpt>
      <trkpt lat="49.36921" lon="1.14168">
        <ele>127.6</ele>
        <time>2022-02-27T11:39:14.000Z</time>
      </trkpt>
      <trkpt lat="49.36926" lon="1.14184">
        <ele>128.3</ele>
        <time>2022-02-27T11:39:12.000Z</time>
      </trkpt>
      <trkpt lat="49.3693" lon="1.14202">
        <ele>128.4</ele>
        <time>2022-02-27T11:39:10.000Z</time>
      </trkpt>
      <trkpt lat="49.36935" lon="1.14218">
        <ele>128.4</ele>
        <time>2022-02-27T11:39:08.000Z</time>
      </trkpt>
      <trkpt lat="49.36939" lon="1.14233">
        <ele>127.9</ele>
        <time>2022-02-27T11:39:06.000Z</time>
      </trkpt>
      <trkpt lat="49.36943" lon="1.14248">
        <ele>128</ele>
        <time>2022-02-27T11:39:04.000Z</time>
      </trkpt>
      <trkpt lat="49.36946" lon="1.14263">
        <ele>128.4</ele>
        <time>2022-02-27T11:39:02.000Z</time>
      </trkpt>
      <trkpt lat="49.36951" lon="1.1428">
        <ele>128.4</ele>
        <time>2022-02-27T11:38:59.000Z</time>
      </trkpt>
      <trkpt lat="49.36955" lon="1.14296">
        <ele>128.4</ele>
        <time>2022-02-27T11:38:56.000Z</time>
      </trkpt>
      <trkpt lat="49.3696" lon="1.14308">
        <ele>128.5</ele>
        <time>2022-02-27T11:38:52.000Z</time>
      </trkpt>
      <trkpt lat="49.36961" lon="1.14309">
        <ele>129.3</ele>
        <time>2022-02-27T11:38:45.000Z</time>
      </trkpt>
      <trkpt lat="49.36961" lon="1.14308">
        <ele>129.4</ele>
        <time>2022-02-27T11:37:50.000Z</time>
      </trkpt>
      <trkpt lat="49.36963" lon="1.14311">
        <ele>129.2</ele>
        <time>2022-02-27T11:37:47.000Z</time>
      </trkpt>
      <trkpt lat="49.36968" lon="1.14325">
        <ele>128.9</ele>
        <time>2022-02-27T11:37:43.000Z</time>
      </trkpt>
      <trkpt lat="49.36974" lon="1.14337">
        <ele>129.4</ele>
        <time>2022-02-27T11:37:38.000Z</time>
      </trkpt>
      <trkpt lat="49.36979" lon="1.14352">
        <ele>129.3</ele>
        <time>2022-02-27T11:37:32.000Z</time>
      </trkpt>
      <trkpt lat="49.3697" lon="1.14355">
        <ele>129.3</ele>
        <time>2022-02-27T11:37:28.000Z</time>
      </trkpt>
      <trkpt lat="49.3696" lon="1.14355">
        <ele>129.1</ele>
        <time>2022-02-27T11:37:24.000Z</time>
      </trkpt>
      <trkpt lat="49.3695" lon="1.14355">
        <ele>129.3</ele>
        <time>2022-02-27T11:37:20.000Z</time>
      </trkpt>
      <trkpt lat="49.36938" lon="1.14356">
        <ele>129.6</ele>
        <time>2022-02-27T11:37:16.000Z</time>
      </trkpt>
      <trkpt lat="49.36927" lon="1.14358">
        <ele>129.7</ele>
        <time>2022-02-27T11:37:12.000Z</time>
      </trkpt>
      <trkpt lat="49.36917" lon="1.14359">
        <ele>129.5</ele>
        <time>2022-02-27T11:37:09.000Z</time>
      </trkpt>
      <trkpt lat="49.36908" lon="1.1436">
        <ele>129.5</ele>
        <time>2022-02-27T11:37:06.000Z</time>
      </trkpt>
      <trkpt lat="49.36898" lon="1.14359">
        <ele>129.6</ele>
        <time>2022-02-27T11:37:03.000Z</time>
      </trkpt>
      <trkpt lat="49.36888" lon="1.14358">
        <ele>130.1</ele>
        <time>2022-02-27T11:37:00.000Z</time>
      </trkpt>
      <trkpt lat="49.36878" lon="1.14355">
        <ele>129.9</ele>
        <time>2022-02-27T11:36:57.000Z</time>
      </trkpt>
      <trkpt lat="49.36868" lon="1.14354">
        <ele>129.7</ele>
        <time>2022-02-27T11:36:54.000Z</time>
      </trkpt>
      <trkpt lat="49.36857" lon="1.14354">
        <ele>129.4</ele>
        <time>2022-02-27T11:36:51.000Z</time>
      </trkpt>
      <trkpt lat="49.36847" lon="1.14353">
        <ele>129.5</ele>
        <time>2022-02-27T11:36:48.000Z</time>
      </trkpt>
      <trkpt lat="49.36836" lon="1.14354">
        <ele>129.4</ele>
        <time>2022-02-27T11:36:45.000Z</time>
      </trkpt>
      <trkpt lat="49.36826" lon="1.14354">
        <ele>129.1</ele>
        <time>2022-02-27T11:36:42.000Z</time>
      </trkpt>
      <trkpt lat="49.36816" lon="1.14354">
        <ele>128.3</ele>
        <time>2022-02-27T11:36:39.000Z</time>
      </trkpt>
      <trkpt lat="49.36806" lon="1.14353">
        <ele>128.5</ele>
        <time>2022-02-27T11:36:36.000Z</time>
      </trkpt>
      <trkpt lat="49.36797" lon="1.14352">
        <ele>128.7</ele>
        <time>2022-02-27T11:36:33.000Z</time>
      </trkpt>
      <trkpt lat="49.36787" lon="1.14352">
        <ele>128.5</ele>
        <time>2022-02-27T11:36:30.000Z</time>
      </trkpt>
      <trkpt lat="49.36777" lon="1.14351">
        <ele>128</ele>
        <time>2022-02-27T11:36:27.000Z</time>
      </trkpt>
      <trkpt lat="49.36767" lon="1.14352">
        <ele>128</ele>
        <time>2022-02-27T11:36:24.000Z</time>
      </trkpt>
      <trkpt lat="49.36758" lon="1.14354">
        <ele>128</ele>
        <time>2022-02-27T11:36:21.000Z</time>
      </trkpt>
      <trkpt lat="49.36748" lon="1.14355">
        <ele>127.6</ele>
        <time>2022-02-27T11:36:18.000Z</time>
      </trkpt>
      <trkpt lat="49.36738" lon="1.14357">
        <ele>127</ele>
        <time>2022-02-27T11:36:15.000Z</time>
      </trkpt>
      <trkpt lat="49.36729" lon="1.14359">
        <ele>126.3</ele>
        <time>2022-02-27T11:36:12.000Z</time>
      </trkpt>
      <trkpt lat="49.36717" lon="1.14362">
        <ele>126.1</ele>
        <time>2022-02-27T11:36:08.000Z</time>
      </trkpt>
      <trkpt lat="49.36708" lon="1.14366">
        <ele>125.7</ele>
        <time>2022-02-27T11:36:05.000Z</time>
      </trkpt>
      <trkpt lat="49.36699" lon="1.14369">
        <ele>125.1</ele>
        <time>2022-02-27T11:36:02.000Z</time>
      </trkpt>
      <trkpt lat="49.36688" lon="1.14372">
        <ele>125.5</ele>
        <time>2022-02-27T11:35:58.000Z</time>
      </trkpt>
      <trkpt lat="49.36676" lon="1.14376">
        <ele>125</ele>
        <time>2022-02-27T11:35:54.000Z</time>
      </trkpt>
      <trkpt lat="49.36665" lon="1.14381">
        <ele>124.5</ele>
        <time>2022-02-27T11:35:50.000Z</time>
      </trkpt>
      <trkpt lat="49.36654" lon="1.14384">
        <ele>123.8</ele>
        <time>2022-02-27T11:35:46.000Z</time>
      </trkpt>
      <trkpt lat="49.36643" lon="1.14388">
        <ele>123.4</ele>
        <time>2022-02-27T11:35:42.000Z</time>
      </trkpt>
      <trkpt lat="49.36631" lon="1.14392">
        <ele>122.4</ele>
        <time>2022-02-27T11:35:38.000Z</time>
      </trkpt>
      <trkpt lat="49.3662" lon="1.14397">
        <ele>121.7</ele>
        <time>2022-02-27T11:35:34.000Z</time>
      </trkpt>
      <trkpt lat="49.36611" lon="1.144">
        <ele>121.4</ele>
        <time>2022-02-27T11:35:31.000Z</time>
      </trkpt>
      <trkpt lat="49.36602" lon="1.14403">
        <ele>120.4</ele>
        <time>2022-02-27T11:35:28.000Z</time>
      </trkpt>
      <trkpt lat="49.36593" lon="1.14407">
        <ele>119.9</ele>
        <time>2022-02-27T11:35:25.000Z</time>
      </trkpt>
      <trkpt lat="49.36584" lon="1.1441">
        <ele>119.8</ele>
        <time>2022-02-27T11:35:22.000Z</time>
      </trkpt>
      <trkpt lat="49.36572" lon="1.14413">
        <ele>118.8</ele>
        <time>2022-02-27T11:35:18.000Z</time>
      </trkpt>
      <trkpt lat="49.36561" lon="1.14414">
        <ele>118.8</ele>
        <time>2022-02-27T11:35:14.000Z</time>
      </trkpt>
      <trkpt lat="49.36553" lon="1.14407">
        <ele>118.5</ele>
        <time>2022-02-27T11:35:11.000Z</time>
      </trkpt>
      <trkpt lat="49.36546" lon="1.14399">
        <ele>118.1</ele>
        <time>2022-02-27T11:35:08.000Z</time>
      </trkpt>
      <trkpt lat="49.36539" lon="1.14389">
        <ele>117.9</ele>
        <time>2022-02-27T11:35:05.000Z</time>
      </trkpt>
      <trkpt lat="49.36533" lon="1.14379">
        <ele>117.5</ele>
        <time>2022-02-27T11:35:02.000Z</time>
      </trkpt>
      <trkpt lat="49.36524" lon="1.14366">
        <ele>116.9</ele>
        <time>2022-02-27T11:34:58.000Z</time>
      </trkpt>
      <trkpt lat="49.36515" lon="1.14354">
        <ele>116.8</ele>
        <time>2022-02-27T11:34:54.000Z</time>
      </trkpt>
      <trkpt lat="49.36508" lon="1.14341">
        <ele>115.9</ele>
        <time>2022-02-27T11:34:50.000Z</time>
      </trkpt>
      <trkpt lat="49.36502" lon="1.14328">
        <ele>115.4</ele>
        <time>2022-02-27T11:34:46.000Z</time>
      </trkpt>
      <trkpt lat="49.36497" lon="1.14316">
        <ele>114.7</ele>
        <time>2022-02-27T11:34:42.000Z</time>
      </trkpt>
      <trkpt lat="49.3649" lon="1.14305">
        <ele>114.1</ele>
        <time>2022-02-27T11:34:38.000Z</time>
      </trkpt>
      <trkpt lat="49.36484" lon="1.14293">
        <ele>113.6</ele>
        <time>2022-02-27T11:34:34.000Z</time>
      </trkpt>
      <trkpt lat="49.36477" lon="1.1428">
        <ele>113.6</ele>
        <time>2022-02-27T11:34:30.000Z</time>
      </trkpt>
      <trkpt lat="49.3647" lon="1.14267">
        <ele>112.8</ele>
        <time>2022-02-27T11:34:26.000Z</time>
      </trkpt>
      <trkpt lat="49.36464" lon="1.14254">
        <ele>112.5</ele>
        <time>2022-02-27T11:34:22.000Z</time>
      </trkpt>
      <trkpt lat="49.36457" lon="1.14244">
        <ele>112.2</ele>
        <time>2022-02-27T11:34:18.000Z</time>
      </trkpt>
      <trkpt lat="49.36451" lon="1.14232">
        <ele>111.9</ele>
        <time>2022-02-27T11:34:14.000Z</time>
      </trkpt>
      <trkpt lat="49.36446" lon="1.14221">
        <ele>110.3</ele>
        <time>2022-02-27T11:34:10.000Z</time>
      </trkpt>
      <trkpt lat="49.36439" lon="1.1421">
        <ele>109.9</ele>
        <time>2022-02-27T11:34:06.000Z</time>
      </trkpt>
      <trkpt lat="49.36433" lon="1.142">
        <ele>109.7</ele>
        <time>2022-02-27T11:34:02.000Z</time>
      </trkpt>
      <trkpt lat="49.36426" lon="1.14188">
        <ele>109.1</ele>
        <time>2022-02-27T11:33:57.000Z</time>
      </trkpt>
      <trkpt lat="49.36418" lon="1.14178">
        <ele>108.8</ele>
        <time>2022-02-27T11:33:52.000Z</time>
      </trkpt>
      <trkpt lat="49.36409" lon="1.14175">
        <ele>107.9</ele>
        <time>2022-02-27T11:33:46.000Z</time>
      </trkpt>
      <trkpt lat="49.36399" lon="1.14181">
        <ele>106.8</ele>
        <time>2022-02-27T11:33:38.000Z</time>
      </trkpt>
      <trkpt lat="49.36391" lon="1.14187">
        <ele>105.7</ele>
        <time>2022-02-27T11:33:33.000Z</time>
      </trkpt>
      <trkpt lat="49.36382" lon="1.14193">
        <ele>104.8</ele>
        <time>2022-02-27T11:33:27.000Z</time>
      </trkpt>
      <trkpt lat="49.36371" lon="1.14194">
        <ele>103.9</ele>
        <time>2022-02-27T11:33:21.000Z</time>
      </trkpt>
      <trkpt lat="49.36361" lon="1.14194">
        <ele>102.9</ele>
        <time>2022-02-27T11:33:15.000Z</time>
      </trkpt>
      <trkpt lat="49.36351" lon="1.14193">
        <ele>102</ele>
        <time>2022-02-27T11:33:09.000Z</time>
      </trkpt>
      <trkpt lat="49.36342" lon="1.1419">
        <ele>100.8</ele>
        <time>2022-02-27T11:33:04.000Z</time>
      </trkpt>
      <trkpt lat="49.36332" lon="1.14188">
        <ele>99.3</ele>
        <time>2022-02-27T11:32:58.000Z</time>
      </trkpt>
      <trkpt lat="49.36323" lon="1.14184">
        <ele>98</ele>
        <time>2022-02-27T11:32:53.000Z</time>
      </trkpt>
      <trkpt lat="49.36312" lon="1.1418">
        <ele>96.4</ele>
        <time>2022-02-27T11:32:47.000Z</time>
      </trkpt>
      <trkpt lat="49.36303" lon="1.14174">
        <ele>95.1</ele>
        <time>2022-02-27T11:32:41.000Z</time>
      </trkpt>
      <trkpt lat="49.36293" lon="1.14169">
        <ele>94.1</ele>
        <time>2022-02-27T11:32:34.000Z</time>
      </trkpt>
      <trkpt lat="49.36285" lon="1.14163">
        <ele>92.6</ele>
        <time>2022-02-27T11:32:27.000Z</time>
      </trkpt>
      <trkpt lat="49.36276" lon="1.14159">
        <ele>91.6</ele>
        <time>2022-02-27T11:32:20.000Z</time>
      </trkpt>
      <trkpt lat="49.36267" lon="1.14155">
        <ele>90.6</ele>
        <time>2022-02-27T11:32:13.000Z</time>
      </trkpt>
      <trkpt lat="49.36258" lon="1.14152">
        <ele>89</ele>
        <time>2022-02-27T11:32:08.000Z</time>
      </trkpt>
      <trkpt lat="49.36248" lon="1.14149">
        <ele>87.7</ele>
        <time>2022-02-27T11:32:03.000Z</time>
      </trkpt>
      <trkpt lat="49.36237" lon="1.14146">
        <ele>85.5</ele>
        <time>2022-02-27T11:31:58.000Z</time>
      </trkpt>
      <trkpt lat="49.36227" lon="1.14143">
        <ele>83.9</ele>
        <time>2022-02-27T11:31:53.000Z</time>
      </trkpt>
      <trkpt lat="49.36217" lon="1.14138">
        <ele>83.2</ele>
        <time>2022-02-27T11:31:48.000Z</time>
      </trkpt>
      <trkpt lat="49.36207" lon="1.14136">
        <ele>81.7</ele>
        <time>2022-02-27T11:31:43.000Z</time>
      </trkpt>
      <trkpt lat="49.36198" lon="1.14132">
        <ele>80.8</ele>
        <time>2022-02-27T11:31:39.000Z</time>
      </trkpt>
      <trkpt lat="49.36187" lon="1.14129">
        <ele>79.8</ele>
        <time>2022-02-27T11:31:34.000Z</time>
      </trkpt>
      <trkpt lat="49.36178" lon="1.14125">
        <ele>78.9</ele>
        <time>2022-02-27T11:31:30.000Z</time>
      </trkpt>
      <trkpt lat="49.36168" lon="1.14122">
        <ele>78.2</ele>
        <time>2022-02-27T11:31:25.000Z</time>
      </trkpt>
      <trkpt lat="49.36158" lon="1.14118">
        <ele>77</ele>
        <time>2022-02-27T11:31:20.000Z</time>
      </trkpt>
      <trkpt lat="49.36147" lon="1.14111">
        <ele>76</ele>
        <time>2022-02-27T11:31:15.000Z</time>
      </trkpt>
      <trkpt lat="49.36138" lon="1.14105">
        <ele>75.3</ele>
        <time>2022-02-27T11:31:11.000Z</time>
      </trkpt>
      <trkpt lat="49.3613" lon="1.14101">
        <ele>74.7</ele>
        <time>2022-02-27T11:31:07.000Z</time>
      </trkpt>
      <trkpt lat="49.36122" lon="1.14095">
        <ele>73.6</ele>
        <time>2022-02-27T11:31:03.000Z</time>
      </trkpt>
      <trkpt lat="49.36114" lon="1.14084">
        <ele>72.4</ele>
        <time>2022-02-27T11:30:59.000Z</time>
      </trkpt>
      <trkpt lat="49.36107" lon="1.14072">
        <ele>72.3</ele>
        <time>2022-02-27T11:30:55.000Z</time>
      </trkpt>
      <trkpt lat="49.361" lon="1.14063">
        <ele>71.7</ele>
        <time>2022-02-27T11:30:51.000Z</time>
      </trkpt>
      <trkpt lat="49.36092" lon="1.14057">
        <ele>71.1</ele>
        <time>2022-02-27T11:30:46.000Z</time>
      </trkpt>
      <trkpt lat="49.36083" lon="1.14053">
        <ele>70.4</ele>
        <time>2022-02-27T11:30:41.000Z</time>
      </trkpt>
      <trkpt lat="49.36074" lon="1.1405">
        <ele>70.2</ele>
        <time>2022-02-27T11:30:33.000Z</time>
      </trkpt>
      <trkpt lat="49.36074" lon="1.14051">
        <ele>70.4</ele>
        <time>2022-02-27T11:30:10.000Z</time>
      </trkpt>
      <trkpt lat="49.36073" lon="1.14051">
        <ele>70.2</ele>
        <time>2022-02-27T11:30:08.000Z</time>
      </trkpt>
      <trkpt lat="49.36073" lon="1.14052">
        <ele>70.1</ele>
        <time>2022-02-27T11:27:55.000Z</time>
      </trkpt>
      <trkpt lat="49.36072" lon="1.14052">
        <ele>69.6</ele>
        <time>2022-02-27T11:27:46.000Z</time>
      </trkpt>
      <trkpt lat="49.36073" lon="1.14052">
        <ele>69.7</ele>
        <time>2022-02-27T11:27:35.000Z</time>
      </trkpt>
      <trkpt lat="49.36072" lon="1.14052">
        <ele>69.6</ele>
        <time>2022-02-27T11:27:34.000Z</time>
      </trkpt>
      <trkpt lat="49.36073" lon="1.14052">
        <ele>69.6</ele>
        <time>2022-02-27T11:27:28.000Z</time>
      </trkpt>
      <trkpt lat="49.36071" lon="1.14052">
        <ele>69.2</ele>
        <time>2022-02-27T11:27:22.000Z</time>
      </trkpt>
      <trkpt lat="49.36071" lon="1.14051">
        <ele>69.1</ele>
        <time>2022-02-27T11:26:13.000Z</time>
      </trkpt>
      <trkpt lat="49.36071" lon="1.1405">
        <ele>69.4</ele>
        <time>2022-02-27T11:26:09.000Z</time>
      </trkpt>
      <trkpt lat="49.36071" lon="1.14051">
        <ele>69.3</ele>
        <time>2022-02-27T11:25:52.000Z</time>
      </trkpt>
      <trkpt lat="49.36065" lon="1.14058">
        <ele>67.5</ele>
        <time>2022-02-27T11:25:31.000Z</time>
      </trkpt>
      <trkpt lat="49.36057" lon="1.14064">
        <ele>66.3</ele>
        <time>2022-02-27T11:25:28.000Z</time>
      </trkpt>
      <trkpt lat="49.36047" lon="1.14068">
        <ele>65.1</ele>
        <time>2022-02-27T11:25:24.000Z</time>
      </trkpt>
      <trkpt lat="49.36037" lon="1.14071">
        <ele>63.4</ele>
        <time>2022-02-27T11:25:20.000Z</time>
      </trkpt>
      <trkpt lat="49.36027" lon="1.14072">
        <ele>61.8</ele>
        <time>2022-02-27T11:25:15.000Z</time>
      </trkpt>
      <trkpt lat="49.36016" lon="1.14073">
        <ele>60.9</ele>
        <time>2022-02-27T11:25:12.000Z</time>
      </trkpt>
      <trkpt lat="49.36007" lon="1.14069">
        <ele>59.1</ele>
        <time>2022-02-27T11:25:09.000Z</time>
      </trkpt>
      <trkpt lat="49.35997" lon="1.14064">
        <ele>58.2</ele>
        <time>2022-02-27T11:25:06.000Z</time>
      </trkpt>
      <trkpt lat="49.35987" lon="1.14056">
        <ele>55.7</ele>
        <time>2022-02-27T11:25:02.000Z</time>
      </trkpt>
      <trkpt lat="49.35976" lon="1.14056">
        <ele>54.7</ele>
        <time>2022-02-27T11:24:59.000Z</time>
      </trkpt>
      <trkpt lat="49.35966" lon="1.14056">
        <ele>54.1</ele>
        <time>2022-02-27T11:24:57.000Z</time>
      </trkpt>
      <trkpt lat="49.35957" lon="1.14057">
        <ele>53.7</ele>
        <time>2022-02-27T11:24:55.000Z</time>
      </trkpt>
      <trkpt lat="49.35944" lon="1.14059">
        <ele>53.8</ele>
        <time>2022-02-27T11:24:52.000Z</time>
      </trkpt>
      <trkpt lat="49.35932" lon="1.14063">
        <ele>54.5</ele>
        <time>2022-02-27T11:24:49.000Z</time>
      </trkpt>
      <trkpt lat="49.35923" lon="1.14061">
        <ele>54.5</ele>
        <time>2022-02-27T11:24:46.000Z</time>
      </trkpt>
      <trkpt lat="49.35913" lon="1.14056">
        <ele>54.4</ele>
        <time>2022-02-27T11:24:43.000Z</time>
      </trkpt>
      <trkpt lat="49.35902" lon="1.14049">
        <ele>55</ele>
        <time>2022-02-27T11:24:40.000Z</time>
      </trkpt>
      <trkpt lat="49.35891" lon="1.14039">
        <ele>54.2</ele>
        <time>2022-02-27T11:24:37.000Z</time>
      </trkpt>
      <trkpt lat="49.35884" lon="1.14031">
        <ele>53.2</ele>
        <time>2022-02-27T11:24:35.000Z</time>
      </trkpt>
      <trkpt lat="49.35876" lon="1.14023">
        <ele>53</ele>
        <time>2022-02-27T11:24:33.000Z</time>
      </trkpt>
      <trkpt lat="49.35865" lon="1.14012">
        <ele>53.1</ele>
        <time>2022-02-27T11:24:30.000Z</time>
      </trkpt>
      <trkpt lat="49.35854" lon="1.14003">
        <ele>53.7</ele>
        <time>2022-02-27T11:24:27.000Z</time>
      </trkpt>
      <trkpt lat="49.35845" lon="1.13998">
        <ele>53</ele>
        <time>2022-02-27T11:24:24.000Z</time>
      </trkpt>
      <trkpt lat="49.35835" lon="1.14002">
        <ele>51.8</ele>
        <time>2022-02-27T11:24:21.000Z</time>
      </trkpt>
      <trkpt lat="49.35826" lon="1.14009">
        <ele>50.4</ele>
        <time>2022-02-27T11:24:18.000Z</time>
      </trkpt>
      <trkpt lat="49.35814" lon="1.14017">
        <ele>48.6</ele>
        <time>2022-02-27T11:24:15.000Z</time>
      </trkpt>
      <trkpt lat="49.35804" lon="1.14023">
        <ele>46.3</ele>
        <time>2022-02-27T11:24:12.000Z</time>
      </trkpt>
      <trkpt lat="49.35793" lon="1.14029">
        <ele>45.3</ele>
        <time>2022-02-27T11:24:09.000Z</time>
      </trkpt>
      <trkpt lat="49.35782" lon="1.14035">
        <ele>44.6</ele>
        <time>2022-02-27T11:24:06.000Z</time>
      </trkpt>
      <trkpt lat="49.35773" lon="1.14039">
        <ele>44.4</ele>
        <time>2022-02-27T11:24:04.000Z</time>
      </trkpt>
      <trkpt lat="49.35764" lon="1.14043">
        <ele>44.4</ele>
        <time>2022-02-27T11:24:02.000Z</time>
      </trkpt>
      <trkpt lat="49.35754" lon="1.14049">
        <ele>44.4</ele>
        <time>2022-02-27T11:24:00.000Z</time>
      </trkpt>
      <trkpt lat="49.35744" lon="1.14054">
        <ele>44.4</ele>
        <time>2022-02-27T11:23:58.000Z</time>
      </trkpt>
      <trkpt lat="49.35735" lon="1.1406">
        <ele>44.9</ele>
        <time>2022-02-27T11:23:56.000Z</time>
      </trkpt>
      <trkpt lat="49.35726" lon="1.14066">
        <ele>44.9</ele>
        <time>2022-02-27T11:23:54.000Z</time>
      </trkpt>
      <trkpt lat="49.35718" lon="1.14075">
        <ele>44.7</ele>
        <time>2022-02-27T11:23:52.000Z</time>
      </trkpt>
      <trkpt lat="49.35712" lon="1.14087">
        <ele>44.7</ele>
        <time>2022-02-27T11:23:50.000Z</time>
      </trkpt>
      <trkpt lat="49.35707" lon="1.14101">
        <ele>45.2</ele>
        <time>2022-02-27T11:23:48.000Z</time>
      </trkpt>
      <trkpt lat="49.35702" lon="1.14115">
        <ele>45.7</ele>
        <time>2022-02-27T11:23:46.000Z</time>
      </trkpt>
      <trkpt lat="49.35699" lon="1.14131">
        <ele>46.4</ele>
        <time>2022-02-27T11:23:44.000Z</time>
      </trkpt>
      <trkpt lat="49.35696" lon="1.14146">
        <ele>45.9</ele>
        <time>2022-02-27T11:23:42.000Z</time>
      </trkpt>
      <trkpt lat="49.35694" lon="1.14163">
        <ele>46.3</ele>
        <time>2022-02-27T11:23:40.000Z</time>
      </trkpt>
      <trkpt lat="49.35692" lon="1.14179">
        <ele>45.7</ele>
        <time>2022-02-27T11:23:38.000Z</time>
      </trkpt>
      <trkpt lat="49.35688" lon="1.14196">
        <ele>47.3</ele>
        <time>2022-02-27T11:23:35.000Z</time>
      </trkpt>
      <trkpt lat="49.35683" lon="1.14211">
        <ele>47.2</ele>
        <time>2022-02-27T11:23:31.000Z</time>
      </trkpt>
      <trkpt lat="49.35674" lon="1.14218">
        <ele>48.5</ele>
        <time>2022-02-27T11:23:28.000Z</time>
      </trkpt>
      <trkpt lat="49.35666" lon="1.14226">
        <ele>51.6</ele>
        <time>2022-02-27T11:23:26.000Z</time>
      </trkpt>
      <trkpt lat="49.35657" lon="1.14232">
        <ele>52.7</ele>
        <time>2022-02-27T11:23:24.000Z</time>
      </trkpt>
      <trkpt lat="49.35644" lon="1.1424">
        <ele>54.7</ele>
        <time>2022-02-27T11:23:21.000Z</time>
      </trkpt>
      <trkpt lat="49.35635" lon="1.14248">
        <ele>57.1</ele>
        <time>2022-02-27T11:23:19.000Z</time>
      </trkpt>
      <trkpt lat="49.35625" lon="1.14259">
        <ele>60.3</ele>
        <time>2022-02-27T11:23:17.000Z</time>
      </trkpt>
      <trkpt lat="49.35615" lon="1.14268">
        <ele>62.7</ele>
        <time>2022-02-27T11:23:15.000Z</time>
      </trkpt>
      <trkpt lat="49.35606" lon="1.14276">
        <ele>64.8</ele>
        <time>2022-02-27T11:23:13.000Z</time>
      </trkpt>
      <trkpt lat="49.35594" lon="1.14284">
        <ele>66.7</ele>
        <time>2022-02-27T11:23:10.000Z</time>
      </trkpt>
      <trkpt lat="49.35584" lon="1.14288">
        <ele>67.3</ele>
        <time>2022-02-27T11:23:08.000Z</time>
      </trkpt>
      <trkpt lat="49.35574" lon="1.14291">
        <ele>68.1</ele>
        <time>2022-02-27T11:23:06.000Z</time>
      </trkpt>
      <trkpt lat="49.35564" lon="1.14291">
        <ele>68.5</ele>
        <time>2022-02-27T11:23:03.000Z</time>
      </trkpt>
      <trkpt lat="49.35553" lon="1.14294">
        <ele>69.1</ele>
        <time>2022-02-27T11:22:57.000Z</time>
      </trkpt>
      <trkpt lat="49.35552" lon="1.14295">
        <ele>69.7</ele>
        <time>2022-02-27T11:22:14.000Z</time>
      </trkpt>
      <trkpt lat="49.35552" lon="1.14294">
        <ele>69.3</ele>
        <time>2022-02-27T11:22:10.000Z</time>
      </trkpt>
      <trkpt lat="49.35548" lon="1.14295">
        <ele>69.8</ele>
        <time>2022-02-27T11:21:44.000Z</time>
      </trkpt>
      <trkpt lat="49.3555" lon="1.1431">
        <ele>69.5</ele>
        <time>2022-02-27T11:21:41.000Z</time>
      </trkpt>
      <trkpt lat="49.35553" lon="1.14329">
        <ele>70.3</ele>
        <time>2022-02-27T11:21:38.000Z</time>
      </trkpt>
      <trkpt lat="49.35555" lon="1.14343">
        <ele>69.2</ele>
        <time>2022-02-27T11:21:36.000Z</time>
      </trkpt>
      <trkpt lat="49.35556" lon="1.14358">
        <ele>70.2</ele>
        <time>2022-02-27T11:21:34.000Z</time>
      </trkpt>
      <trkpt lat="49.35556" lon="1.14374">
        <ele>71.7</ele>
        <time>2022-02-27T11:21:32.000Z</time>
      </trkpt>
      <trkpt lat="49.35556" lon="1.14389">
        <ele>72</ele>
        <time>2022-02-27T11:21:30.000Z</time>
      </trkpt>
      <trkpt lat="49.35557" lon="1.14404">
        <ele>72.6</ele>
        <time>2022-02-27T11:21:28.000Z</time>
      </trkpt>
      <trkpt lat="49.35558" lon="1.14419">
        <ele>72.5</ele>
        <time>2022-02-27T11:21:26.000Z</time>
      </trkpt>
      <trkpt lat="49.35559" lon="1.14433">
        <ele>72.7</ele>
        <time>2022-02-27T11:21:24.000Z</time>
      </trkpt>
      <trkpt lat="49.3556" lon="1.14449">
        <ele>72.1</ele>
        <time>2022-02-27T11:21:22.000Z</time>
      </trkpt>
      <trkpt lat="49.35561" lon="1.14464">
        <ele>72</ele>
        <time>2022-02-27T11:21:20.000Z</time>
      </trkpt>
      <trkpt lat="49.35559" lon="1.14478">
        <ele>72.6</ele>
        <time>2022-02-27T11:21:18.000Z</time>
      </trkpt>
      <trkpt lat="49.35557" lon="1.14492">
        <ele>74.5</ele>
        <time>2022-02-27T11:21:16.000Z</time>
      </trkpt>
      <trkpt lat="49.35555" lon="1.14507">
        <ele>75.3</ele>
        <time>2022-02-27T11:21:14.000Z</time>
      </trkpt>
      <trkpt lat="49.35553" lon="1.14522">
        <ele>75</ele>
        <time>2022-02-27T11:21:12.000Z</time>
      </trkpt>
      <trkpt lat="49.3555" lon="1.14538">
        <ele>74.8</ele>
        <time>2022-02-27T11:21:10.000Z</time>
      </trkpt>
      <trkpt lat="49.35548" lon="1.14554">
        <ele>75.2</ele>
        <time>2022-02-27T11:21:08.000Z</time>
      </trkpt>
      <trkpt lat="49.35546" lon="1.14569">
        <ele>75.3</ele>
        <time>2022-02-27T11:21:06.000Z</time>
      </trkpt>
      <trkpt lat="49.35545" lon="1.14584">
        <ele>76</ele>
        <time>2022-02-27T11:21:04.000Z</time>
      </trkpt>
      <trkpt lat="49.35543" lon="1.14598">
        <ele>76.1</ele>
        <time>2022-02-27T11:21:02.000Z</time>
      </trkpt>
      <trkpt lat="49.35541" lon="1.14614">
        <ele>76.4</ele>
        <time>2022-02-27T11:21:00.000Z</time>
      </trkpt>
      <trkpt lat="49.3554" lon="1.14632">
        <ele>77.2</ele>
        <time>2022-02-27T11:20:58.000Z</time>
      </trkpt>
      <trkpt lat="49.3554" lon="1.14649">
        <ele>77.1</ele>
        <time>2022-02-27T11:20:56.000Z</time>
      </trkpt>
      <trkpt lat="49.35539" lon="1.14666">
        <ele>77.4</ele>
        <time>2022-02-27T11:20:54.000Z</time>
      </trkpt>
      <trkpt lat="49.35538" lon="1.1468">
        <ele>77.6</ele>
        <time>2022-02-27T11:20:52.000Z</time>
      </trkpt>
      <trkpt lat="49.35537" lon="1.14695">
        <ele>77.8</ele>
        <time>2022-02-27T11:20:50.000Z</time>
      </trkpt>
      <trkpt lat="49.35537" lon="1.14715">
        <ele>79.1</ele>
        <time>2022-02-27T11:20:47.000Z</time>
      </trkpt>
      <trkpt lat="49.35537" lon="1.14729">
        <ele>78.7</ele>
        <time>2022-02-27T11:20:45.000Z</time>
      </trkpt>
      <trkpt lat="49.35539" lon="1.14749">
        <ele>78.4</ele>
        <time>2022-02-27T11:20:42.000Z</time>
      </trkpt>
      <trkpt lat="49.3554" lon="1.14766">
        <ele>78.3</ele>
        <time>2022-02-27T11:20:39.000Z</time>
      </trkpt>
      <trkpt lat="49.35541" lon="1.14782">
        <ele>78.2</ele>
        <time>2022-02-27T11:20:36.000Z</time>
      </trkpt>
      <trkpt lat="49.35541" lon="1.14798">
        <ele>78.4</ele>
        <time>2022-02-27T11:20:33.000Z</time>
      </trkpt>
      <trkpt lat="49.35542" lon="1.14814">
        <ele>78.2</ele>
        <time>2022-02-27T11:20:31.000Z</time>
      </trkpt>
      <trkpt lat="49.35543" lon="1.14831">
        <ele>78.3</ele>
        <time>2022-02-27T11:20:29.000Z</time>
      </trkpt>
      <trkpt lat="49.35544" lon="1.14847">
        <ele>78.2</ele>
        <time>2022-02-27T11:20:27.000Z</time>
      </trkpt>
      <trkpt lat="49.35545" lon="1.14864">
        <ele>78.9</ele>
        <time>2022-02-27T11:20:25.000Z</time>
      </trkpt>
      <trkpt lat="49.35546" lon="1.1488">
        <ele>78.9</ele>
        <time>2022-02-27T11:20:23.000Z</time>
      </trkpt>
      <trkpt lat="49.35547" lon="1.14897">
        <ele>78.1</ele>
        <time>2022-02-27T11:20:21.000Z</time>
      </trkpt>
      <trkpt lat="49.35547" lon="1.14913">
        <ele>78.5</ele>
        <time>2022-02-27T11:20:19.000Z</time>
      </trkpt>
      <trkpt lat="49.35548" lon="1.14929">
        <ele>78.6</ele>
        <time>2022-02-27T11:20:17.000Z</time>
      </trkpt>
      <trkpt lat="49.35548" lon="1.14945">
        <ele>79.4</ele>
        <time>2022-02-27T11:20:15.000Z</time>
      </trkpt>
      <trkpt lat="49.35548" lon="1.1496">
        <ele>79.2</ele>
        <time>2022-02-27T11:20:13.000Z</time>
      </trkpt>
      <trkpt lat="49.3555" lon="1.14975">
        <ele>79</ele>
        <time>2022-02-27T11:20:11.000Z</time>
      </trkpt>
      <trkpt lat="49.35553" lon="1.14991">
        <ele>78.8</ele>
        <time>2022-02-27T11:20:09.000Z</time>
      </trkpt>
      <trkpt lat="49.35555" lon="1.15006">
        <ele>79.4</ele>
        <time>2022-02-27T11:20:07.000Z</time>
      </trkpt>
      <trkpt lat="49.35558" lon="1.15021">
        <ele>79.2</ele>
        <time>2022-02-27T11:20:05.000Z</time>
      </trkpt>
      <trkpt lat="49.3556" lon="1.1504">
        <ele>79.8</ele>
        <time>2022-02-27T11:20:02.000Z</time>
      </trkpt>
      <trkpt lat="49.35561" lon="1.15055">
        <ele>79.5</ele>
        <time>2022-02-27T11:20:00.000Z</time>
      </trkpt>
      <trkpt lat="49.35565" lon="1.15074">
        <ele>79.5</ele>
        <time>2022-02-27T11:19:57.000Z</time>
      </trkpt>
      <trkpt lat="49.3557" lon="1.15092">
        <ele>79.4</ele>
        <time>2022-02-27T11:19:54.000Z</time>
      </trkpt>
      <trkpt lat="49.35576" lon="1.15107">
        <ele>79.7</ele>
        <time>2022-02-27T11:19:51.000Z</time>
      </trkpt>
      <trkpt lat="49.3558" lon="1.15121">
        <ele>80.8</ele>
        <time>2022-02-27T11:19:49.000Z</time>
      </trkpt>
      <trkpt lat="49.35584" lon="1.15135">
        <ele>81.1</ele>
        <time>2022-02-27T11:19:47.000Z</time>
      </trkpt>
      <trkpt lat="49.35588" lon="1.15148">
        <ele>80.2</ele>
        <time>2022-02-27T11:19:45.000Z</time>
      </trkpt>
      <trkpt lat="49.35593" lon="1.15166">
        <ele>80.9</ele>
        <time>2022-02-27T11:19:42.000Z</time>
      </trkpt>
      <trkpt lat="49.35597" lon="1.15182">
        <ele>81.6</ele>
        <time>2022-02-27T11:19:39.000Z</time>
      </trkpt>
      <trkpt lat="49.35589" lon="1.15193">
        <ele>80.4</ele>
        <time>2022-02-27T11:19:35.000Z</time>
      </trkpt>
      <trkpt lat="49.3558" lon="1.15198">
        <ele>81.1</ele>
        <time>2022-02-27T11:19:32.000Z</time>
      </trkpt>
      <trkpt lat="49.35571" lon="1.15209">
        <ele>79.6</ele>
        <time>2022-02-27T11:19:27.000Z</time>
      </trkpt>
      <trkpt lat="49.35578" lon="1.15218">
        <ele>79.3</ele>
        <time>2022-02-27T11:19:24.000Z</time>
      </trkpt>
      <trkpt lat="49.35589" lon="1.15222">
        <ele>79.6</ele>
        <time>2022-02-27T11:19:21.000Z</time>
      </trkpt>
      <trkpt lat="49.35599" lon="1.15227">
        <ele>80.2</ele>
        <time>2022-02-27T11:19:18.000Z</time>
      </trkpt>
      <trkpt lat="49.35606" lon="1.15236">
        <ele>80</ele>
        <time>2022-02-27T11:19:12.000Z</time>
      </trkpt>
      <trkpt lat="49.35606" lon="1.15237">
        <ele>80.1</ele>
        <time>2022-02-27T11:19:06.000Z</time>
      </trkpt>
      <trkpt lat="49.35606" lon="1.15239">
        <ele>80.2</ele>
        <time>2022-02-27T11:18:28.000Z</time>
      </trkpt>
      <trkpt lat="49.35606" lon="1.15235">
        <ele>80.1</ele>
        <time>2022-02-27T11:17:54.000Z</time>
      </trkpt>
      <trkpt lat="49.35605" lon="1.15235">
        <ele>80.2</ele>
        <time>2022-02-27T11:17:42.000Z</time>
      </trkpt>
      <trkpt lat="49.35609" lon="1.15239">
        <ele>79.8</ele>
        <time>2022-02-27T11:17:37.000Z</time>
      </trkpt>
      <trkpt lat="49.35618" lon="1.15248">
        <ele>80.6</ele>
        <time>2022-02-27T11:17:35.000Z</time>
      </trkpt>
      <trkpt lat="49.35629" lon="1.15257">
        <ele>81.2</ele>
        <time>2022-02-27T11:17:33.000Z</time>
      </trkpt>
      <trkpt lat="49.35639" lon="1.15267">
        <ele>81.5</ele>
        <time>2022-02-27T11:17:31.000Z</time>
      </trkpt>
      <trkpt lat="49.3565" lon="1.15276">
        <ele>82.4</ele>
        <time>2022-02-27T11:17:29.000Z</time>
      </trkpt>
      <trkpt lat="49.35661" lon="1.15287">
        <ele>82.2</ele>
        <time>2022-02-27T11:17:27.000Z</time>
      </trkpt>
      <trkpt lat="49.35672" lon="1.15298">
        <ele>82.8</ele>
        <time>2022-02-27T11:17:25.000Z</time>
      </trkpt>
      <trkpt lat="49.35682" lon="1.15311">
        <ele>82.6</ele>
        <time>2022-02-27T11:17:23.000Z</time>
      </trkpt>
      <trkpt lat="49.35691" lon="1.15325">
        <ele>82.8</ele>
        <time>2022-02-27T11:17:21.000Z</time>
      </trkpt>
      <trkpt lat="49.35701" lon="1.15341">
        <ele>84.4</ele>
        <time>2022-02-27T11:17:19.000Z</time>
      </trkpt>
      <trkpt lat="49.35711" lon="1.15356">
        <ele>84.4</ele>
        <time>2022-02-27T11:17:17.000Z</time>
      </trkpt>
      <trkpt lat="49.35721" lon="1.15372">
        <ele>84</ele>
        <time>2022-02-27T11:17:15.000Z</time>
      </trkpt>
      <trkpt lat="49.35732" lon="1.15389">
        <ele>83.4</ele>
        <time>2022-02-27T11:17:13.000Z</time>
      </trkpt>
      <trkpt lat="49.35743" lon="1.15406">
        <ele>83.9</ele>
        <time>2022-02-27T11:17:11.000Z</time>
      </trkpt>
      <trkpt lat="49.35753" lon="1.15423">
        <ele>85.3</ele>
        <time>2022-02-27T11:17:09.000Z</time>
      </trkpt>
      <trkpt lat="49.35764" lon="1.1544">
        <ele>86.8</ele>
        <time>2022-02-27T11:17:07.000Z</time>
      </trkpt>
      <trkpt lat="49.35774" lon="1.15457">
        <ele>87.3</ele>
        <time>2022-02-27T11:17:05.000Z</time>
      </trkpt>
      <trkpt lat="49.35784" lon="1.15474">
        <ele>87.9</ele>
        <time>2022-02-27T11:17:03.000Z</time>
      </trkpt>
      <trkpt lat="49.35795" lon="1.15492">
        <ele>90.5</ele>
        <time>2022-02-27T11:17:01.000Z</time>
      </trkpt>
      <trkpt lat="49.35805" lon="1.15509">
        <ele>91.9</ele>
        <time>2022-02-27T11:16:59.000Z</time>
      </trkpt>
      <trkpt lat="49.35815" lon="1.15525">
        <ele>92.3</ele>
        <time>2022-02-27T11:16:57.000Z</time>
      </trkpt>
      <trkpt lat="49.35824" lon="1.15543">
        <ele>94.3</ele>
        <time>2022-02-27T11:16:55.000Z</time>
      </trkpt>
      <trkpt lat="49.35831" lon="1.15561">
        <ele>95.4</ele>
        <time>2022-02-27T11:16:53.000Z</time>
      </trkpt>
      <trkpt lat="49.35837" lon="1.15579">
        <ele>96.5</ele>
        <time>2022-02-27T11:16:51.000Z</time>
      </trkpt>
      <trkpt lat="49.35843" lon="1.15597">
        <ele>97</ele>
        <time>2022-02-27T11:16:49.000Z</time>
      </trkpt>
      <trkpt lat="49.35848" lon="1.15613">
        <ele>98.2</ele>
        <time>2022-02-27T11:16:47.000Z</time>
      </trkpt>
      <trkpt lat="49.35858" lon="1.15628">
        <ele>99.1</ele>
        <time>2022-02-27T11:16:44.000Z</time>
      </trkpt>
      <trkpt lat="49.35864" lon="1.15638">
        <ele>98.8</ele>
        <time>2022-02-27T11:16:42.000Z</time>
      </trkpt>
      <trkpt lat="49.35873" lon="1.15649">
        <ele>99.1</ele>
        <time>2022-02-27T11:16:40.000Z</time>
      </trkpt>
      <trkpt lat="49.35886" lon="1.1566">
        <ele>101.2</ele>
        <time>2022-02-27T11:16:37.000Z</time>
      </trkpt>
      <trkpt lat="49.35893" lon="1.15671">
        <ele>102.8</ele>
        <time>2022-02-27T11:16:35.000Z</time>
      </trkpt>
      <trkpt lat="49.35901" lon="1.15684">
        <ele>103.4</ele>
        <time>2022-02-27T11:16:32.000Z</time>
      </trkpt>
      <trkpt lat="49.35909" lon="1.15698">
        <ele>103.4</ele>
        <time>2022-02-27T11:16:29.000Z</time>
      </trkpt>
      <trkpt lat="49.35917" lon="1.15712">
        <ele>104.5</ele>
        <time>2022-02-27T11:16:27.000Z</time>
      </trkpt>
      <trkpt lat="49.35923" lon="1.15726">
        <ele>106.6</ele>
        <time>2022-02-27T11:16:25.000Z</time>
      </trkpt>
      <trkpt lat="49.35929" lon="1.15739">
        <ele>106.7</ele>
        <time>2022-02-27T11:16:23.000Z</time>
      </trkpt>
      <trkpt lat="49.35935" lon="1.15753">
        <ele>108.2</ele>
        <time>2022-02-27T11:16:21.000Z</time>
      </trkpt>
      <trkpt lat="49.35945" lon="1.15769">
        <ele>109.1</ele>
        <time>2022-02-27T11:16:18.000Z</time>
      </trkpt>
      <trkpt lat="49.35954" lon="1.15778">
        <ele>110.4</ele>
        <time>2022-02-27T11:16:15.000Z</time>
      </trkpt>
      <trkpt lat="49.3596" lon="1.15791">
        <ele>111.8</ele>
        <time>2022-02-27T11:16:12.000Z</time>
      </trkpt>
      <trkpt lat="49.35965" lon="1.15804">
        <ele>113.5</ele>
        <time>2022-02-27T11:16:10.000Z</time>
      </trkpt>
      <trkpt lat="49.35968" lon="1.15822">
        <ele>114.9</ele>
        <time>2022-02-27T11:16:08.000Z</time>
      </trkpt>
      <trkpt lat="49.35977" lon="1.15835">
        <ele>116.5</ele>
        <time>2022-02-27T11:16:05.000Z</time>
      </trkpt>
      <trkpt lat="49.35984" lon="1.15842">
        <ele>117.8</ele>
        <time>2022-02-27T11:16:03.000Z</time>
      </trkpt>
      <trkpt lat="49.35994" lon="1.15848">
        <ele>119.6</ele>
        <time>2022-02-27T11:16:01.000Z</time>
      </trkpt>
      <trkpt lat="49.36003" lon="1.15853">
        <ele>122.2</ele>
        <time>2022-02-27T11:15:59.000Z</time>
      </trkpt>
      <trkpt lat="49.36012" lon="1.1586">
        <ele>125</ele>
        <time>2022-02-27T11:15:57.000Z</time>
      </trkpt>
      <trkpt lat="49.3602" lon="1.15867">
        <ele>126.5</ele>
        <time>2022-02-27T11:15:55.000Z</time>
      </trkpt>
      <trkpt lat="49.36029" lon="1.15873">
        <ele>127.3</ele>
        <time>2022-02-27T11:15:53.000Z</time>
      </trkpt>
      <trkpt lat="49.36039" lon="1.15881">
        <ele>129.4</ele>
        <time>2022-02-27T11:15:51.000Z</time>
      </trkpt>
      <trkpt lat="49.36049" lon="1.1589">
        <ele>129.8</ele>
        <time>2022-02-27T11:15:49.000Z</time>
      </trkpt>
      <trkpt lat="49.36059" lon="1.159">
        <ele>130.8</ele>
        <time>2022-02-27T11:15:47.000Z</time>
      </trkpt>
      <trkpt lat="49.36069" lon="1.15909">
        <ele>133.2</ele>
        <time>2022-02-27T11:15:45.000Z</time>
      </trkpt>
      <trkpt lat="49.36078" lon="1.15918">
        <ele>133.9</ele>
        <time>2022-02-27T11:15:43.000Z</time>
      </trkpt>
      <trkpt lat="49.36086" lon="1.15924">
        <ele>134.9</ele>
        <time>2022-02-27T11:15:41.000Z</time>
      </trkpt>
      <trkpt lat="49.36098" lon="1.15929">
        <ele>135.7</ele>
        <time>2022-02-27T11:15:38.000Z</time>
      </trkpt>
      <trkpt lat="49.36108" lon="1.15933">
        <ele>135.7</ele>
        <time>2022-02-27T11:15:35.000Z</time>
      </trkpt>
      <trkpt lat="49.36119" lon="1.15937">
        <ele>136.5</ele>
        <time>2022-02-27T11:15:31.000Z</time>
      </trkpt>
      <trkpt lat="49.36128" lon="1.15947">
        <ele>137.1</ele>
        <time>2022-02-27T11:15:27.000Z</time>
      </trkpt>
      <trkpt lat="49.36136" lon="1.15958">
        <ele>137.4</ele>
        <time>2022-02-27T11:15:23.000Z</time>
      </trkpt>
      <trkpt lat="49.36145" lon="1.15961">
        <ele>137.6</ele>
        <time>2022-02-27T11:15:20.000Z</time>
      </trkpt>
      <trkpt lat="49.36155" lon="1.15957">
        <ele>137.5</ele>
        <time>2022-02-27T11:15:16.000Z</time>
      </trkpt>
      <trkpt lat="49.36157" lon="1.15943">
        <ele>136.9</ele>
        <time>2022-02-27T11:15:13.000Z</time>
      </trkpt>
      <trkpt lat="49.36159" lon="1.15927">
        <ele>136.6</ele>
        <time>2022-02-27T11:15:10.000Z</time>
      </trkpt>
      <trkpt lat="49.36166" lon="1.15915">
        <ele>136.4</ele>
        <time>2022-02-27T11:15:07.000Z</time>
      </trkpt>
      <trkpt lat="49.36172" lon="1.15904">
        <ele>135.9</ele>
        <time>2022-02-27T11:15:04.000Z</time>
      </trkpt>
      <trkpt lat="49.36179" lon="1.15894">
        <ele>135.8</ele>
        <time>2022-02-27T11:15:01.000Z</time>
      </trkpt>
      <trkpt lat="49.36189" lon="1.15887">
        <ele>135.9</ele>
        <time>2022-02-27T11:14:56.000Z</time>
      </trkpt>
      <trkpt lat="49.36197" lon="1.15881">
        <ele>136.6</ele>
        <time>2022-02-27T11:14:50.000Z</time>
      </trkpt>
      <trkpt lat="49.36188" lon="1.15885">
        <ele>137.2</ele>
        <time>2022-02-27T11:14:43.000Z</time>
      </trkpt>
      <trkpt lat="49.3618" lon="1.15895">
        <ele>137</ele>
        <time>2022-02-27T11:14:39.000Z</time>
      </trkpt>
      <trkpt lat="49.36173" lon="1.15905">
        <ele>137</ele>
        <time>2022-02-27T11:14:36.000Z</time>
      </trkpt>
      <trkpt lat="49.36166" lon="1.15916">
        <ele>137</ele>
        <time>2022-02-27T11:14:33.000Z</time>
      </trkpt>
      <trkpt lat="49.36161" lon="1.15927">
        <ele>137</ele>
        <time>2022-02-27T11:14:30.000Z</time>
      </trkpt>
      <trkpt lat="49.36158" lon="1.15942">
        <ele>137.3</ele>
        <time>2022-02-27T11:14:26.000Z</time>
      </trkpt>
      <trkpt lat="49.36157" lon="1.15957">
        <ele>137.5</ele>
        <time>2022-02-27T11:14:19.000Z</time>
      </trkpt>
      <trkpt lat="49.36165" lon="1.15965">
        <ele>136.8</ele>
        <time>2022-02-27T11:14:14.000Z</time>
      </trkpt>
      <trkpt lat="49.36174" lon="1.15966">
        <ele>136.6</ele>
        <time>2022-02-27T11:14:11.000Z</time>
      </trkpt>
      <trkpt lat="49.36184" lon="1.15968">
        <ele>136.5</ele>
        <time>2022-02-27T11:14:08.000Z</time>
      </trkpt>
      <trkpt lat="49.36194" lon="1.15969">
        <ele>135.9</ele>
        <time>2022-02-27T11:14:05.000Z</time>
      </trkpt>
      <trkpt lat="49.36205" lon="1.15971">
        <ele>135.7</ele>
        <time>2022-02-27T11:14:02.000Z</time>
      </trkpt>
      <trkpt lat="49.36217" lon="1.15975">
        <ele>136.1</ele>
        <time>2022-02-27T11:13:59.000Z</time>
      </trkpt>
      <trkpt lat="49.36228" lon="1.15979">
        <ele>136.8</ele>
        <time>2022-02-27T11:13:56.000Z</time>
      </trkpt>
      <trkpt lat="49.36237" lon="1.15974">
        <ele>137.5</ele>
        <time>2022-02-27T11:13:52.000Z</time>
      </trkpt>
      <trkpt lat="49.36244" lon="1.15962">
        <ele>137.3</ele>
        <time>2022-02-27T11:13:48.000Z</time>
      </trkpt>
      <trkpt lat="49.36251" lon="1.15948">
        <ele>136.9</ele>
        <time>2022-02-27T11:13:44.000Z</time>
      </trkpt>
      <trkpt lat="49.36258" lon="1.15934">
        <ele>136.3</ele>
        <time>2022-02-27T11:13:40.000Z</time>
      </trkpt>
      <trkpt lat="49.36265" lon="1.15922">
        <ele>135.6</ele>
        <time>2022-02-27T11:13:36.000Z</time>
      </trkpt>
      <trkpt lat="49.36274" lon="1.15911">
        <ele>134.7</ele>
        <time>2022-02-27T11:13:32.000Z</time>
      </trkpt>
      <trkpt lat="49.36281" lon="1.15903">
        <ele>134.3</ele>
        <time>2022-02-27T11:13:29.000Z</time>
      </trkpt>
      <trkpt lat="49.36289" lon="1.15895">
        <ele>133.1</ele>
        <time>2022-02-27T11:13:26.000Z</time>
      </trkpt>
      <trkpt lat="49.36297" lon="1.15887">
        <ele>132.1</ele>
        <time>2022-02-27T11:13:23.000Z</time>
      </trkpt>
      <trkpt lat="49.36308" lon="1.1588">
        <ele>131.1</ele>
        <time>2022-02-27T11:13:19.000Z</time>
      </trkpt>
      <trkpt lat="49.36316" lon="1.15874">
        <ele>130.3</ele>
        <time>2022-02-27T11:13:16.000Z</time>
      </trkpt>
      <trkpt lat="49.36324" lon="1.15861">
        <ele>129.5</ele>
        <time>2022-02-27T11:13:12.000Z</time>
      </trkpt>
      <trkpt lat="49.36328" lon="1.15848">
        <ele>129.1</ele>
        <time>2022-02-27T11:13:09.000Z</time>
      </trkpt>
      <trkpt lat="49.3633" lon="1.15834">
        <ele>128.3</ele>
        <time>2022-02-27T11:13:06.000Z</time>
      </trkpt>
      <trkpt lat="49.36337" lon="1.15822">
        <ele>128.6</ele>
        <time>2022-02-27T11:13:02.000Z</time>
      </trkpt>
      <trkpt lat="49.36343" lon="1.1581">
        <ele>128.5</ele>
        <time>2022-02-27T11:12:59.000Z</time>
      </trkpt>
      <trkpt lat="49.36349" lon="1.15796">
        <ele>128.9</ele>
        <time>2022-02-27T11:12:57.000Z</time>
      </trkpt>
      <trkpt lat="49.36354" lon="1.15783">
        <ele>129.8</ele>
        <time>2022-02-27T11:12:55.000Z</time>
      </trkpt>
      <trkpt lat="49.36359" lon="1.1577">
        <ele>130.2</ele>
        <time>2022-02-27T11:12:53.000Z</time>
      </trkpt>
      <trkpt lat="49.36364" lon="1.15758">
        <ele>131.1</ele>
        <time>2022-02-27T11:12:51.000Z</time>
      </trkpt>
      <trkpt lat="49.36371" lon="1.15741">
        <ele>131.8</ele>
        <time>2022-02-27T11:12:48.000Z</time>
      </trkpt>
      <trkpt lat="49.36377" lon="1.15725">
        <ele>132.3</ele>
        <time>2022-02-27T11:12:45.000Z</time>
      </trkpt>
      <trkpt lat="49.36382" lon="1.1571">
        <ele>133</ele>
        <time>2022-02-27T11:12:42.000Z</time>
      </trkpt>
      <trkpt lat="49.36387" lon="1.15696">
        <ele>133</ele>
        <time>2022-02-27T11:12:39.000Z</time>
      </trkpt>
      <trkpt lat="49.36392" lon="1.15682">
        <ele>133.8</ele>
        <time>2022-02-27T11:12:36.000Z</time>
      </trkpt>
      <trkpt lat="49.36397" lon="1.15669">
        <ele>134.1</ele>
        <time>2022-02-27T11:12:33.000Z</time>
      </trkpt>
      <trkpt lat="49.36402" lon="1.15656">
        <ele>134.2</ele>
        <time>2022-02-27T11:12:30.000Z</time>
      </trkpt>
      <trkpt lat="49.36408" lon="1.15643">
        <ele>134.3</ele>
        <time>2022-02-27T11:12:27.000Z</time>
      </trkpt>
      <trkpt lat="49.36414" lon="1.15629">
        <ele>134.4</ele>
        <time>2022-02-27T11:12:24.000Z</time>
      </trkpt>
      <trkpt lat="49.3642" lon="1.15616">
        <ele>135</ele>
        <time>2022-02-27T11:12:21.000Z</time>
      </trkpt>
      <trkpt lat="49.36428" lon="1.15604">
        <ele>135.3</ele>
        <time>2022-02-27T11:12:18.000Z</time>
      </trkpt>
      <trkpt lat="49.36435" lon="1.15593">
        <ele>135.2</ele>
        <time>2022-02-27T11:12:14.000Z</time>
      </trkpt>
      <trkpt lat="49.36442" lon="1.15582">
        <ele>135.5</ele>
        <time>2022-02-27T11:12:10.000Z</time>
      </trkpt>
      <trkpt lat="49.36448" lon="1.15569">
        <ele>135.8</ele>
        <time>2022-02-27T11:12:06.000Z</time>
      </trkpt>
      <trkpt lat="49.36454" lon="1.15554">
        <ele>135.6</ele>
        <time>2022-02-27T11:11:58.000Z</time>
      </trkpt>
      <trkpt lat="49.36455" lon="1.15552">
        <ele>135.8</ele>
        <time>2022-02-27T11:11:31.000Z</time>
      </trkpt>
      <trkpt lat="49.36461" lon="1.1554">
        <ele>136.6</ele>
        <time>2022-02-27T11:11:26.000Z</time>
      </trkpt>
      <trkpt lat="49.36467" lon="1.15528">
        <ele>136.7</ele>
        <time>2022-02-27T11:11:21.000Z</time>
      </trkpt>
      <trkpt lat="49.36472" lon="1.15514">
        <ele>136.6</ele>
        <time>2022-02-27T11:11:15.000Z</time>
      </trkpt>
      <trkpt lat="49.36477" lon="1.15499">
        <ele>137.2</ele>
        <time>2022-02-27T11:11:08.000Z</time>
      </trkpt>
      <trkpt lat="49.36477" lon="1.15498">
        <ele>136.8</ele>
        <time>2022-02-27T11:11:01.000Z</time>
      </trkpt>
      <trkpt lat="49.36482" lon="1.15488">
        <ele>137.3</ele>
        <time>2022-02-27T11:10:51.000Z</time>
      </trkpt>
      <trkpt lat="49.36489" lon="1.15477">
        <ele>137.3</ele>
        <time>2022-02-27T11:10:45.000Z</time>
      </trkpt>
      <trkpt lat="49.36495" lon="1.15465">
        <ele>137.1</ele>
        <time>2022-02-27T11:10:41.000Z</time>
      </trkpt>
      <trkpt lat="49.36502" lon="1.15454">
        <ele>137.1</ele>
        <time>2022-02-27T11:10:37.000Z</time>
      </trkpt>
      <trkpt lat="49.36507" lon="1.15442">
        <ele>137.6</ele>
        <time>2022-02-27T11:10:33.000Z</time>
      </trkpt>
      <trkpt lat="49.36513" lon="1.15431">
        <ele>137.7</ele>
        <time>2022-02-27T11:10:28.000Z</time>
      </trkpt>
      <trkpt lat="49.3652" lon="1.1542">
        <ele>137.1</ele>
        <time>2022-02-27T11:10:23.000Z</time>
      </trkpt>
      <trkpt lat="49.36524" lon="1.15407">
        <ele>137.5</ele>
        <time>2022-02-27T11:10:17.000Z</time>
      </trkpt>
      <trkpt lat="49.36525" lon="1.15407">
        <ele>137.4</ele>
        <time>2022-02-27T11:10:16.000Z</time>
      </trkpt>
      <trkpt lat="49.36527" lon="1.15401">
        <ele>137.5</ele>
        <time>2022-02-27T11:10:09.000Z</time>
      </trkpt>
      <trkpt lat="49.36527" lon="1.154">
        <ele>137.7</ele>
        <time>2022-02-27T11:10:02.000Z</time>
      </trkpt>
      <trkpt lat="49.36527" lon="1.15401">
        <ele>138.2</ele>
        <time>2022-02-27T11:09:45.000Z</time>
      </trkpt>
      <trkpt lat="49.36524" lon="1.15408">
        <ele>137.3</ele>
        <time>2022-02-27T11:09:33.000Z</time>
      </trkpt>
      <trkpt lat="49.36524" lon="1.15407">
        <ele>137</ele>
        <time>2022-02-27T11:08:39.000Z</time>
      </trkpt>
      <trkpt lat="49.36525" lon="1.15402">
        <ele>136.5</ele>
        <time>2022-02-27T11:08:31.000Z</time>
      </trkpt>
      <trkpt lat="49.3653" lon="1.1539">
        <ele>136.4</ele>
        <time>2022-02-27T11:08:27.000Z</time>
      </trkpt>
      <trkpt lat="49.36534" lon="1.15375">
        <ele>136.1</ele>
        <time>2022-02-27T11:08:23.000Z</time>
      </trkpt>
      <trkpt lat="49.36537" lon="1.15361">
        <ele>136.2</ele>
        <time>2022-02-27T11:08:20.000Z</time>
      </trkpt>
      <trkpt lat="49.3654" lon="1.15345">
        <ele>135.9</ele>
        <time>2022-02-27T11:08:16.000Z</time>
      </trkpt>
      <trkpt lat="49.36543" lon="1.15329">
        <ele>135</ele>
        <time>2022-02-27T11:08:12.000Z</time>
      </trkpt>
      <trkpt lat="49.36546" lon="1.15315">
        <ele>134.8</ele>
        <time>2022-02-27T11:08:08.000Z</time>
      </trkpt>
      <trkpt lat="49.36551" lon="1.15301">
        <ele>134.2</ele>
        <time>2022-02-27T11:08:04.000Z</time>
      </trkpt>
      <trkpt lat="49.36557" lon="1.15289">
        <ele>133.1</ele>
        <time>2022-02-27T11:08:00.000Z</time>
      </trkpt>
      <trkpt lat="49.36564" lon="1.15277">
        <ele>132.6</ele>
        <time>2022-02-27T11:07:57.000Z</time>
      </trkpt>
      <trkpt lat="49.36572" lon="1.15265">
        <ele>130.1</ele>
        <time>2022-02-27T11:07:53.000Z</time>
      </trkpt>
      <trkpt lat="49.3658" lon="1.15256">
        <ele>128</ele>
        <time>2022-02-27T11:07:49.000Z</time>
      </trkpt>
      <trkpt lat="49.36588" lon="1.15244">
        <ele>125.1</ele>
        <time>2022-02-27T11:07:45.000Z</time>
      </trkpt>
      <trkpt lat="49.36593" lon="1.15232">
        <ele>122.9</ele>
        <time>2022-02-27T11:07:41.000Z</time>
      </trkpt>
      <trkpt lat="49.36598" lon="1.15218">
        <ele>119.9</ele>
        <time>2022-02-27T11:07:37.000Z</time>
      </trkpt>
      <trkpt lat="49.36603" lon="1.15204">
        <ele>118.8</ele>
        <time>2022-02-27T11:07:33.000Z</time>
      </trkpt>
      <trkpt lat="49.36608" lon="1.15191">
        <ele>116.9</ele>
        <time>2022-02-27T11:07:28.000Z</time>
      </trkpt>
      <trkpt lat="49.36614" lon="1.15178">
        <ele>115.3</ele>
        <time>2022-02-27T11:07:24.000Z</time>
      </trkpt>
      <trkpt lat="49.36621" lon="1.15165">
        <ele>113.5</ele>
        <time>2022-02-27T11:07:19.000Z</time>
      </trkpt>
      <trkpt lat="49.3663" lon="1.15166">
        <ele>112.6</ele>
        <time>2022-02-27T11:07:11.000Z</time>
      </trkpt>
      <trkpt lat="49.36631" lon="1.15166">
        <ele>112.7</ele>
        <time>2022-02-27T11:07:10.000Z</time>
      </trkpt>
      <trkpt lat="49.36635" lon="1.15167">
        <ele>112.3</ele>
        <time>2022-02-27T11:07:01.000Z</time>
      </trkpt>
      <trkpt lat="49.36635" lon="1.15166">
        <ele>112.5</ele>
        <time>2022-02-27T11:07:00.000Z</time>
      </trkpt>
      <trkpt lat="49.36635" lon="1.15165">
        <ele>112.6</ele>
        <time>2022-02-27T11:06:54.000Z</time>
      </trkpt>
      <trkpt lat="49.36635" lon="1.15167">
        <ele>112.2</ele>
        <time>2022-02-27T11:06:41.000Z</time>
      </trkpt>
      <trkpt lat="49.36634" lon="1.1517">
        <ele>112.5</ele>
        <time>2022-02-27T11:06:23.000Z</time>
      </trkpt>
      <trkpt lat="49.36642" lon="1.15164">
        <ele>113</ele>
        <time>2022-02-27T11:06:12.000Z</time>
      </trkpt>
      <trkpt lat="49.36651" lon="1.15154">
        <ele>112.2</ele>
        <time>2022-02-27T11:06:07.000Z</time>
      </trkpt>
      <trkpt lat="49.36657" lon="1.15142">
        <ele>112.9</ele>
        <time>2022-02-27T11:06:04.000Z</time>
      </trkpt>
      <trkpt lat="49.36661" lon="1.15129">
        <ele>113.7</ele>
        <time>2022-02-27T11:06:02.000Z</time>
      </trkpt>
      <trkpt lat="49.36663" lon="1.15113">
        <ele>114.9</ele>
        <time>2022-02-27T11:06:00.000Z</time>
      </trkpt>
      <trkpt lat="49.36668" lon="1.15097">
        <ele>115.7</ele>
        <time>2022-02-27T11:05:58.000Z</time>
      </trkpt>
      <trkpt lat="49.36675" lon="1.15081">
        <ele>115.8</ele>
        <time>2022-02-27T11:05:56.000Z</time>
      </trkpt>
      <trkpt lat="49.3668" lon="1.15068">
        <ele>116.2</ele>
        <time>2022-02-27T11:05:54.000Z</time>
      </trkpt>
      <trkpt lat="49.36686" lon="1.15055">
        <ele>119.4</ele>
        <time>2022-02-27T11:05:52.000Z</time>
      </trkpt>
      <trkpt lat="49.36695" lon="1.15042">
        <ele>121.5</ele>
        <time>2022-02-27T11:05:50.000Z</time>
      </trkpt>
      <trkpt lat="49.36704" lon="1.15031">
        <ele>122.5</ele>
        <time>2022-02-27T11:05:48.000Z</time>
      </trkpt>
      <trkpt lat="49.36714" lon="1.15017">
        <ele>123.7</ele>
        <time>2022-02-27T11:05:46.000Z</time>
      </trkpt>
      <trkpt lat="49.36722" lon="1.15001">
        <ele>124.3</ele>
        <time>2022-02-27T11:05:44.000Z</time>
      </trkpt>
      <trkpt lat="49.36727" lon="1.14987">
        <ele>127.5</ele>
        <time>2022-02-27T11:05:42.000Z</time>
      </trkpt>
      <trkpt lat="49.36733" lon="1.14973">
        <ele>129.2</ele>
        <time>2022-02-27T11:05:40.000Z</time>
      </trkpt>
      <trkpt lat="49.36739" lon="1.1496">
        <ele>129.6</ele>
        <time>2022-02-27T11:05:38.000Z</time>
      </trkpt>
      <trkpt lat="49.36746" lon="1.14946">
        <ele>130.3</ele>
        <time>2022-02-27T11:05:36.000Z</time>
      </trkpt>
      <trkpt lat="49.36751" lon="1.14935">
        <ele>130.9</ele>
        <time>2022-02-27T11:05:34.000Z</time>
      </trkpt>
      <trkpt lat="49.36757" lon="1.14921">
        <ele>131.3</ele>
        <time>2022-02-27T11:05:31.000Z</time>
      </trkpt>
      <trkpt lat="49.36762" lon="1.14906">
        <ele>132.4</ele>
        <time>2022-02-27T11:05:28.000Z</time>
      </trkpt>
      <trkpt lat="49.36768" lon="1.14892">
        <ele>131.8</ele>
        <time>2022-02-27T11:05:25.000Z</time>
      </trkpt>
      <trkpt lat="49.36771" lon="1.14879">
        <ele>131.9</ele>
        <time>2022-02-27T11:05:22.000Z</time>
      </trkpt>
      <trkpt lat="49.36775" lon="1.14866">
        <ele>131.7</ele>
        <time>2022-02-27T11:05:19.000Z</time>
      </trkpt>
      <trkpt lat="49.36785" lon="1.14859">
        <ele>132</ele>
        <time>2022-02-27T11:05:13.000Z</time>
      </trkpt>
      <trkpt lat="49.36795" lon="1.14863">
        <ele>132.4</ele>
        <time>2022-02-27T11:05:07.000Z</time>
      </trkpt>
      <trkpt lat="49.36803" lon="1.14854">
        <ele>132.6</ele>
        <time>2022-02-27T11:05:04.000Z</time>
      </trkpt>
      <trkpt lat="49.36813" lon="1.14843">
        <ele>132.4</ele>
        <time>2022-02-27T11:05:01.000Z</time>
      </trkpt>
      <trkpt lat="49.36824" lon="1.14834">
        <ele>132.6</ele>
        <time>2022-02-27T11:04:58.000Z</time>
      </trkpt>
      <trkpt lat="49.36834" lon="1.14824">
        <ele>132.3</ele>
        <time>2022-02-27T11:04:55.000Z</time>
      </trkpt>
      <trkpt lat="49.36843" lon="1.14815">
        <ele>132.8</ele>
        <time>2022-02-27T11:04:52.000Z</time>
      </trkpt>
      <trkpt lat="49.36849" lon="1.14804">
        <ele>132.4</ele>
        <time>2022-02-27T11:04:48.000Z</time>
      </trkpt>
      <trkpt lat="49.36857" lon="1.14794">
        <ele>131.7</ele>
        <time>2022-02-27T11:04:42.000Z</time>
      </trkpt>
      <trkpt lat="49.36864" lon="1.14784">
        <ele>131.4</ele>
        <time>2022-02-27T11:04:37.000Z</time>
      </trkpt>
      <trkpt lat="49.36873" lon="1.14775">
        <ele>131.1</ele>
        <time>2022-02-27T11:04:31.000Z</time>
      </trkpt>
      <trkpt lat="49.3688" lon="1.14764">
        <ele>130.7</ele>
        <time>2022-02-27T11:04:25.000Z</time>
      </trkpt>
      <trkpt lat="49.3688" lon="1.14763">
        <ele>130.2</ele>
        <time>2022-02-27T11:04:18.000Z</time>
      </trkpt>
      <trkpt lat="49.36881" lon="1.14761">
        <ele>129.7</ele>
        <time>2022-02-27T11:04:04.000Z</time>
      </trkpt>
      <trkpt lat="49.3689" lon="1.14765">
        <ele>129.8</ele>
        <time>2022-02-27T11:03:58.000Z</time>
      </trkpt>
      <trkpt lat="49.36899" lon="1.14774">
        <ele>129.4</ele>
        <time>2022-02-27T11:03:56.000Z</time>
      </trkpt>
      <trkpt lat="49.3691" lon="1.14783">
        <ele>129.5</ele>
        <time>2022-02-27T11:03:54.000Z</time>
      </trkpt>
      <trkpt lat="49.36922" lon="1.14791">
        <ele>130.6</ele>
        <time>2022-02-27T11:03:52.000Z</time>
      </trkpt>
      <trkpt lat="49.36935" lon="1.14796">
        <ele>131.6</ele>
        <time>2022-02-27T11:03:50.000Z</time>
      </trkpt>
      <trkpt lat="49.36948" lon="1.14797">
        <ele>132</ele>
        <time>2022-02-27T11:03:48.000Z</time>
      </trkpt>
      <trkpt lat="49.36961" lon="1.14796">
        <ele>132.9</ele>
        <time>2022-02-27T11:03:46.000Z</time>
      </trkpt>
      <trkpt lat="49.36975" lon="1.14797">
        <ele>133</ele>
        <time>2022-02-27T11:03:44.000Z</time>
      </trkpt>
      <trkpt lat="49.36988" lon="1.14799">
        <ele>133.2</ele>
        <time>2022-02-27T11:03:42.000Z</time>
      </trkpt>
      <trkpt lat="49.36999" lon="1.14804">
        <ele>133.9</ele>
        <time>2022-02-27T11:03:40.000Z</time>
      </trkpt>
      <trkpt lat="49.3701" lon="1.14809">
        <ele>134.7</ele>
        <time>2022-02-27T11:03:38.000Z</time>
      </trkpt>
      <trkpt lat="49.37021" lon="1.14813">
        <ele>136</ele>
        <time>2022-02-27T11:03:36.000Z</time>
      </trkpt>
      <trkpt lat="49.3703" lon="1.14817">
        <ele>136.8</ele>
        <time>2022-02-27T11:03:34.000Z</time>
      </trkpt>
      <trkpt lat="49.3704" lon="1.14825">
        <ele>137.5</ele>
        <time>2022-02-27T11:03:30.000Z</time>
      </trkpt>
      <trkpt lat="49.37041" lon="1.14841">
        <ele>138</ele>
        <time>2022-02-27T11:03:26.000Z</time>
      </trkpt>
      <trkpt lat="49.3704" lon="1.14861">
        <ele>138.5</ele>
        <time>2022-02-27T11:03:23.000Z</time>
      </trkpt>
      <trkpt lat="49.37039" lon="1.14875">
        <ele>138.2</ele>
        <time>2022-02-27T11:03:21.000Z</time>
      </trkpt>
      <trkpt lat="49.37037" lon="1.1489">
        <ele>138.1</ele>
        <time>2022-02-27T11:03:19.000Z</time>
      </trkpt>
      <trkpt lat="49.37035" lon="1.14905">
        <ele>138.4</ele>
        <time>2022-02-27T11:03:17.000Z</time>
      </trkpt>
      <trkpt lat="49.37031" lon="1.14919">
        <ele>138.7</ele>
        <time>2022-02-27T11:03:15.000Z</time>
      </trkpt>
      <trkpt lat="49.37028" lon="1.14932">
        <ele>138.4</ele>
        <time>2022-02-27T11:03:13.000Z</time>
      </trkpt>
      <trkpt lat="49.37028" lon="1.14947">
        <ele>138.9</ele>
        <time>2022-02-27T11:03:11.000Z</time>
      </trkpt>
      <trkpt lat="49.37031" lon="1.14961">
        <ele>139.3</ele>
        <time>2022-02-27T11:03:09.000Z</time>
      </trkpt>
      <trkpt lat="49.37034" lon="1.14974">
        <ele>139.9</ele>
        <time>2022-02-27T11:03:07.000Z</time>
      </trkpt>
      <trkpt lat="49.37038" lon="1.14987">
        <ele>140.3</ele>
        <time>2022-02-27T11:03:05.000Z</time>
      </trkpt>
      <trkpt lat="49.37043" lon="1.15">
        <ele>140.1</ele>
        <time>2022-02-27T11:03:03.000Z</time>
      </trkpt>
      <trkpt lat="49.37047" lon="1.15014">
        <ele>140.2</ele>
        <time>2022-02-27T11:03:01.000Z</time>
      </trkpt>
      <trkpt lat="49.37052" lon="1.15026">
        <ele>140.3</ele>
        <time>2022-02-27T11:02:59.000Z</time>
      </trkpt>
      <trkpt lat="49.37057" lon="1.15038">
        <ele>140.3</ele>
        <time>2022-02-27T11:02:57.000Z</time>
      </trkpt>
      <trkpt lat="49.37063" lon="1.15048">
        <ele>140.6</ele>
        <time>2022-02-27T11:02:55.000Z</time>
      </trkpt>
      <trkpt lat="49.37071" lon="1.15057">
        <ele>140.6</ele>
        <time>2022-02-27T11:02:53.000Z</time>
      </trkpt>
      <trkpt lat="49.37079" lon="1.15067">
        <ele>140.3</ele>
        <time>2022-02-27T11:02:51.000Z</time>
      </trkpt>
      <trkpt lat="49.37087" lon="1.15076">
        <ele>140.5</ele>
        <time>2022-02-27T11:02:49.000Z</time>
      </trkpt>
      <trkpt lat="49.37095" lon="1.15085">
        <ele>141</ele>
        <time>2022-02-27T11:02:47.000Z</time>
      </trkpt>
      <trkpt lat="49.37103" lon="1.15095">
        <ele>141.3</ele>
        <time>2022-02-27T11:02:45.000Z</time>
      </trkpt>
      <trkpt lat="49.37109" lon="1.15106">
        <ele>141.6</ele>
        <time>2022-02-27T11:02:43.000Z</time>
      </trkpt>
      <trkpt lat="49.37116" lon="1.15117">
        <ele>141.7</ele>
        <time>2022-02-27T11:02:41.000Z</time>
      </trkpt>
      <trkpt lat="49.37123" lon="1.15127">
        <ele>141.5</ele>
        <time>2022-02-27T11:02:39.000Z</time>
      </trkpt>
      <trkpt lat="49.37131" lon="1.15136">
        <ele>142.3</ele>
        <time>2022-02-27T11:02:37.000Z</time>
      </trkpt>
      <trkpt lat="49.37139" lon="1.15145">
        <ele>142.4</ele>
        <time>2022-02-27T11:02:35.000Z</time>
      </trkpt>
      <trkpt lat="49.37147" lon="1.15154">
        <ele>142.1</ele>
        <time>2022-02-27T11:02:33.000Z</time>
      </trkpt>
      <trkpt lat="49.37154" lon="1.15162">
        <ele>142.3</ele>
        <time>2022-02-27T11:02:31.000Z</time>
      </trkpt>
      <trkpt lat="49.37162" lon="1.15169">
        <ele>142.5</ele>
        <time>2022-02-27T11:02:29.000Z</time>
      </trkpt>
      <trkpt lat="49.3717" lon="1.15177">
        <ele>142.4</ele>
        <time>2022-02-27T11:02:27.000Z</time>
      </trkpt>
      <trkpt lat="49.37178" lon="1.15185">
        <ele>142.8</ele>
        <time>2022-02-27T11:02:25.000Z</time>
      </trkpt>
      <trkpt lat="49.37185" lon="1.15194">
        <ele>143.2</ele>
        <time>2022-02-27T11:02:23.000Z</time>
      </trkpt>
      <trkpt lat="49.37193" lon="1.15203">
        <ele>143.6</ele>
        <time>2022-02-27T11:02:21.000Z</time>
      </trkpt>
      <trkpt lat="49.37201" lon="1.15213">
        <ele>143.4</ele>
        <time>2022-02-27T11:02:19.000Z</time>
      </trkpt>
      <trkpt lat="49.37209" lon="1.15223">
        <ele>143.7</ele>
        <time>2022-02-27T11:02:17.000Z</time>
      </trkpt>
      <trkpt lat="49.37217" lon="1.15233">
        <ele>143.9</ele>
        <time>2022-02-27T11:02:15.000Z</time>
      </trkpt>
      <trkpt lat="49.37224" lon="1.15243">
        <ele>144.1</ele>
        <time>2022-02-27T11:02:13.000Z</time>
      </trkpt>
      <trkpt lat="49.37232" lon="1.15251">
        <ele>144.4</ele>
        <time>2022-02-27T11:02:11.000Z</time>
      </trkpt>
      <trkpt lat="49.3724" lon="1.15263">
        <ele>144.5</ele>
        <time>2022-02-27T11:02:08.000Z</time>
      </trkpt>
      <trkpt lat="49.37247" lon="1.15275">
        <ele>145.1</ele>
        <time>2022-02-27T11:02:04.000Z</time>
      </trkpt>
      <trkpt lat="49.37253" lon="1.15289">
        <ele>145.3</ele>
        <time>2022-02-27T11:02:01.000Z</time>
      </trkpt>
      <trkpt lat="49.37254" lon="1.15306">
        <ele>145.5</ele>
        <time>2022-02-27T11:01:58.000Z</time>
      </trkpt>
      <trkpt lat="49.37247" lon="1.1532">
        <ele>145.5</ele>
        <time>2022-02-27T11:01:55.000Z</time>
      </trkpt>
      <trkpt lat="49.37238" lon="1.15331">
        <ele>145.7</ele>
        <time>2022-02-27T11:01:52.000Z</time>
      </trkpt>
      <trkpt lat="49.37228" lon="1.15343">
        <ele>145.4</ele>
        <time>2022-02-27T11:01:49.000Z</time>
      </trkpt>
      <trkpt lat="49.37219" lon="1.15354">
        <ele>144.9</ele>
        <time>2022-02-27T11:01:46.000Z</time>
      </trkpt>
      <trkpt lat="49.3721" lon="1.15365">
        <ele>145.6</ele>
        <time>2022-02-27T11:01:43.000Z</time>
      </trkpt>
      <trkpt lat="49.37201" lon="1.15375">
        <ele>146.1</ele>
        <time>2022-02-27T11:01:40.000Z</time>
      </trkpt>
      <trkpt lat="49.37194" lon="1.15385">
        <ele>146.2</ele>
        <time>2022-02-27T11:01:37.000Z</time>
      </trkpt>
      <trkpt lat="49.37186" lon="1.15395">
        <ele>146.4</ele>
        <time>2022-02-27T11:01:34.000Z</time>
      </trkpt>
      <trkpt lat="49.37177" lon="1.15406">
        <ele>146.5</ele>
        <time>2022-02-27T11:01:31.000Z</time>
      </trkpt>
      <trkpt lat="49.37168" lon="1.15417">
        <ele>146.2</ele>
        <time>2022-02-27T11:01:28.000Z</time>
      </trkpt>
      <trkpt lat="49.37159" lon="1.15427">
        <ele>146.3</ele>
        <time>2022-02-27T11:01:25.000Z</time>
      </trkpt>
      <trkpt lat="49.37152" lon="1.15436">
        <ele>146.2</ele>
        <time>2022-02-27T11:01:22.000Z</time>
      </trkpt>
      <trkpt lat="49.37144" lon="1.15446">
        <ele>146.2</ele>
        <time>2022-02-27T11:01:19.000Z</time>
      </trkpt>
      <trkpt lat="49.37134" lon="1.15457">
        <ele>145.7</ele>
        <time>2022-02-27T11:01:15.000Z</time>
      </trkpt>
      <trkpt lat="49.37125" lon="1.15468">
        <ele>145.2</ele>
        <time>2022-02-27T11:01:11.000Z</time>
      </trkpt>
      <trkpt lat="49.37117" lon="1.15478">
        <ele>145</ele>
        <time>2022-02-27T11:01:07.000Z</time>
      </trkpt>
      <trkpt lat="49.37108" lon="1.15489">
        <ele>145.2</ele>
        <time>2022-02-27T11:01:02.000Z</time>
      </trkpt>
      <trkpt lat="49.371" lon="1.15499">
        <ele>144.6</ele>
        <time>2022-02-27T11:00:57.000Z</time>
      </trkpt>
      <trkpt lat="49.37092" lon="1.15507">
        <ele>144.5</ele>
        <time>2022-02-27T11:00:52.000Z</time>
      </trkpt>
      <trkpt lat="49.37085" lon="1.15516">
        <ele>143.9</ele>
        <time>2022-02-27T11:00:46.000Z</time>
      </trkpt>
      <trkpt lat="49.37076" lon="1.15526">
        <ele>144</ele>
        <time>2022-02-27T11:00:40.000Z</time>
      </trkpt>
      <trkpt lat="49.37068" lon="1.15536">
        <ele>143</ele>
        <time>2022-02-27T11:00:34.000Z</time>
      </trkpt>
      <trkpt lat="49.37061" lon="1.15545">
        <ele>142.8</ele>
        <time>2022-02-27T11:00:28.000Z</time>
      </trkpt>
      <trkpt lat="49.37053" lon="1.15555">
        <ele>142.5</ele>
        <time>2022-02-27T11:00:20.000Z</time>
      </trkpt>
      <trkpt lat="49.37049" lon="1.15567">
        <ele>142.3</ele>
        <time>2022-02-27T11:00:13.000Z</time>
      </trkpt>
      <trkpt lat="49.37058" lon="1.1557">
        <ele>142.2</ele>
        <time>2022-02-27T11:00:10.000Z</time>
      </trkpt>
      <trkpt lat="49.37068" lon="1.1557">
        <ele>143</ele>
        <time>2022-02-27T11:00:07.000Z</time>
      </trkpt>
      <trkpt lat="49.37078" lon="1.1557">
        <ele>143.1</ele>
        <time>2022-02-27T11:00:04.000Z</time>
      </trkpt>
      <trkpt lat="49.37089" lon="1.1557">
        <ele>143.5</ele>
        <time>2022-02-27T11:00:01.000Z</time>
      </trkpt>
      <trkpt lat="49.371" lon="1.1557">
        <ele>143.8</ele>
        <time>2022-02-27T10:59:58.000Z</time>
      </trkpt>
      <trkpt lat="49.37111" lon="1.15571">
        <ele>145.5</ele>
        <time>2022-02-27T10:59:55.000Z</time>
      </trkpt>
      <trkpt lat="49.37122" lon="1.15573">
        <ele>145.2</ele>
        <time>2022-02-27T10:59:52.000Z</time>
      </trkpt>
      <trkpt lat="49.37134" lon="1.15575">
        <ele>145.6</ele>
        <time>2022-02-27T10:59:49.000Z</time>
      </trkpt>
      <trkpt lat="49.37145" lon="1.15577">
        <ele>146</ele>
        <time>2022-02-27T10:59:46.000Z</time>
      </trkpt>
      <trkpt lat="49.37156" lon="1.15581">
        <ele>146.1</ele>
        <time>2022-02-27T10:59:43.000Z</time>
      </trkpt>
      <trkpt lat="49.37167" lon="1.15585">
        <ele>146.4</ele>
        <time>2022-02-27T10:59:40.000Z</time>
      </trkpt>
      <trkpt lat="49.37178" lon="1.15589">
        <ele>146.8</ele>
        <time>2022-02-27T10:59:37.000Z</time>
      </trkpt>
      <trkpt lat="49.37189" lon="1.15594">
        <ele>147.4</ele>
        <time>2022-02-27T10:59:34.000Z</time>
      </trkpt>
      <trkpt lat="49.37201" lon="1.15599">
        <ele>148.3</ele>
        <time>2022-02-27T10:59:31.000Z</time>
      </trkpt>
      <trkpt lat="49.37212" lon="1.15604">
        <ele>149.5</ele>
        <time>2022-02-27T10:59:28.000Z</time>
      </trkpt>
      <trkpt lat="49.37223" lon="1.15609">
        <ele>149.1</ele>
        <time>2022-02-27T10:59:25.000Z</time>
      </trkpt>
      <trkpt lat="49.37233" lon="1.15613">
        <ele>150.2</ele>
        <time>2022-02-27T10:59:22.000Z</time>
      </trkpt>
      <trkpt lat="49.37243" lon="1.1562">
        <ele>150.7</ele>
        <time>2022-02-27T10:59:19.000Z</time>
      </trkpt>
      <trkpt lat="49.37252" lon="1.15627">
        <ele>151</ele>
        <time>2022-02-27T10:59:16.000Z</time>
      </trkpt>
      <trkpt lat="49.37261" lon="1.15636">
        <ele>152.1</ele>
        <time>2022-02-27T10:59:13.000Z</time>
      </trkpt>
      <trkpt lat="49.37271" lon="1.15646">
        <ele>152</ele>
        <time>2022-02-27T10:59:10.000Z</time>
      </trkpt>
      <trkpt lat="49.37279" lon="1.15657">
        <ele>151.7</ele>
        <time>2022-02-27T10:59:07.000Z</time>
      </trkpt>
      <trkpt lat="49.37288" lon="1.15669">
        <ele>152.4</ele>
        <time>2022-02-27T10:59:04.000Z</time>
      </trkpt>
      <trkpt lat="49.37296" lon="1.15683">
        <ele>152.5</ele>
        <time>2022-02-27T10:59:01.000Z</time>
      </trkpt>
      <trkpt lat="49.37303" lon="1.15696">
        <ele>152.2</ele>
        <time>2022-02-27T10:58:58.000Z</time>
      </trkpt>
      <trkpt lat="49.37309" lon="1.15709">
        <ele>152.4</ele>
        <time>2022-02-27T10:58:55.000Z</time>
      </trkpt>
      <trkpt lat="49.37314" lon="1.15722">
        <ele>152.3</ele>
        <time>2022-02-27T10:58:52.000Z</time>
      </trkpt>
      <trkpt lat="49.37318" lon="1.15735">
        <ele>152.1</ele>
        <time>2022-02-27T10:58:49.000Z</time>
      </trkpt>
      <trkpt lat="49.37327" lon="1.15744">
        <ele>152</ele>
        <time>2022-02-27T10:58:45.000Z</time>
      </trkpt>
      <trkpt lat="49.37336" lon="1.15737">
        <ele>152.2</ele>
        <time>2022-02-27T10:58:42.000Z</time>
      </trkpt>
      <trkpt lat="49.37345" lon="1.15731">
        <ele>151.8</ele>
        <time>2022-02-27T10:58:39.000Z</time>
      </trkpt>
      <trkpt lat="49.37355" lon="1.15724">
        <ele>151.6</ele>
        <time>2022-02-27T10:58:36.000Z</time>
      </trkpt>
      <trkpt lat="49.37365" lon="1.15717">
        <ele>151.8</ele>
        <time>2022-02-27T10:58:33.000Z</time>
      </trkpt>
      <trkpt lat="49.37375" lon="1.1571">
        <ele>151.6</ele>
        <time>2022-02-27T10:58:30.000Z</time>
      </trkpt>
      <trkpt lat="49.37385" lon="1.15704">
        <ele>151.5</ele>
        <time>2022-02-27T10:58:27.000Z</time>
      </trkpt>
      <trkpt lat="49.37395" lon="1.15698">
        <ele>151.9</ele>
        <time>2022-02-27T10:58:24.000Z</time>
      </trkpt>
      <trkpt lat="49.37405" lon="1.15692">
        <ele>151.5</ele>
        <time>2022-02-27T10:58:21.000Z</time>
      </trkpt>
      <trkpt lat="49.37414" lon="1.15686">
        <ele>151.5</ele>
        <time>2022-02-27T10:58:18.000Z</time>
      </trkpt>
      <trkpt lat="49.37423" lon="1.1568">
        <ele>150.7</ele>
        <time>2022-02-27T10:58:15.000Z</time>
      </trkpt>
      <trkpt lat="49.37433" lon="1.15674">
        <ele>150.4</ele>
        <time>2022-02-27T10:58:12.000Z</time>
      </trkpt>
      <trkpt lat="49.37443" lon="1.15668">
        <ele>151.3</ele>
        <time>2022-02-27T10:58:09.000Z</time>
      </trkpt>
      <trkpt lat="49.37452" lon="1.15662">
        <ele>151.5</ele>
        <time>2022-02-27T10:58:06.000Z</time>
      </trkpt>
      <trkpt lat="49.3746" lon="1.15657">
        <ele>151.2</ele>
        <time>2022-02-27T10:58:03.000Z</time>
      </trkpt>
      <trkpt lat="49.37472" lon="1.15652">
        <ele>150.7</ele>
        <time>2022-02-27T10:57:59.000Z</time>
      </trkpt>
      <trkpt lat="49.37481" lon="1.15647">
        <ele>151.2</ele>
        <time>2022-02-27T10:57:56.000Z</time>
      </trkpt>
      <trkpt lat="49.3749" lon="1.15643">
        <ele>151</ele>
        <time>2022-02-27T10:57:53.000Z</time>
      </trkpt>
      <trkpt lat="49.375" lon="1.15641">
        <ele>150.8</ele>
        <time>2022-02-27T10:57:50.000Z</time>
      </trkpt>
      <trkpt lat="49.3751" lon="1.1564">
        <ele>150.6</ele>
        <time>2022-02-27T10:57:47.000Z</time>
      </trkpt>
      <trkpt lat="49.3752" lon="1.15641">
        <ele>150.5</ele>
        <time>2022-02-27T10:57:44.000Z</time>
      </trkpt>
      <trkpt lat="49.37529" lon="1.15642">
        <ele>150.6</ele>
        <time>2022-02-27T10:57:41.000Z</time>
      </trkpt>
      <trkpt lat="49.37539" lon="1.15646">
        <ele>150</ele>
        <time>2022-02-27T10:57:38.000Z</time>
      </trkpt>
      <trkpt lat="49.37549" lon="1.15649">
        <ele>149.6</ele>
        <time>2022-02-27T10:57:35.000Z</time>
      </trkpt>
      <trkpt lat="49.37558" lon="1.15652">
        <ele>149.7</ele>
        <time>2022-02-27T10:57:32.000Z</time>
      </trkpt>
      <trkpt lat="49.37568" lon="1.15655">
        <ele>149.7</ele>
        <time>2022-02-27T10:57:29.000Z</time>
      </trkpt>
      <trkpt lat="49.37577" lon="1.15659">
        <ele>149.6</ele>
        <time>2022-02-27T10:57:26.000Z</time>
      </trkpt>
      <trkpt lat="49.37587" lon="1.15662">
        <ele>149.3</ele>
        <time>2022-02-27T10:57:23.000Z</time>
      </trkpt>
      <trkpt lat="49.37596" lon="1.15666">
        <ele>149.1</ele>
        <time>2022-02-27T10:57:20.000Z</time>
      </trkpt>
      <trkpt lat="49.37605" lon="1.1567">
        <ele>148.8</ele>
        <time>2022-02-27T10:57:17.000Z</time>
      </trkpt>
      <trkpt lat="49.37614" lon="1.15674">
        <ele>148.8</ele>
        <time>2022-02-27T10:57:14.000Z</time>
      </trkpt>
      <trkpt lat="49.37623" lon="1.15677">
        <ele>148.6</ele>
        <time>2022-02-27T10:57:11.000Z</time>
      </trkpt>
      <trkpt lat="49.37632" lon="1.15681">
        <ele>148.5</ele>
        <time>2022-02-27T10:57:08.000Z</time>
      </trkpt>
      <trkpt lat="49.37641" lon="1.15684">
        <ele>148.5</ele>
        <time>2022-02-27T10:57:05.000Z</time>
      </trkpt>
      <trkpt lat="49.37652" lon="1.15688">
        <ele>148.2</ele>
        <time>2022-02-27T10:57:01.000Z</time>
      </trkpt>
      <trkpt lat="49.37661" lon="1.15691">
        <ele>147.8</ele>
        <time>2022-02-27T10:56:57.000Z</time>
      </trkpt>
      <trkpt lat="49.3767" lon="1.15693">
        <ele>147.8</ele>
        <time>2022-02-27T10:56:53.000Z</time>
      </trkpt>
      <trkpt lat="49.37682" lon="1.15696">
        <ele>147.5</ele>
        <time>2022-02-27T10:56:49.000Z</time>
      </trkpt>
      <trkpt lat="49.37692" lon="1.157">
        <ele>146.8</ele>
        <time>2022-02-27T10:56:45.000Z</time>
      </trkpt>
      <trkpt lat="49.37703" lon="1.15705">
        <ele>146.3</ele>
        <time>2022-02-27T10:56:41.000Z</time>
      </trkpt>
      <trkpt lat="49.37714" lon="1.15712">
        <ele>145.8</ele>
        <time>2022-02-27T10:56:37.000Z</time>
      </trkpt>
      <trkpt lat="49.37725" lon="1.15718">
        <ele>145.8</ele>
        <time>2022-02-27T10:56:33.000Z</time>
      </trkpt>
      <trkpt lat="49.37736" lon="1.15723">
        <ele>145.2</ele>
        <time>2022-02-27T10:56:29.000Z</time>
      </trkpt>
      <trkpt lat="49.37747" lon="1.15727">
        <ele>144.6</ele>
        <time>2022-02-27T10:56:25.000Z</time>
      </trkpt>
      <trkpt lat="49.37756" lon="1.15729">
        <ele>144.8</ele>
        <time>2022-02-27T10:56:22.000Z</time>
      </trkpt>
      <trkpt lat="49.37768" lon="1.15731">
        <ele>143.8</ele>
        <time>2022-02-27T10:56:18.000Z</time>
      </trkpt>
      <trkpt lat="49.37779" lon="1.15732">
        <ele>143</ele>
        <time>2022-02-27T10:56:14.000Z</time>
      </trkpt>
      <trkpt lat="49.3779" lon="1.15731">
        <ele>142.5</ele>
        <time>2022-02-27T10:56:10.000Z</time>
      </trkpt>
      <trkpt lat="49.378" lon="1.15728">
        <ele>141.7</ele>
        <time>2022-02-27T10:56:07.000Z</time>
      </trkpt>
      <trkpt lat="49.37809" lon="1.15726">
        <ele>141.5</ele>
        <time>2022-02-27T10:56:04.000Z</time>
      </trkpt>
      <trkpt lat="49.37819" lon="1.15722">
        <ele>141.2</ele>
        <time>2022-02-27T10:56:00.000Z</time>
      </trkpt>
      <trkpt lat="49.3783" lon="1.15719">
        <ele>141</ele>
        <time>2022-02-27T10:55:55.000Z</time>
      </trkpt>
      <trkpt lat="49.37839" lon="1.15727">
        <ele>141.8</ele>
        <time>2022-02-27T10:55:50.000Z</time>
      </trkpt>
      <trkpt lat="49.37845" lon="1.15739">
        <ele>142.2</ele>
        <time>2022-02-27T10:55:47.000Z</time>
      </trkpt>
      <trkpt lat="49.37851" lon="1.15752">
        <ele>142.9</ele>
        <time>2022-02-27T10:55:44.000Z</time>
      </trkpt>
      <trkpt lat="49.37859" lon="1.15766">
        <ele>143.4</ele>
        <time>2022-02-27T10:55:40.000Z</time>
      </trkpt>
      <trkpt lat="49.37866" lon="1.15777">
        <ele>143.5</ele>
        <time>2022-02-27T10:55:28.000Z</time>
      </trkpt>
      <trkpt lat="49.37867" lon="1.15776">
        <ele>143.6</ele>
        <time>2022-02-27T10:55:12.000Z</time>
      </trkpt>
      <trkpt lat="49.37868" lon="1.15776">
        <ele>142.6</ele>
        <time>2022-02-27T10:54:09.000Z</time>
      </trkpt>
      <trkpt lat="49.37868" lon="1.15777">
        <ele>141.7</ele>
        <time>2022-02-27T10:53:45.000Z</time>
      </trkpt>
      <trkpt lat="49.37865" lon="1.15777">
        <ele>142</ele>
        <time>2022-02-27T10:53:39.000Z</time>
      </trkpt>
      <trkpt lat="49.37864" lon="1.15777">
        <ele>141.9</ele>
        <time>2022-02-27T10:53:32.000Z</time>
      </trkpt>
      <trkpt lat="49.37861" lon="1.1577">
        <ele>141.2</ele>
        <time>2022-02-27T10:53:23.000Z</time>
      </trkpt>
      <trkpt lat="49.37868" lon="1.15776">
        <ele>141.5</ele>
        <time>2022-02-27T10:53:09.000Z</time>
      </trkpt>
      <trkpt lat="49.37869" lon="1.15791">
        <ele>141.5</ele>
        <time>2022-02-27T10:53:03.000Z</time>
      </trkpt>
      <trkpt lat="49.37863" lon="1.15805">
        <ele>141.5</ele>
        <time>2022-02-27T10:52:58.000Z</time>
      </trkpt>
      <trkpt lat="49.37857" lon="1.1582">
        <ele>141.4</ele>
        <time>2022-02-27T10:52:54.000Z</time>
      </trkpt>
      <trkpt lat="49.37853" lon="1.15832">
        <ele>141.6</ele>
        <time>2022-02-27T10:52:51.000Z</time>
      </trkpt>
      <trkpt lat="49.37846" lon="1.15846">
        <ele>141.6</ele>
        <time>2022-02-27T10:52:47.000Z</time>
      </trkpt>
      <trkpt lat="49.37839" lon="1.15858">
        <ele>141.5</ele>
        <time>2022-02-27T10:52:43.000Z</time>
      </trkpt>
      <trkpt lat="49.37835" lon="1.15871">
        <ele>141.9</ele>
        <time>2022-02-27T10:52:39.000Z</time>
      </trkpt>
      <trkpt lat="49.3783" lon="1.15886">
        <ele>142.3</ele>
        <time>2022-02-27T10:52:36.000Z</time>
      </trkpt>
      <trkpt lat="49.37824" lon="1.15903">
        <ele>142.8</ele>
        <time>2022-02-27T10:52:33.000Z</time>
      </trkpt>
      <trkpt lat="49.37819" lon="1.15921">
        <ele>143.3</ele>
        <time>2022-02-27T10:52:30.000Z</time>
      </trkpt>
      <trkpt lat="49.37815" lon="1.1594">
        <ele>144.1</ele>
        <time>2022-02-27T10:52:27.000Z</time>
      </trkpt>
      <trkpt lat="49.37813" lon="1.15954">
        <ele>144.7</ele>
        <time>2022-02-27T10:52:25.000Z</time>
      </trkpt>
      <trkpt lat="49.37811" lon="1.15968">
        <ele>145.1</ele>
        <time>2022-02-27T10:52:23.000Z</time>
      </trkpt>
      <trkpt lat="49.3781" lon="1.15982">
        <ele>145</ele>
        <time>2022-02-27T10:52:21.000Z</time>
      </trkpt>
      <trkpt lat="49.37808" lon="1.16001">
        <ele>145.4</ele>
        <time>2022-02-27T10:52:18.000Z</time>
      </trkpt>
      <trkpt lat="49.37808" lon="1.16018">
        <ele>145.8</ele>
        <time>2022-02-27T10:52:13.000Z</time>
      </trkpt>
      <trkpt lat="49.37807" lon="1.16019">
        <ele>146</ele>
        <time>2022-02-27T10:51:56.000Z</time>
      </trkpt>
      <trkpt lat="49.37808" lon="1.16019">
        <ele>146.1</ele>
        <time>2022-02-27T10:51:39.000Z</time>
      </trkpt>
      <trkpt lat="49.37805" lon="1.16034">
        <ele>146.1</ele>
        <time>2022-02-27T10:51:31.000Z</time>
      </trkpt>
      <trkpt lat="49.37813" lon="1.16044">
        <ele>147.2</ele>
        <time>2022-02-27T10:51:23.000Z</time>
      </trkpt>
      <trkpt lat="49.3782" lon="1.16035">
        <ele>147.5</ele>
        <time>2022-02-27T10:51:19.000Z</time>
      </trkpt>
      <trkpt lat="49.37828" lon="1.16025">
        <ele>147</ele>
        <time>2022-02-27T10:51:16.000Z</time>
      </trkpt>
      <trkpt lat="49.37835" lon="1.16016">
        <ele>147.3</ele>
        <time>2022-02-27T10:51:13.000Z</time>
      </trkpt>
      <trkpt lat="49.37842" lon="1.16008">
        <ele>146.9</ele>
        <time>2022-02-27T10:51:10.000Z</time>
      </trkpt>
      <trkpt lat="49.3785" lon="1.15999">
        <ele>146.8</ele>
        <time>2022-02-27T10:51:07.000Z</time>
      </trkpt>
      <trkpt lat="49.37858" lon="1.1599">
        <ele>146.9</ele>
        <time>2022-02-27T10:51:04.000Z</time>
      </trkpt>
      <trkpt lat="49.37866" lon="1.1598">
        <ele>145.8</ele>
        <time>2022-02-27T10:51:01.000Z</time>
      </trkpt>
      <trkpt lat="49.37875" lon="1.1597">
        <ele>146.1</ele>
        <time>2022-02-27T10:50:58.000Z</time>
      </trkpt>
      <trkpt lat="49.37883" lon="1.1596">
        <ele>146.5</ele>
        <time>2022-02-27T10:50:55.000Z</time>
      </trkpt>
      <trkpt lat="49.37892" lon="1.15948">
        <ele>146.4</ele>
        <time>2022-02-27T10:50:51.000Z</time>
      </trkpt>
      <trkpt lat="49.379" lon="1.15938">
        <ele>145.4</ele>
        <time>2022-02-27T10:50:47.000Z</time>
      </trkpt>
      <trkpt lat="49.37907" lon="1.1593">
        <ele>145.2</ele>
        <time>2022-02-27T10:50:44.000Z</time>
      </trkpt>
      <trkpt lat="49.37915" lon="1.1592">
        <ele>145.6</ele>
        <time>2022-02-27T10:50:41.000Z</time>
      </trkpt>
      <trkpt lat="49.37924" lon="1.15909">
        <ele>145.9</ele>
        <time>2022-02-27T10:50:37.000Z</time>
      </trkpt>
      <trkpt lat="49.37931" lon="1.159">
        <ele>146.4</ele>
        <time>2022-02-27T10:50:34.000Z</time>
      </trkpt>
      <trkpt lat="49.37937" lon="1.15889">
        <ele>146.4</ele>
        <time>2022-02-27T10:50:31.000Z</time>
      </trkpt>
      <trkpt lat="49.37943" lon="1.15879">
        <ele>146.9</ele>
        <time>2022-02-27T10:50:28.000Z</time>
      </trkpt>
      <trkpt lat="49.3795" lon="1.15869">
        <ele>147.6</ele>
        <time>2022-02-27T10:50:25.000Z</time>
      </trkpt>
      <trkpt lat="49.37958" lon="1.15858">
        <ele>147.6</ele>
        <time>2022-02-27T10:50:22.000Z</time>
      </trkpt>
      <trkpt lat="49.37967" lon="1.15847">
        <ele>147.3</ele>
        <time>2022-02-27T10:50:19.000Z</time>
      </trkpt>
      <trkpt lat="49.37976" lon="1.15836">
        <ele>147.5</ele>
        <time>2022-02-27T10:50:16.000Z</time>
      </trkpt>
      <trkpt lat="49.37984" lon="1.15825">
        <ele>146.9</ele>
        <time>2022-02-27T10:50:13.000Z</time>
      </trkpt>
      <trkpt lat="49.37992" lon="1.15813">
        <ele>146.3</ele>
        <time>2022-02-27T10:50:10.000Z</time>
      </trkpt>
      <trkpt lat="49.38" lon="1.15801">
        <ele>147</ele>
        <time>2022-02-27T10:50:07.000Z</time>
      </trkpt>
      <trkpt lat="49.38008" lon="1.15791">
        <ele>148.8</ele>
        <time>2022-02-27T10:50:04.000Z</time>
      </trkpt>
      <trkpt lat="49.38018" lon="1.15783">
        <ele>148.2</ele>
        <time>2022-02-27T10:50:01.000Z</time>
      </trkpt>
      <trkpt lat="49.38027" lon="1.1578">
        <ele>147.9</ele>
        <time>2022-02-27T10:49:58.000Z</time>
      </trkpt>
      <trkpt lat="49.38036" lon="1.15778">
        <ele>148.1</ele>
        <time>2022-02-27T10:49:55.000Z</time>
      </trkpt>
      <trkpt lat="49.38047" lon="1.15777">
        <ele>147.7</ele>
        <time>2022-02-27T10:49:51.000Z</time>
      </trkpt>
      <trkpt lat="49.38056" lon="1.15775">
        <ele>147.7</ele>
        <time>2022-02-27T10:49:48.000Z</time>
      </trkpt>
      <trkpt lat="49.38068" lon="1.15774">
        <ele>148.8</ele>
        <time>2022-02-27T10:49:45.000Z</time>
      </trkpt>
      <trkpt lat="49.38079" lon="1.15773">
        <ele>148.1</ele>
        <time>2022-02-27T10:49:42.000Z</time>
      </trkpt>
      <trkpt lat="49.3809" lon="1.15772">
        <ele>148</ele>
        <time>2022-02-27T10:49:39.000Z</time>
      </trkpt>
      <trkpt lat="49.38101" lon="1.15771">
        <ele>148.6</ele>
        <time>2022-02-27T10:49:36.000Z</time>
      </trkpt>
      <trkpt lat="49.38112" lon="1.1577">
        <ele>148.5</ele>
        <time>2022-02-27T10:49:33.000Z</time>
      </trkpt>
      <trkpt lat="49.38122" lon="1.15769">
        <ele>148.8</ele>
        <time>2022-02-27T10:49:30.000Z</time>
      </trkpt>
      <trkpt lat="49.38132" lon="1.15769">
        <ele>148.2</ele>
        <time>2022-02-27T10:49:27.000Z</time>
      </trkpt>
      <trkpt lat="49.38143" lon="1.15768">
        <ele>148.4</ele>
        <time>2022-02-27T10:49:24.000Z</time>
      </trkpt>
      <trkpt lat="49.38153" lon="1.15767">
        <ele>149.4</ele>
        <time>2022-02-27T10:49:21.000Z</time>
      </trkpt>
      <trkpt lat="49.38162" lon="1.15767">
        <ele>149.5</ele>
        <time>2022-02-27T10:49:18.000Z</time>
      </trkpt>
      <trkpt lat="49.38173" lon="1.15771">
        <ele>149.2</ele>
        <time>2022-02-27T10:49:14.000Z</time>
      </trkpt>
      <trkpt lat="49.38182" lon="1.15773">
        <ele>149.4</ele>
        <time>2022-02-27T10:49:11.000Z</time>
      </trkpt>
      <trkpt lat="49.38191" lon="1.15774">
        <ele>149</ele>
        <time>2022-02-27T10:49:08.000Z</time>
      </trkpt>
      <trkpt lat="49.38201" lon="1.15776">
        <ele>149.2</ele>
        <time>2022-02-27T10:49:05.000Z</time>
      </trkpt>
      <trkpt lat="49.38212" lon="1.15777">
        <ele>149.3</ele>
        <time>2022-02-27T10:49:01.000Z</time>
      </trkpt>
      <trkpt lat="49.38221" lon="1.15777">
        <ele>149.1</ele>
        <time>2022-02-27T10:48:58.000Z</time>
      </trkpt>
      <trkpt lat="49.38231" lon="1.15777">
        <ele>148.7</ele>
        <time>2022-02-27T10:48:55.000Z</time>
      </trkpt>
      <trkpt lat="49.38241" lon="1.15777">
        <ele>149.1</ele>
        <time>2022-02-27T10:48:52.000Z</time>
      </trkpt>
      <trkpt lat="49.3825" lon="1.15776">
        <ele>148.8</ele>
        <time>2022-02-27T10:48:49.000Z</time>
      </trkpt>
      <trkpt lat="49.38259" lon="1.15776">
        <ele>148.8</ele>
        <time>2022-02-27T10:48:46.000Z</time>
      </trkpt>
      <trkpt lat="49.38271" lon="1.15774">
        <ele>148.6</ele>
        <time>2022-02-27T10:48:42.000Z</time>
      </trkpt>
      <trkpt lat="49.38282" lon="1.15773">
        <ele>148.8</ele>
        <time>2022-02-27T10:48:38.000Z</time>
      </trkpt>
      <trkpt lat="49.38292" lon="1.1577">
        <ele>148.8</ele>
        <time>2022-02-27T10:48:34.000Z</time>
      </trkpt>
      <trkpt lat="49.38301" lon="1.15769">
        <ele>148.8</ele>
        <time>2022-02-27T10:48:30.000Z</time>
      </trkpt>
      <trkpt lat="49.38311" lon="1.15765">
        <ele>148.8</ele>
        <time>2022-02-27T10:48:26.000Z</time>
      </trkpt>
      <trkpt lat="49.3832" lon="1.15762">
        <ele>148.1</ele>
        <time>2022-02-27T10:48:22.000Z</time>
      </trkpt>
      <trkpt lat="49.3833" lon="1.1576">
        <ele>148.5</ele>
        <time>2022-02-27T10:48:17.000Z</time>
      </trkpt>
      <trkpt lat="49.38341" lon="1.15762">
        <ele>149.5</ele>
        <time>2022-02-27T10:48:12.000Z</time>
      </trkpt>
      <trkpt lat="49.3835" lon="1.15765">
        <ele>150</ele>
        <time>2022-02-27T10:48:08.000Z</time>
      </trkpt>
      <trkpt lat="49.3836" lon="1.15767">
        <ele>149.8</ele>
        <time>2022-02-27T10:48:04.000Z</time>
      </trkpt>
      <trkpt lat="49.38371" lon="1.1577">
        <ele>150.1</ele>
        <time>2022-02-27T10:48:00.000Z</time>
      </trkpt>
      <trkpt lat="49.38381" lon="1.15773">
        <ele>149.7</ele>
        <time>2022-02-27T10:47:56.000Z</time>
      </trkpt>
      <trkpt lat="49.38392" lon="1.15775">
        <ele>149.7</ele>
        <time>2022-02-27T10:47:52.000Z</time>
      </trkpt>
      <trkpt lat="49.38402" lon="1.15777">
        <ele>149.7</ele>
        <time>2022-02-27T10:47:48.000Z</time>
      </trkpt>
      <trkpt lat="49.38412" lon="1.1578">
        <ele>150.3</ele>
        <time>2022-02-27T10:47:44.000Z</time>
      </trkpt>
      <trkpt lat="49.38422" lon="1.15782">
        <ele>149.7</ele>
        <time>2022-02-27T10:47:40.000Z</time>
      </trkpt>
      <trkpt lat="49.38431" lon="1.15785">
        <ele>149.7</ele>
        <time>2022-02-27T10:47:36.000Z</time>
      </trkpt>
      <trkpt lat="49.38441" lon="1.15787">
        <ele>149.4</ele>
        <time>2022-02-27T10:47:32.000Z</time>
      </trkpt>
      <trkpt lat="49.38451" lon="1.1579">
        <ele>149.5</ele>
        <time>2022-02-27T10:47:28.000Z</time>
      </trkpt>
      <trkpt lat="49.38462" lon="1.15792">
        <ele>148.5</ele>
        <time>2022-02-27T10:47:24.000Z</time>
      </trkpt>
      <trkpt lat="49.38471" lon="1.15794">
        <ele>148.4</ele>
        <time>2022-02-27T10:47:18.000Z</time>
      </trkpt>
      <trkpt lat="49.38481" lon="1.15798">
        <ele>147.5</ele>
        <time>2022-02-27T10:47:13.000Z</time>
      </trkpt>
      <trkpt lat="49.38491" lon="1.15801">
        <ele>148.3</ele>
        <time>2022-02-27T10:47:09.000Z</time>
      </trkpt>
      <trkpt lat="49.38501" lon="1.15805">
        <ele>148</ele>
        <time>2022-02-27T10:47:05.000Z</time>
      </trkpt>
      <trkpt lat="49.38511" lon="1.15809">
        <ele>147.3</ele>
        <time>2022-02-27T10:47:01.000Z</time>
      </trkpt>
      <trkpt lat="49.38521" lon="1.15814">
        <ele>146.7</ele>
        <time>2022-02-27T10:46:57.000Z</time>
      </trkpt>
      <trkpt lat="49.38532" lon="1.15818">
        <ele>146.1</ele>
        <time>2022-02-27T10:46:53.000Z</time>
      </trkpt>
      <trkpt lat="49.38542" lon="1.15822">
        <ele>146</ele>
        <time>2022-02-27T10:46:49.000Z</time>
      </trkpt>
      <trkpt lat="49.38552" lon="1.15827">
        <ele>145.6</ele>
        <time>2022-02-27T10:46:45.000Z</time>
      </trkpt>
      <trkpt lat="49.38562" lon="1.15831">
        <ele>145.1</ele>
        <time>2022-02-27T10:46:41.000Z</time>
      </trkpt>
      <trkpt lat="49.38572" lon="1.15836">
        <ele>144.8</ele>
        <time>2022-02-27T10:46:36.000Z</time>
      </trkpt>
      <trkpt lat="49.38583" lon="1.1584">
        <ele>144.7</ele>
        <time>2022-02-27T10:46:31.000Z</time>
      </trkpt>
      <trkpt lat="49.38592" lon="1.15844">
        <ele>143.9</ele>
        <time>2022-02-27T10:46:27.000Z</time>
      </trkpt>
      <trkpt lat="49.38603" lon="1.15848">
        <ele>143.1</ele>
        <time>2022-02-27T10:46:22.000Z</time>
      </trkpt>
      <trkpt lat="49.38613" lon="1.1585">
        <ele>142.7</ele>
        <time>2022-02-27T10:46:17.000Z</time>
      </trkpt>
      <trkpt lat="49.38623" lon="1.15851">
        <ele>142.7</ele>
        <time>2022-02-27T10:46:09.000Z</time>
      </trkpt>
      <trkpt lat="49.38624" lon="1.15851">
        <ele>142.9</ele>
        <time>2022-02-27T10:46:07.000Z</time>
      </trkpt>
      <trkpt lat="49.38629" lon="1.15852">
        <ele>141.4</ele>
        <time>2022-02-27T10:45:56.000Z</time>
      </trkpt>
      <trkpt lat="49.38631" lon="1.15852">
        <ele>140.7</ele>
        <time>2022-02-27T10:45:49.000Z</time>
      </trkpt>
      <trkpt lat="49.38632" lon="1.15853">
        <ele>140.6</ele>
        <time>2022-02-27T10:45:27.000Z</time>
      </trkpt>
      <trkpt lat="49.3864" lon="1.15855">
        <ele>139</ele>
        <time>2022-02-27T10:44:35.000Z</time>
      </trkpt>
      <trkpt lat="49.38649" lon="1.15858">
        <ele>137.3</ele>
        <time>2022-02-27T10:44:24.000Z</time>
      </trkpt>
      <trkpt lat="49.38656" lon="1.15849">
        <ele>136.3</ele>
        <time>2022-02-27T10:44:13.000Z</time>
      </trkpt>
      <trkpt lat="49.38661" lon="1.15838">
        <ele>135.3</ele>
        <time>2022-02-27T10:44:01.000Z</time>
      </trkpt>
      <trkpt lat="49.38661" lon="1.15837">
        <ele>135.3</ele>
        <time>2022-02-27T10:43:59.000Z</time>
      </trkpt>
      <trkpt lat="49.3866" lon="1.15838">
        <ele>135.3</ele>
        <time>2022-02-27T10:43:14.000Z</time>
      </trkpt>
      <trkpt lat="49.38661" lon="1.15838">
        <ele>135.6</ele>
        <time>2022-02-27T10:42:51.000Z</time>
      </trkpt>
      <trkpt lat="49.38657" lon="1.15847">
        <ele>136.1</ele>
        <time>2022-02-27T10:42:15.000Z</time>
      </trkpt>
      <trkpt lat="49.38651" lon="1.15859">
        <ele>136.4</ele>
        <time>2022-02-27T10:42:09.000Z</time>
      </trkpt>
      <trkpt lat="49.38651" lon="1.1586">
        <ele>137</ele>
        <time>2022-02-27T10:41:46.000Z</time>
      </trkpt>
      <trkpt lat="49.38655" lon="1.15857">
        <ele>135.3</ele>
        <time>2022-02-27T10:41:11.000Z</time>
      </trkpt>
      <trkpt lat="49.38664" lon="1.1585">
        <ele>132.7</ele>
        <time>2022-02-27T10:41:05.000Z</time>
      </trkpt>
      <trkpt lat="49.38673" lon="1.15846">
        <ele>129.7</ele>
        <time>2022-02-27T10:40:59.000Z</time>
      </trkpt>
      <trkpt lat="49.38681" lon="1.15854">
        <ele>126.9</ele>
        <time>2022-02-27T10:40:54.000Z</time>
      </trkpt>
      <trkpt lat="49.38687" lon="1.15868">
        <ele>125</ele>
        <time>2022-02-27T10:40:48.000Z</time>
      </trkpt>
      <trkpt lat="49.38692" lon="1.15882">
        <ele>122.8</ele>
        <time>2022-02-27T10:40:43.000Z</time>
      </trkpt>
      <trkpt lat="49.38699" lon="1.15893">
        <ele>120.4</ele>
        <time>2022-02-27T10:40:37.000Z</time>
      </trkpt>
      <trkpt lat="49.38707" lon="1.15903">
        <ele>118.4</ele>
        <time>2022-02-27T10:40:32.000Z</time>
      </trkpt>
      <trkpt lat="49.38715" lon="1.15915">
        <ele>116</ele>
        <time>2022-02-27T10:40:27.000Z</time>
      </trkpt>
      <trkpt lat="49.38721" lon="1.15927">
        <ele>114.3</ele>
        <time>2022-02-27T10:40:22.000Z</time>
      </trkpt>
      <trkpt lat="49.38729" lon="1.15936">
        <ele>112.3</ele>
        <time>2022-02-27T10:40:17.000Z</time>
      </trkpt>
      <trkpt lat="49.38737" lon="1.15946">
        <ele>110.2</ele>
        <time>2022-02-27T10:40:12.000Z</time>
      </trkpt>
      <trkpt lat="49.38744" lon="1.15955">
        <ele>108.9</ele>
        <time>2022-02-27T10:40:08.000Z</time>
      </trkpt>
      <trkpt lat="49.38752" lon="1.15961">
        <ele>106.9</ele>
        <time>2022-02-27T10:40:04.000Z</time>
      </trkpt>
      <trkpt lat="49.3876" lon="1.15968">
        <ele>104.8</ele>
        <time>2022-02-27T10:39:58.000Z</time>
      </trkpt>
      <trkpt lat="49.3876" lon="1.15969">
        <ele>104.1</ele>
        <time>2022-02-27T10:39:55.000Z</time>
      </trkpt>
      <trkpt lat="49.38764" lon="1.15974">
        <ele>102.5</ele>
        <time>2022-02-27T10:39:49.000Z</time>
      </trkpt>
      <trkpt lat="49.38773" lon="1.15982">
        <ele>100.2</ele>
        <time>2022-02-27T10:39:44.000Z</time>
      </trkpt>
      <trkpt lat="49.38782" lon="1.1599">
        <ele>97.3</ele>
        <time>2022-02-27T10:39:39.000Z</time>
      </trkpt>
      <trkpt lat="49.3879" lon="1.16001">
        <ele>94.9</ele>
        <time>2022-02-27T10:39:34.000Z</time>
      </trkpt>
      <trkpt lat="49.38797" lon="1.16012">
        <ele>93</ele>
        <time>2022-02-27T10:39:29.000Z</time>
      </trkpt>
      <trkpt lat="49.38806" lon="1.16017">
        <ele>90.9</ele>
        <time>2022-02-27T10:39:24.000Z</time>
      </trkpt>
      <trkpt lat="49.38815" lon="1.16024">
        <ele>88.6</ele>
        <time>2022-02-27T10:39:19.000Z</time>
      </trkpt>
      <trkpt lat="49.38825" lon="1.16032">
        <ele>86.7</ele>
        <time>2022-02-27T10:39:14.000Z</time>
      </trkpt>
      <trkpt lat="49.38835" lon="1.16036">
        <ele>84.2</ele>
        <time>2022-02-27T10:39:09.000Z</time>
      </trkpt>
      <trkpt lat="49.38844" lon="1.16036">
        <ele>83.4</ele>
        <time>2022-02-27T10:39:03.000Z</time>
      </trkpt>
      <trkpt lat="49.38845" lon="1.16037">
        <ele>83.5</ele>
        <time>2022-02-27T10:38:58.000Z</time>
      </trkpt>
      <trkpt lat="49.38847" lon="1.16049">
        <ele>84</ele>
        <time>2022-02-27T10:38:51.000Z</time>
      </trkpt>
      <trkpt lat="49.38851" lon="1.16065">
        <ele>84.6</ele>
        <time>2022-02-27T10:38:47.000Z</time>
      </trkpt>
      <trkpt lat="49.38854" lon="1.16082">
        <ele>84.5</ele>
        <time>2022-02-27T10:38:43.000Z</time>
      </trkpt>
      <trkpt lat="49.38858" lon="1.16095">
        <ele>84.3</ele>
        <time>2022-02-27T10:38:41.000Z</time>
      </trkpt>
      <trkpt lat="49.38862" lon="1.1611">
        <ele>84.1</ele>
        <time>2022-02-27T10:38:39.000Z</time>
      </trkpt>
      <trkpt lat="49.38868" lon="1.16124">
        <ele>85.3</ele>
        <time>2022-02-27T10:38:37.000Z</time>
      </trkpt>
      <trkpt lat="49.38875" lon="1.16136">
        <ele>88.6</ele>
        <time>2022-02-27T10:38:35.000Z</time>
      </trkpt>
      <trkpt lat="49.38884" lon="1.16144">
        <ele>89.3</ele>
        <time>2022-02-27T10:38:33.000Z</time>
      </trkpt>
      <trkpt lat="49.38896" lon="1.16154">
        <ele>88.4</ele>
        <time>2022-02-27T10:38:30.000Z</time>
      </trkpt>
      <trkpt lat="49.38905" lon="1.16163">
        <ele>89.1</ele>
        <time>2022-02-27T10:38:27.000Z</time>
      </trkpt>
      <trkpt lat="49.38914" lon="1.16174">
        <ele>88.7</ele>
        <time>2022-02-27T10:38:23.000Z</time>
      </trkpt>
      <trkpt lat="49.38921" lon="1.16185">
        <ele>89</ele>
        <time>2022-02-27T10:38:20.000Z</time>
      </trkpt>
      <trkpt lat="49.38931" lon="1.16196">
        <ele>89.6</ele>
        <time>2022-02-27T10:38:17.000Z</time>
      </trkpt>
      <trkpt lat="49.38938" lon="1.16207">
        <ele>91</ele>
        <time>2022-02-27T10:38:15.000Z</time>
      </trkpt>
      <trkpt lat="49.38944" lon="1.16218">
        <ele>91</ele>
        <time>2022-02-27T10:38:13.000Z</time>
      </trkpt>
      <trkpt lat="49.3895" lon="1.16229">
        <ele>90.7</ele>
        <time>2022-02-27T10:38:11.000Z</time>
      </trkpt>
      <trkpt lat="49.38956" lon="1.1624">
        <ele>91.3</ele>
        <time>2022-02-27T10:38:09.000Z</time>
      </trkpt>
      <trkpt lat="49.38962" lon="1.16251">
        <ele>92.6</ele>
        <time>2022-02-27T10:38:07.000Z</time>
      </trkpt>
      <trkpt lat="49.38967" lon="1.16262">
        <ele>91.7</ele>
        <time>2022-02-27T10:38:05.000Z</time>
      </trkpt>
      <trkpt lat="49.38975" lon="1.16276">
        <ele>91.2</ele>
        <time>2022-02-27T10:38:02.000Z</time>
      </trkpt>
      <trkpt lat="49.38985" lon="1.16288">
        <ele>91.9</ele>
        <time>2022-02-27T10:37:59.000Z</time>
      </trkpt>
      <trkpt lat="49.38994" lon="1.163">
        <ele>92.5</ele>
        <time>2022-02-27T10:37:56.000Z</time>
      </trkpt>
      <trkpt lat="49.39003" lon="1.16309">
        <ele>93.1</ele>
        <time>2022-02-27T10:37:53.000Z</time>
      </trkpt>
      <trkpt lat="49.39013" lon="1.16318">
        <ele>93.5</ele>
        <time>2022-02-27T10:37:49.000Z</time>
      </trkpt>
      <trkpt lat="49.39024" lon="1.16321">
        <ele>95.1</ele>
        <time>2022-02-27T10:37:42.000Z</time>
      </trkpt>
      <trkpt lat="49.39025" lon="1.1632">
        <ele>94.3</ele>
        <time>2022-02-27T10:37:16.000Z</time>
      </trkpt>
      <trkpt lat="49.39024" lon="1.1632">
        <ele>94.2</ele>
        <time>2022-02-27T10:37:15.000Z</time>
      </trkpt>
      <trkpt lat="49.39023" lon="1.16321">
        <ele>94.1</ele>
        <time>2022-02-27T10:36:45.000Z</time>
      </trkpt>
      <trkpt lat="49.39024" lon="1.16321">
        <ele>94.1</ele>
        <time>2022-02-27T10:36:43.000Z</time>
      </trkpt>
      <trkpt lat="49.39023" lon="1.16322">
        <ele>94.3</ele>
        <time>2022-02-27T10:36:38.000Z</time>
      </trkpt>
      <trkpt lat="49.39027" lon="1.16312">
        <ele>95.1</ele>
        <time>2022-02-27T10:36:08.000Z</time>
      </trkpt>
      <trkpt lat="49.39022" lon="1.163">
        <ele>96.7</ele>
        <time>2022-02-27T10:36:05.000Z</time>
      </trkpt>
      <trkpt lat="49.39015" lon="1.16283">
        <ele>98.2</ele>
        <time>2022-02-27T10:36:02.000Z</time>
      </trkpt>
      <trkpt lat="49.3901" lon="1.1627">
        <ele>97.8</ele>
        <time>2022-02-27T10:36:00.000Z</time>
      </trkpt>
      <trkpt lat="49.39004" lon="1.16254">
        <ele>98.9</ele>
        <time>2022-02-27T10:35:58.000Z</time>
      </trkpt>
      <trkpt lat="49.38998" lon="1.16239">
        <ele>102.3</ele>
        <time>2022-02-27T10:35:56.000Z</time>
      </trkpt>
      <trkpt lat="49.38992" lon="1.16224">
        <ele>102.4</ele>
        <time>2022-02-27T10:35:54.000Z</time>
      </trkpt>
      <trkpt lat="49.38988" lon="1.1621">
        <ele>103.2</ele>
        <time>2022-02-27T10:35:52.000Z</time>
      </trkpt>
      <trkpt lat="49.38983" lon="1.16196">
        <ele>103</ele>
        <time>2022-02-27T10:35:50.000Z</time>
      </trkpt>
      <trkpt lat="49.38979" lon="1.16182">
        <ele>104.3</ele>
        <time>2022-02-27T10:35:48.000Z</time>
      </trkpt>
      <trkpt lat="49.38975" lon="1.16168">
        <ele>105.3</ele>
        <time>2022-02-27T10:35:46.000Z</time>
      </trkpt>
      <trkpt lat="49.38968" lon="1.16154">
        <ele>107.1</ele>
        <time>2022-02-27T10:35:44.000Z</time>
      </trkpt>
      <trkpt lat="49.38962" lon="1.1614">
        <ele>108.6</ele>
        <time>2022-02-27T10:35:42.000Z</time>
      </trkpt>
      <trkpt lat="49.38954" lon="1.16126">
        <ele>107.8</ele>
        <time>2022-02-27T10:35:40.000Z</time>
      </trkpt>
      <trkpt lat="49.38945" lon="1.1611">
        <ele>108.5</ele>
        <time>2022-02-27T10:35:38.000Z</time>
      </trkpt>
      <trkpt lat="49.38936" lon="1.16093">
        <ele>110</ele>
        <time>2022-02-27T10:35:36.000Z</time>
      </trkpt>
      <trkpt lat="49.38928" lon="1.16076">
        <ele>112.6</ele>
        <time>2022-02-27T10:35:34.000Z</time>
      </trkpt>
      <trkpt lat="49.38921" lon="1.16058">
        <ele>116.5</ele>
        <time>2022-02-27T10:35:32.000Z</time>
      </trkpt>
      <trkpt lat="49.38917" lon="1.16042">
        <ele>118.8</ele>
        <time>2022-02-27T10:35:30.000Z</time>
      </trkpt>
      <trkpt lat="49.38916" lon="1.16027">
        <ele>118.2</ele>
        <time>2022-02-27T10:35:28.000Z</time>
      </trkpt>
      <trkpt lat="49.38915" lon="1.16012">
        <ele>118.3</ele>
        <time>2022-02-27T10:35:26.000Z</time>
      </trkpt>
      <trkpt lat="49.38915" lon="1.15992">
        <ele>118.4</ele>
        <time>2022-02-27T10:35:23.000Z</time>
      </trkpt>
      <trkpt lat="49.38915" lon="1.15974">
        <ele>118.9</ele>
        <time>2022-02-27T10:35:20.000Z</time>
      </trkpt>
      <trkpt lat="49.38917" lon="1.15959">
        <ele>119.5</ele>
        <time>2022-02-27T10:35:18.000Z</time>
      </trkpt>
      <trkpt lat="49.38923" lon="1.15947">
        <ele>120.7</ele>
        <time>2022-02-27T10:35:16.000Z</time>
      </trkpt>
      <trkpt lat="49.38931" lon="1.15934">
        <ele>121.9</ele>
        <time>2022-02-27T10:35:14.000Z</time>
      </trkpt>
      <trkpt lat="49.38938" lon="1.15922">
        <ele>125.6</ele>
        <time>2022-02-27T10:35:12.000Z</time>
      </trkpt>
      <trkpt lat="49.38945" lon="1.15912">
        <ele>129.4</ele>
        <time>2022-02-27T10:35:10.000Z</time>
      </trkpt>
      <trkpt lat="49.38954" lon="1.15898">
        <ele>131.4</ele>
        <time>2022-02-27T10:35:07.000Z</time>
      </trkpt>
      <trkpt lat="49.38963" lon="1.15887">
        <ele>134.4</ele>
        <time>2022-02-27T10:35:04.000Z</time>
      </trkpt>
      <trkpt lat="49.38973" lon="1.15888">
        <ele>136.8</ele>
        <time>2022-02-27T10:35:00.000Z</time>
      </trkpt>
      <trkpt lat="49.38983" lon="1.15893">
        <ele>139.4</ele>
        <time>2022-02-27T10:34:54.000Z</time>
      </trkpt>
      <trkpt lat="49.38992" lon="1.1589">
        <ele>141.7</ele>
        <time>2022-02-27T10:34:47.000Z</time>
      </trkpt>
      <trkpt lat="49.38993" lon="1.1589">
        <ele>141.6</ele>
        <time>2022-02-27T10:34:43.000Z</time>
      </trkpt>
      <trkpt lat="49.38995" lon="1.15888">
        <ele>141.9</ele>
        <time>2022-02-27T10:34:39.000Z</time>
      </trkpt>
      <trkpt lat="49.39003" lon="1.15881">
        <ele>142.2</ele>
        <time>2022-02-27T10:34:35.000Z</time>
      </trkpt>
      <trkpt lat="49.39014" lon="1.15872">
        <ele>141.6</ele>
        <time>2022-02-27T10:34:31.000Z</time>
      </trkpt>
      <trkpt lat="49.39023" lon="1.15866">
        <ele>142.2</ele>
        <time>2022-02-27T10:34:27.000Z</time>
      </trkpt>
      <trkpt lat="49.39031" lon="1.15859">
        <ele>142.5</ele>
        <time>2022-02-27T10:34:24.000Z</time>
      </trkpt>
      <trkpt lat="49.39042" lon="1.15852">
        <ele>143.1</ele>
        <time>2022-02-27T10:34:20.000Z</time>
      </trkpt>
      <trkpt lat="49.39051" lon="1.15844">
        <ele>143.4</ele>
        <time>2022-02-27T10:34:17.000Z</time>
      </trkpt>
      <trkpt lat="49.39061" lon="1.15836">
        <ele>143.7</ele>
        <time>2022-02-27T10:34:13.000Z</time>
      </trkpt>
      <trkpt lat="49.39069" lon="1.15829">
        <ele>143.5</ele>
        <time>2022-02-27T10:34:09.000Z</time>
      </trkpt>
      <trkpt lat="49.39077" lon="1.15822">
        <ele>143.4</ele>
        <time>2022-02-27T10:34:06.000Z</time>
      </trkpt>
      <trkpt lat="49.39087" lon="1.15814">
        <ele>143.7</ele>
        <time>2022-02-27T10:34:02.000Z</time>
      </trkpt>
      <trkpt lat="49.39097" lon="1.15807">
        <ele>144</ele>
        <time>2022-02-27T10:33:58.000Z</time>
      </trkpt>
      <trkpt lat="49.39106" lon="1.15799">
        <ele>143.7</ele>
        <time>2022-02-27T10:33:54.000Z</time>
      </trkpt>
      <trkpt lat="49.39115" lon="1.15792">
        <ele>143.8</ele>
        <time>2022-02-27T10:33:51.000Z</time>
      </trkpt>
      <trkpt lat="49.39124" lon="1.15785">
        <ele>143.7</ele>
        <time>2022-02-27T10:33:45.000Z</time>
      </trkpt>
      <trkpt lat="49.39133" lon="1.15779">
        <ele>144.9</ele>
        <time>2022-02-27T10:33:36.000Z</time>
      </trkpt>
      <trkpt lat="49.39142" lon="1.15771">
        <ele>144.3</ele>
        <time>2022-02-27T10:33:29.000Z</time>
      </trkpt>
      <trkpt lat="49.39151" lon="1.15764">
        <ele>144.7</ele>
        <time>2022-02-27T10:33:25.000Z</time>
      </trkpt>
      <trkpt lat="49.3916" lon="1.15757">
        <ele>145.2</ele>
        <time>2022-02-27T10:33:21.000Z</time>
      </trkpt>
      <trkpt lat="49.3917" lon="1.1575">
        <ele>145.3</ele>
        <time>2022-02-27T10:33:17.000Z</time>
      </trkpt>
      <trkpt lat="49.39178" lon="1.15741">
        <ele>144.8</ele>
        <time>2022-02-27T10:33:13.000Z</time>
      </trkpt>
      <trkpt lat="49.39186" lon="1.15734">
        <ele>145.2</ele>
        <time>2022-02-27T10:33:10.000Z</time>
      </trkpt>
      <trkpt lat="49.39195" lon="1.15726">
        <ele>145.8</ele>
        <time>2022-02-27T10:33:07.000Z</time>
      </trkpt>
      <trkpt lat="49.39203" lon="1.15719">
        <ele>146.2</ele>
        <time>2022-02-27T10:33:04.000Z</time>
      </trkpt>
      <trkpt lat="49.39212" lon="1.15711">
        <ele>146.3</ele>
        <time>2022-02-27T10:33:01.000Z</time>
      </trkpt>
      <trkpt lat="49.3922" lon="1.15704">
        <ele>145.7</ele>
        <time>2022-02-27T10:32:58.000Z</time>
      </trkpt>
      <trkpt lat="49.39229" lon="1.15695">
        <ele>146.7</ele>
        <time>2022-02-27T10:32:55.000Z</time>
      </trkpt>
      <trkpt lat="49.39237" lon="1.15687">
        <ele>147.2</ele>
        <time>2022-02-27T10:32:52.000Z</time>
      </trkpt>
      <trkpt lat="49.39244" lon="1.15678">
        <ele>148.2</ele>
        <time>2022-02-27T10:32:49.000Z</time>
      </trkpt>
      <trkpt lat="49.39252" lon="1.15668">
        <ele>148.6</ele>
        <time>2022-02-27T10:32:45.000Z</time>
      </trkpt>
      <trkpt lat="49.39259" lon="1.15658">
        <ele>149.3</ele>
        <time>2022-02-27T10:32:41.000Z</time>
      </trkpt>
      <trkpt lat="49.39267" lon="1.15646">
        <ele>149.5</ele>
        <time>2022-02-27T10:32:37.000Z</time>
      </trkpt>
      <trkpt lat="49.39274" lon="1.15636">
        <ele>149.9</ele>
        <time>2022-02-27T10:32:33.000Z</time>
      </trkpt>
      <trkpt lat="49.39282" lon="1.15625">
        <ele>150.7</ele>
        <time>2022-02-27T10:32:29.000Z</time>
      </trkpt>
      <trkpt lat="49.39292" lon="1.15614">
        <ele>151.5</ele>
        <time>2022-02-27T10:32:26.000Z</time>
      </trkpt>
      <trkpt lat="49.39302" lon="1.15602">
        <ele>151.2</ele>
        <time>2022-02-27T10:32:23.000Z</time>
      </trkpt>
      <trkpt lat="49.39312" lon="1.1559">
        <ele>152</ele>
        <time>2022-02-27T10:32:20.000Z</time>
      </trkpt>
      <trkpt lat="49.39322" lon="1.15578">
        <ele>152.5</ele>
        <time>2022-02-27T10:32:17.000Z</time>
      </trkpt>
      <trkpt lat="49.39333" lon="1.15567">
        <ele>152.9</ele>
        <time>2022-02-27T10:32:14.000Z</time>
      </trkpt>
      <trkpt lat="49.39343" lon="1.15556">
        <ele>154.1</ele>
        <time>2022-02-27T10:32:11.000Z</time>
      </trkpt>
      <trkpt lat="49.39353" lon="1.15545">
        <ele>153.8</ele>
        <time>2022-02-27T10:32:08.000Z</time>
      </trkpt>
      <trkpt lat="49.39362" lon="1.15535">
        <ele>154.4</ele>
        <time>2022-02-27T10:32:05.000Z</time>
      </trkpt>
      <trkpt lat="49.39372" lon="1.15525">
        <ele>154.2</ele>
        <time>2022-02-27T10:32:02.000Z</time>
      </trkpt>
      <trkpt lat="49.39382" lon="1.15514">
        <ele>154.4</ele>
        <time>2022-02-27T10:31:59.000Z</time>
      </trkpt>
      <trkpt lat="49.39391" lon="1.15504">
        <ele>154.7</ele>
        <time>2022-02-27T10:31:56.000Z</time>
      </trkpt>
      <trkpt lat="49.39401" lon="1.15494">
        <ele>154.5</ele>
        <time>2022-02-27T10:31:53.000Z</time>
      </trkpt>
      <trkpt lat="49.39411" lon="1.15484">
        <ele>155</ele>
        <time>2022-02-27T10:31:50.000Z</time>
      </trkpt>
      <trkpt lat="49.39419" lon="1.15475">
        <ele>155.5</ele>
        <time>2022-02-27T10:31:47.000Z</time>
      </trkpt>
      <trkpt lat="49.39427" lon="1.15466">
        <ele>155.8</ele>
        <time>2022-02-27T10:31:44.000Z</time>
      </trkpt>
      <trkpt lat="49.39435" lon="1.15459">
        <ele>155.6</ele>
        <time>2022-02-27T10:31:41.000Z</time>
      </trkpt>
      <trkpt lat="49.39443" lon="1.15452">
        <ele>155.8</ele>
        <time>2022-02-27T10:31:38.000Z</time>
      </trkpt>
      <trkpt lat="49.39454" lon="1.15444">
        <ele>156.2</ele>
        <time>2022-02-27T10:31:34.000Z</time>
      </trkpt>
      <trkpt lat="49.39463" lon="1.15435">
        <ele>156.2</ele>
        <time>2022-02-27T10:31:30.000Z</time>
      </trkpt>
      <trkpt lat="49.39472" lon="1.15425">
        <ele>156.2</ele>
        <time>2022-02-27T10:31:27.000Z</time>
      </trkpt>
      <trkpt lat="49.39482" lon="1.15416">
        <ele>156.3</ele>
        <time>2022-02-27T10:31:24.000Z</time>
      </trkpt>
      <trkpt lat="49.39493" lon="1.15406">
        <ele>155.2</ele>
        <time>2022-02-27T10:31:21.000Z</time>
      </trkpt>
      <trkpt lat="49.39502" lon="1.15396">
        <ele>155.3</ele>
        <time>2022-02-27T10:31:18.000Z</time>
      </trkpt>
      <trkpt lat="49.39512" lon="1.15387">
        <ele>155.7</ele>
        <time>2022-02-27T10:31:15.000Z</time>
      </trkpt>
      <trkpt lat="49.39523" lon="1.1538">
        <ele>155.9</ele>
        <time>2022-02-27T10:31:12.000Z</time>
      </trkpt>
      <trkpt lat="49.39534" lon="1.15374">
        <ele>156.1</ele>
        <time>2022-02-27T10:31:09.000Z</time>
      </trkpt>
      <trkpt lat="49.39545" lon="1.15366">
        <ele>155.9</ele>
        <time>2022-02-27T10:31:06.000Z</time>
      </trkpt>
      <trkpt lat="49.39555" lon="1.15359">
        <ele>156.2</ele>
        <time>2022-02-27T10:31:03.000Z</time>
      </trkpt>
      <trkpt lat="49.39566" lon="1.1535">
        <ele>156</ele>
        <time>2022-02-27T10:31:00.000Z</time>
      </trkpt>
      <trkpt lat="49.39577" lon="1.15342">
        <ele>155.3</ele>
        <time>2022-02-27T10:30:57.000Z</time>
      </trkpt>
      <trkpt lat="49.39587" lon="1.15334">
        <ele>155</ele>
        <time>2022-02-27T10:30:54.000Z</time>
      </trkpt>
      <trkpt lat="49.39597" lon="1.15326">
        <ele>155.1</ele>
        <time>2022-02-27T10:30:51.000Z</time>
      </trkpt>
      <trkpt lat="49.39607" lon="1.15318">
        <ele>155.4</ele>
        <time>2022-02-27T10:30:48.000Z</time>
      </trkpt>
      <trkpt lat="49.39617" lon="1.15311">
        <ele>155.1</ele>
        <time>2022-02-27T10:30:45.000Z</time>
      </trkpt>
      <trkpt lat="49.39625" lon="1.15303">
        <ele>154.7</ele>
        <time>2022-02-27T10:30:42.000Z</time>
      </trkpt>
      <trkpt lat="49.39633" lon="1.15295">
        <ele>154.4</ele>
        <time>2022-02-27T10:30:39.000Z</time>
      </trkpt>
      <trkpt lat="49.39641" lon="1.15287">
        <ele>153.8</ele>
        <time>2022-02-27T10:30:36.000Z</time>
      </trkpt>
      <trkpt lat="49.3965" lon="1.15276">
        <ele>153.7</ele>
        <time>2022-02-27T10:30:32.000Z</time>
      </trkpt>
      <trkpt lat="49.39659" lon="1.15267">
        <ele>153.6</ele>
        <time>2022-02-27T10:30:28.000Z</time>
      </trkpt>
      <trkpt lat="49.39669" lon="1.15257">
        <ele>153.1</ele>
        <time>2022-02-27T10:30:24.000Z</time>
      </trkpt>
      <trkpt lat="49.39676" lon="1.15249">
        <ele>152.9</ele>
        <time>2022-02-27T10:30:20.000Z</time>
      </trkpt>
      <trkpt lat="49.39685" lon="1.1524">
        <ele>152.3</ele>
        <time>2022-02-27T10:30:16.000Z</time>
      </trkpt>
      <trkpt lat="49.39694" lon="1.1523">
        <ele>151.9</ele>
        <time>2022-02-27T10:30:12.000Z</time>
      </trkpt>
      <trkpt lat="49.39703" lon="1.15221">
        <ele>151.2</ele>
        <time>2022-02-27T10:30:08.000Z</time>
      </trkpt>
      <trkpt lat="49.39712" lon="1.15211">
        <ele>150.9</ele>
        <time>2022-02-27T10:30:04.000Z</time>
      </trkpt>
      <trkpt lat="49.39721" lon="1.15202">
        <ele>150.5</ele>
        <time>2022-02-27T10:30:00.000Z</time>
      </trkpt>
      <trkpt lat="49.39729" lon="1.15194">
        <ele>150</ele>
        <time>2022-02-27T10:29:56.000Z</time>
      </trkpt>
      <trkpt lat="49.39738" lon="1.15184">
        <ele>149.5</ele>
        <time>2022-02-27T10:29:52.000Z</time>
      </trkpt>
      <trkpt lat="49.39747" lon="1.15175">
        <ele>149.5</ele>
        <time>2022-02-27T10:29:47.000Z</time>
      </trkpt>
      <trkpt lat="49.39757" lon="1.15165">
        <ele>149.2</ele>
        <time>2022-02-27T10:29:42.000Z</time>
      </trkpt>
      <trkpt lat="49.39765" lon="1.15155">
        <ele>148.1</ele>
        <time>2022-02-27T10:29:37.000Z</time>
      </trkpt>
      <trkpt lat="49.39773" lon="1.15147">
        <ele>147.1</ele>
        <time>2022-02-27T10:29:33.000Z</time>
      </trkpt>
      <trkpt lat="49.39782" lon="1.15138">
        <ele>146.8</ele>
        <time>2022-02-27T10:29:27.000Z</time>
      </trkpt>
      <trkpt lat="49.3979" lon="1.15129">
        <ele>145</ele>
        <time>2022-02-27T10:29:22.000Z</time>
      </trkpt>
      <trkpt lat="49.3979" lon="1.15112">
        <ele>144.4</ele>
        <time>2022-02-27T10:29:19.000Z</time>
      </trkpt>
      <trkpt lat="49.39788" lon="1.15092">
        <ele>143.9</ele>
        <time>2022-02-27T10:29:16.000Z</time>
      </trkpt>
      <trkpt lat="49.39784" lon="1.15074">
        <ele>143.7</ele>
        <time>2022-02-27T10:29:13.000Z</time>
      </trkpt>
      <trkpt lat="49.39781" lon="1.15061">
        <ele>143.2</ele>
        <time>2022-02-27T10:29:11.000Z</time>
      </trkpt>
      <trkpt lat="49.39778" lon="1.15047">
        <ele>142.4</ele>
        <time>2022-02-27T10:29:09.000Z</time>
      </trkpt>
      <trkpt lat="49.39774" lon="1.15033">
        <ele>142.3</ele>
        <time>2022-02-27T10:29:07.000Z</time>
      </trkpt>
      <trkpt lat="49.3977" lon="1.15019">
        <ele>142.1</ele>
        <time>2022-02-27T10:29:05.000Z</time>
      </trkpt>
      <trkpt lat="49.39763" lon="1.15009">
        <ele>142.1</ele>
        <time>2022-02-27T10:29:03.000Z</time>
      </trkpt>
      <trkpt lat="49.39754" lon="1.15001">
        <ele>141.2</ele>
        <time>2022-02-27T10:29:01.000Z</time>
      </trkpt>
      <trkpt lat="49.3975" lon="1.14982">
        <ele>140.8</ele>
        <time>2022-02-27T10:28:58.000Z</time>
      </trkpt>
      <trkpt lat="49.39753" lon="1.14966">
        <ele>140.7</ele>
        <time>2022-02-27T10:28:55.000Z</time>
      </trkpt>
      <trkpt lat="49.39757" lon="1.14951">
        <ele>140.9</ele>
        <time>2022-02-27T10:28:51.000Z</time>
      </trkpt>
      <trkpt lat="49.39758" lon="1.14936">
        <ele>140.7</ele>
        <time>2022-02-27T10:28:48.000Z</time>
      </trkpt>
      <trkpt lat="49.39759" lon="1.14918">
        <ele>141.3</ele>
        <time>2022-02-27T10:28:45.000Z</time>
      </trkpt>
      <trkpt lat="49.39761" lon="1.14905">
        <ele>141</ele>
        <time>2022-02-27T10:28:43.000Z</time>
      </trkpt>
      <trkpt lat="49.39763" lon="1.1489">
        <ele>140.6</ele>
        <time>2022-02-27T10:28:41.000Z</time>
      </trkpt>
      <trkpt lat="49.39766" lon="1.14876">
        <ele>140.6</ele>
        <time>2022-02-27T10:28:39.000Z</time>
      </trkpt>
      <trkpt lat="49.39768" lon="1.14862">
        <ele>141</ele>
        <time>2022-02-27T10:28:37.000Z</time>
      </trkpt>
      <trkpt lat="49.39769" lon="1.14848">
        <ele>141.2</ele>
        <time>2022-02-27T10:28:35.000Z</time>
      </trkpt>
      <trkpt lat="49.39772" lon="1.14833">
        <ele>141.2</ele>
        <time>2022-02-27T10:28:33.000Z</time>
      </trkpt>
      <trkpt lat="49.39775" lon="1.14818">
        <ele>141.1</ele>
        <time>2022-02-27T10:28:31.000Z</time>
      </trkpt>
      <trkpt lat="49.39778" lon="1.14803">
        <ele>141.2</ele>
        <time>2022-02-27T10:28:29.000Z</time>
      </trkpt>
      <trkpt lat="49.3978" lon="1.14788">
        <ele>141.3</ele>
        <time>2022-02-27T10:28:27.000Z</time>
      </trkpt>
      <trkpt lat="49.39783" lon="1.14774">
        <ele>141.4</ele>
        <time>2022-02-27T10:28:25.000Z</time>
      </trkpt>
      <trkpt lat="49.39788" lon="1.14755">
        <ele>141.7</ele>
        <time>2022-02-27T10:28:22.000Z</time>
      </trkpt>
      <trkpt lat="49.39795" lon="1.14739">
        <ele>141</ele>
        <time>2022-02-27T10:28:19.000Z</time>
      </trkpt>
      <trkpt lat="49.39805" lon="1.14733">
        <ele>141.4</ele>
        <time>2022-02-27T10:28:16.000Z</time>
      </trkpt>
      <trkpt lat="49.39817" lon="1.14732">
        <ele>141.4</ele>
        <time>2022-02-27T10:28:13.000Z</time>
      </trkpt>
      <trkpt lat="49.39828" lon="1.14732">
        <ele>141.6</ele>
        <time>2022-02-27T10:28:11.000Z</time>
      </trkpt>
      <trkpt lat="49.39839" lon="1.1473">
        <ele>141.5</ele>
        <time>2022-02-27T10:28:09.000Z</time>
      </trkpt>
      <trkpt lat="49.39849" lon="1.14725">
        <ele>141.3</ele>
        <time>2022-02-27T10:28:07.000Z</time>
      </trkpt>
      <trkpt lat="49.39859" lon="1.14718">
        <ele>141.6</ele>
        <time>2022-02-27T10:28:05.000Z</time>
      </trkpt>
      <trkpt lat="49.39866" lon="1.14708">
        <ele>141.4</ele>
        <time>2022-02-27T10:28:03.000Z</time>
      </trkpt>
      <trkpt lat="49.39873" lon="1.14696">
        <ele>140.9</ele>
        <time>2022-02-27T10:28:01.000Z</time>
      </trkpt>
      <trkpt lat="49.39878" lon="1.14683">
        <ele>141.5</ele>
        <time>2022-02-27T10:27:59.000Z</time>
      </trkpt>
      <trkpt lat="49.39883" lon="1.1467">
        <ele>141.4</ele>
        <time>2022-02-27T10:27:57.000Z</time>
      </trkpt>
      <trkpt lat="49.39887" lon="1.14657">
        <ele>141.6</ele>
        <time>2022-02-27T10:27:55.000Z</time>
      </trkpt>
      <trkpt lat="49.39893" lon="1.14645">
        <ele>142.4</ele>
        <time>2022-02-27T10:27:53.000Z</time>
      </trkpt>
      <trkpt lat="49.39898" lon="1.14634">
        <ele>142.8</ele>
        <time>2022-02-27T10:27:51.000Z</time>
      </trkpt>
      <trkpt lat="49.39908" lon="1.14626">
        <ele>143.5</ele>
        <time>2022-02-27T10:27:48.000Z</time>
      </trkpt>
      <trkpt lat="49.39917" lon="1.1462">
        <ele>145.2</ele>
        <time>2022-02-27T10:27:44.000Z</time>
      </trkpt>
      <trkpt lat="49.39922" lon="1.14616">
        <ele>145.1</ele>
        <time>2022-02-27T10:27:23.000Z</time>
      </trkpt>
      <trkpt lat="49.3993" lon="1.14608">
        <ele>146.2</ele>
        <time>2022-02-27T10:27:20.000Z</time>
      </trkpt>
      <trkpt lat="49.3994" lon="1.14595">
        <ele>146.3</ele>
        <time>2022-02-27T10:27:17.000Z</time>
      </trkpt>
      <trkpt lat="49.39949" lon="1.14581">
        <ele>146.9</ele>
        <time>2022-02-27T10:27:14.000Z</time>
      </trkpt>
      <trkpt lat="49.39958" lon="1.14566">
        <ele>146.9</ele>
        <time>2022-02-27T10:27:11.000Z</time>
      </trkpt>
      <trkpt lat="49.39968" lon="1.14553">
        <ele>146.8</ele>
        <time>2022-02-27T10:27:08.000Z</time>
      </trkpt>
      <trkpt lat="49.39976" lon="1.14546">
        <ele>147.3</ele>
        <time>2022-02-27T10:27:06.000Z</time>
      </trkpt>
      <trkpt lat="49.39984" lon="1.1454">
        <ele>147.7</ele>
        <time>2022-02-27T10:27:04.000Z</time>
      </trkpt>
      <trkpt lat="49.39992" lon="1.14533">
        <ele>147</ele>
        <time>2022-02-27T10:27:02.000Z</time>
      </trkpt>
      <trkpt lat="49.39999" lon="1.14524">
        <ele>147.3</ele>
        <time>2022-02-27T10:27:00.000Z</time>
      </trkpt>
      <trkpt lat="49.40009" lon="1.14511">
        <ele>148</ele>
        <time>2022-02-27T10:26:57.000Z</time>
      </trkpt>
      <trkpt lat="49.40017" lon="1.14498">
        <ele>148.1</ele>
        <time>2022-02-27T10:26:54.000Z</time>
      </trkpt>
      <trkpt lat="49.40028" lon="1.14487">
        <ele>147.5</ele>
        <time>2022-02-27T10:26:51.000Z</time>
      </trkpt>
      <trkpt lat="49.40037" lon="1.14478">
        <ele>147.5</ele>
        <time>2022-02-27T10:26:48.000Z</time>
      </trkpt>
      <trkpt lat="49.40046" lon="1.14468">
        <ele>147.9</ele>
        <time>2022-02-27T10:26:45.000Z</time>
      </trkpt>
      <trkpt lat="49.40057" lon="1.14459">
        <ele>147.8</ele>
        <time>2022-02-27T10:26:42.000Z</time>
      </trkpt>
      <trkpt lat="49.40067" lon="1.14452">
        <ele>148.1</ele>
        <time>2022-02-27T10:26:39.000Z</time>
      </trkpt>
      <trkpt lat="49.40078" lon="1.14445">
        <ele>148.1</ele>
        <time>2022-02-27T10:26:36.000Z</time>
      </trkpt>
      <trkpt lat="49.40088" lon="1.14439">
        <ele>148</ele>
        <time>2022-02-27T10:26:33.000Z</time>
      </trkpt>
      <trkpt lat="49.40098" lon="1.14433">
        <ele>148.5</ele>
        <time>2022-02-27T10:26:30.000Z</time>
      </trkpt>
      <trkpt lat="49.40109" lon="1.14428">
        <ele>148.2</ele>
        <time>2022-02-27T10:26:27.000Z</time>
      </trkpt>
      <trkpt lat="49.40121" lon="1.14422">
        <ele>148.2</ele>
        <time>2022-02-27T10:26:24.000Z</time>
      </trkpt>
      <trkpt lat="49.40133" lon="1.14417">
        <ele>148.7</ele>
        <time>2022-02-27T10:26:21.000Z</time>
      </trkpt>
      <trkpt lat="49.40146" lon="1.14413">
        <ele>148.8</ele>
        <time>2022-02-27T10:26:18.000Z</time>
      </trkpt>
      <trkpt lat="49.40157" lon="1.14412">
        <ele>149.6</ele>
        <time>2022-02-27T10:26:15.000Z</time>
      </trkpt>
      <trkpt lat="49.4017" lon="1.14412">
        <ele>149.7</ele>
        <time>2022-02-27T10:26:12.000Z</time>
      </trkpt>
      <trkpt lat="49.40181" lon="1.14412">
        <ele>149.8</ele>
        <time>2022-02-27T10:26:09.000Z</time>
      </trkpt>
      <trkpt lat="49.40191" lon="1.14412">
        <ele>149.9</ele>
        <time>2022-02-27T10:26:06.000Z</time>
      </trkpt>
      <trkpt lat="49.40202" lon="1.14409">
        <ele>149.8</ele>
        <time>2022-02-27T10:26:03.000Z</time>
      </trkpt>
      <trkpt lat="49.40212" lon="1.14405">
        <ele>149.5</ele>
        <time>2022-02-27T10:26:00.000Z</time>
      </trkpt>
      <trkpt lat="49.40223" lon="1.14401">
        <ele>148.8</ele>
        <time>2022-02-27T10:25:57.000Z</time>
      </trkpt>
      <trkpt lat="49.40234" lon="1.14396">
        <ele>148.7</ele>
        <time>2022-02-27T10:25:54.000Z</time>
      </trkpt>
      <trkpt lat="49.40245" lon="1.14392">
        <ele>149</ele>
        <time>2022-02-27T10:25:51.000Z</time>
      </trkpt>
      <trkpt lat="49.40255" lon="1.14389">
        <ele>148.8</ele>
        <time>2022-02-27T10:25:48.000Z</time>
      </trkpt>
      <trkpt lat="49.40266" lon="1.14386">
        <ele>148.6</ele>
        <time>2022-02-27T10:25:45.000Z</time>
      </trkpt>
      <trkpt lat="49.40275" lon="1.14382">
        <ele>149</ele>
        <time>2022-02-27T10:25:42.000Z</time>
      </trkpt>
      <trkpt lat="49.40285" lon="1.14378">
        <ele>148.4</ele>
        <time>2022-02-27T10:25:39.000Z</time>
      </trkpt>
      <trkpt lat="49.40294" lon="1.14374">
        <ele>149.1</ele>
        <time>2022-02-27T10:25:36.000Z</time>
      </trkpt>
      <trkpt lat="49.40305" lon="1.14371">
        <ele>148.6</ele>
        <time>2022-02-27T10:25:32.000Z</time>
      </trkpt>
      <trkpt lat="49.40315" lon="1.14368">
        <ele>149</ele>
        <time>2022-02-27T10:25:29.000Z</time>
      </trkpt>
      <trkpt lat="49.40326" lon="1.14366">
        <ele>149</ele>
        <time>2022-02-27T10:25:25.000Z</time>
      </trkpt>
      <trkpt lat="49.40337" lon="1.14364">
        <ele>149.1</ele>
        <time>2022-02-27T10:25:21.000Z</time>
      </trkpt>
      <trkpt lat="49.40347" lon="1.14364">
        <ele>148.8</ele>
        <time>2022-02-27T10:25:17.000Z</time>
      </trkpt>
      <trkpt lat="49.40358" lon="1.14365">
        <ele>148.4</ele>
        <time>2022-02-27T10:25:13.000Z</time>
      </trkpt>
      <trkpt lat="49.40367" lon="1.14369">
        <ele>148.8</ele>
        <time>2022-02-27T10:25:08.000Z</time>
      </trkpt>
      <trkpt lat="49.40367" lon="1.1437">
        <ele>148.7</ele>
        <time>2022-02-27T10:25:04.000Z</time>
      </trkpt>
      <trkpt lat="49.4037" lon="1.14371">
        <ele>148.9</ele>
        <time>2022-02-27T10:24:35.000Z</time>
      </trkpt>
      <trkpt lat="49.4038" lon="1.14375">
        <ele>149</ele>
        <time>2022-02-27T10:24:28.000Z</time>
      </trkpt>
      <trkpt lat="49.40389" lon="1.1438">
        <ele>148.6</ele>
        <time>2022-02-27T10:24:22.000Z</time>
      </trkpt>
      <trkpt lat="49.40398" lon="1.14387">
        <ele>148.8</ele>
        <time>2022-02-27T10:24:16.000Z</time>
      </trkpt>
      <trkpt lat="49.40407" lon="1.14395">
        <ele>148.6</ele>
        <time>2022-02-27T10:24:09.000Z</time>
      </trkpt>
      <trkpt lat="49.40415" lon="1.14402">
        <ele>148.8</ele>
        <time>2022-02-27T10:24:02.000Z</time>
      </trkpt>
      <trkpt lat="49.40425" lon="1.14408">
        <ele>148.5</ele>
        <time>2022-02-27T10:23:55.000Z</time>
      </trkpt>
      <trkpt lat="49.40434" lon="1.14417">
        <ele>148.8</ele>
        <time>2022-02-27T10:23:49.000Z</time>
      </trkpt>
      <trkpt lat="49.40442" lon="1.14424">
        <ele>148.6</ele>
        <time>2022-02-27T10:23:44.000Z</time>
      </trkpt>
      <trkpt lat="49.4045" lon="1.14432">
        <ele>149</ele>
        <time>2022-02-27T10:23:37.000Z</time>
      </trkpt>
      <trkpt lat="49.40458" lon="1.14438">
        <ele>148.2</ele>
        <time>2022-02-27T10:23:30.000Z</time>
      </trkpt>
      <trkpt lat="49.40471" lon="1.14433">
        <ele>147.4</ele>
        <time>2022-02-27T10:23:27.000Z</time>
      </trkpt>
      <trkpt lat="49.4048" lon="1.14429">
        <ele>147.2</ele>
        <time>2022-02-27T10:23:25.000Z</time>
      </trkpt>
      <trkpt lat="49.40489" lon="1.14425">
        <ele>147.3</ele>
        <time>2022-02-27T10:23:23.000Z</time>
      </trkpt>
      <trkpt lat="49.40498" lon="1.1442">
        <ele>147.4</ele>
        <time>2022-02-27T10:23:21.000Z</time>
      </trkpt>
      <trkpt lat="49.40507" lon="1.14416">
        <ele>147</ele>
        <time>2022-02-27T10:23:19.000Z</time>
      </trkpt>
      <trkpt lat="49.40517" lon="1.1441">
        <ele>146.8</ele>
        <time>2022-02-27T10:23:17.000Z</time>
      </trkpt>
      <trkpt lat="49.40528" lon="1.14402">
        <ele>147</ele>
        <time>2022-02-27T10:23:15.000Z</time>
      </trkpt>
      <trkpt lat="49.40538" lon="1.14393">
        <ele>147.2</ele>
        <time>2022-02-27T10:23:13.000Z</time>
      </trkpt>
      <trkpt lat="49.40548" lon="1.14383">
        <ele>147.9</ele>
        <time>2022-02-27T10:23:11.000Z</time>
      </trkpt>
      <trkpt lat="49.40557" lon="1.14373">
        <ele>148.1</ele>
        <time>2022-02-27T10:23:09.000Z</time>
      </trkpt>
      <trkpt lat="49.40566" lon="1.14363">
        <ele>148.3</ele>
        <time>2022-02-27T10:23:07.000Z</time>
      </trkpt>
      <trkpt lat="49.40574" lon="1.14354">
        <ele>148.7</ele>
        <time>2022-02-27T10:23:05.000Z</time>
      </trkpt>
      <trkpt lat="49.40581" lon="1.14345">
        <ele>149.1</ele>
        <time>2022-02-27T10:23:03.000Z</time>
      </trkpt>
      <trkpt lat="49.40588" lon="1.14336">
        <ele>149.7</ele>
        <time>2022-02-27T10:23:01.000Z</time>
      </trkpt>
      <trkpt lat="49.40594" lon="1.14325">
        <ele>150.1</ele>
        <time>2022-02-27T10:22:59.000Z</time>
      </trkpt>
      <trkpt lat="49.40601" lon="1.14315">
        <ele>150.5</ele>
        <time>2022-02-27T10:22:57.000Z</time>
      </trkpt>
      <trkpt lat="49.40608" lon="1.14306">
        <ele>149.8</ele>
        <time>2022-02-27T10:22:55.000Z</time>
      </trkpt>
      <trkpt lat="49.40614" lon="1.14295">
        <ele>150</ele>
        <time>2022-02-27T10:22:53.000Z</time>
      </trkpt>
      <trkpt lat="49.4062" lon="1.14284">
        <ele>150.6</ele>
        <time>2022-02-27T10:22:51.000Z</time>
      </trkpt>
      <trkpt lat="49.40627" lon="1.14272">
        <ele>150.9</ele>
        <time>2022-02-27T10:22:49.000Z</time>
      </trkpt>
      <trkpt lat="49.40633" lon="1.14261">
        <ele>150.8</ele>
        <time>2022-02-27T10:22:47.000Z</time>
      </trkpt>
      <trkpt lat="49.40639" lon="1.14251">
        <ele>151</ele>
        <time>2022-02-27T10:22:45.000Z</time>
      </trkpt>
      <trkpt lat="49.40648" lon="1.14236">
        <ele>150.7</ele>
        <time>2022-02-27T10:22:42.000Z</time>
      </trkpt>
      <trkpt lat="49.40654" lon="1.1422">
        <ele>150.8</ele>
        <time>2022-02-27T10:22:38.000Z</time>
      </trkpt>
      <trkpt lat="49.40652" lon="1.14204">
        <ele>150.8</ele>
        <time>2022-02-27T10:22:34.000Z</time>
      </trkpt>
      <trkpt lat="49.40647" lon="1.14191">
        <ele>150.5</ele>
        <time>2022-02-27T10:22:31.000Z</time>
      </trkpt>
      <trkpt lat="49.40642" lon="1.14176">
        <ele>150.1</ele>
        <time>2022-02-27T10:22:28.000Z</time>
      </trkpt>
      <trkpt lat="49.40637" lon="1.14161">
        <ele>149.5</ele>
        <time>2022-02-27T10:22:25.000Z</time>
      </trkpt>
      <trkpt lat="49.40631" lon="1.14146">
        <ele>149.6</ele>
        <time>2022-02-27T10:22:22.000Z</time>
      </trkpt>
      <trkpt lat="49.40626" lon="1.14132">
        <ele>149.3</ele>
        <time>2022-02-27T10:22:19.000Z</time>
      </trkpt>
      <trkpt lat="49.40621" lon="1.14118">
        <ele>149.1</ele>
        <time>2022-02-27T10:22:16.000Z</time>
      </trkpt>
      <trkpt lat="49.40615" lon="1.14107">
        <ele>149.2</ele>
        <time>2022-02-27T10:22:12.000Z</time>
      </trkpt>
      <trkpt lat="49.40613" lon="1.14105">
        <ele>149.6</ele>
        <time>2022-02-27T10:22:01.000Z</time>
      </trkpt>
      <trkpt lat="49.40615" lon="1.14091">
        <ele>149.1</ele>
        <time>2022-02-27T10:21:56.000Z</time>
      </trkpt>
      <trkpt lat="49.40623" lon="1.14081">
        <ele>149.1</ele>
        <time>2022-02-27T10:21:53.000Z</time>
      </trkpt>
      <trkpt lat="49.40632" lon="1.1407">
        <ele>149</ele>
        <time>2022-02-27T10:21:50.000Z</time>
      </trkpt>
      <trkpt lat="49.40641" lon="1.14058">
        <ele>149</ele>
        <time>2022-02-27T10:21:47.000Z</time>
      </trkpt>
      <trkpt lat="49.40649" lon="1.14044">
        <ele>149.2</ele>
        <time>2022-02-27T10:21:44.000Z</time>
      </trkpt>
      <trkpt lat="49.40658" lon="1.14028">
        <ele>149.3</ele>
        <time>2022-02-27T10:21:41.000Z</time>
      </trkpt>
      <trkpt lat="49.40665" lon="1.14014">
        <ele>149.2</ele>
        <time>2022-02-27T10:21:38.000Z</time>
      </trkpt>
      <trkpt lat="49.40674" lon="1.13999">
        <ele>148.7</ele>
        <time>2022-02-27T10:21:35.000Z</time>
      </trkpt>
      <trkpt lat="49.40681" lon="1.13983">
        <ele>148.6</ele>
        <time>2022-02-27T10:21:32.000Z</time>
      </trkpt>
      <trkpt lat="49.40687" lon="1.13972">
        <ele>148.4</ele>
        <time>2022-02-27T10:21:30.000Z</time>
      </trkpt>
      <trkpt lat="49.40693" lon="1.13961">
        <ele>148.3</ele>
        <time>2022-02-27T10:21:28.000Z</time>
      </trkpt>
      <trkpt lat="49.40699" lon="1.1395">
        <ele>147.8</ele>
        <time>2022-02-27T10:21:26.000Z</time>
      </trkpt>
      <trkpt lat="49.40706" lon="1.1394">
        <ele>148.1</ele>
        <time>2022-02-27T10:21:24.000Z</time>
      </trkpt>
      <trkpt lat="49.40712" lon="1.13929">
        <ele>147.5</ele>
        <time>2022-02-27T10:21:22.000Z</time>
      </trkpt>
      <trkpt lat="49.40721" lon="1.13916">
        <ele>147.3</ele>
        <time>2022-02-27T10:21:19.000Z</time>
      </trkpt>
      <trkpt lat="49.40727" lon="1.13904">
        <ele>147.3</ele>
        <time>2022-02-27T10:21:16.000Z</time>
      </trkpt>
      <trkpt lat="49.40733" lon="1.13893">
        <ele>147.1</ele>
        <time>2022-02-27T10:21:13.000Z</time>
      </trkpt>
      <trkpt lat="49.40742" lon="1.13884">
        <ele>147.9</ele>
        <time>2022-02-27T10:21:10.000Z</time>
      </trkpt>
      <trkpt lat="49.40752" lon="1.13876">
        <ele>148.5</ele>
        <time>2022-02-27T10:21:07.000Z</time>
      </trkpt>
      <trkpt lat="49.40761" lon="1.13864">
        <ele>148.3</ele>
        <time>2022-02-27T10:21:04.000Z</time>
      </trkpt>
      <trkpt lat="49.40769" lon="1.13852">
        <ele>148.7</ele>
        <time>2022-02-27T10:21:01.000Z</time>
      </trkpt>
      <trkpt lat="49.40778" lon="1.13838">
        <ele>149.5</ele>
        <time>2022-02-27T10:20:58.000Z</time>
      </trkpt>
      <trkpt lat="49.40787" lon="1.13824">
        <ele>150.4</ele>
        <time>2022-02-27T10:20:55.000Z</time>
      </trkpt>
      <trkpt lat="49.40795" lon="1.1381">
        <ele>150.5</ele>
        <time>2022-02-27T10:20:52.000Z</time>
      </trkpt>
      <trkpt lat="49.40803" lon="1.13798">
        <ele>150.6</ele>
        <time>2022-02-27T10:20:49.000Z</time>
      </trkpt>
      <trkpt lat="49.40809" lon="1.13786">
        <ele>150.1</ele>
        <time>2022-02-27T10:20:46.000Z</time>
      </trkpt>
      <trkpt lat="49.40817" lon="1.13774">
        <ele>150.6</ele>
        <time>2022-02-27T10:20:43.000Z</time>
      </trkpt>
      <trkpt lat="49.40826" lon="1.13762">
        <ele>151.2</ele>
        <time>2022-02-27T10:20:40.000Z</time>
      </trkpt>
      <trkpt lat="49.40834" lon="1.13748">
        <ele>151.7</ele>
        <time>2022-02-27T10:20:37.000Z</time>
      </trkpt>
      <trkpt lat="49.40843" lon="1.13735">
        <ele>152.2</ele>
        <time>2022-02-27T10:20:34.000Z</time>
      </trkpt>
      <trkpt lat="49.40852" lon="1.13721">
        <ele>151.1</ele>
        <time>2022-02-27T10:20:31.000Z</time>
      </trkpt>
      <trkpt lat="49.40861" lon="1.13709">
        <ele>151.9</ele>
        <time>2022-02-27T10:20:28.000Z</time>
      </trkpt>
      <trkpt lat="49.40869" lon="1.13697">
        <ele>152.2</ele>
        <time>2022-02-27T10:20:25.000Z</time>
      </trkpt>
      <trkpt lat="49.40877" lon="1.13685">
        <ele>152.3</ele>
        <time>2022-02-27T10:20:22.000Z</time>
      </trkpt>
      <trkpt lat="49.40886" lon="1.13673">
        <ele>152.4</ele>
        <time>2022-02-27T10:20:19.000Z</time>
      </trkpt>
      <trkpt lat="49.40894" lon="1.13661">
        <ele>152.6</ele>
        <time>2022-02-27T10:20:16.000Z</time>
      </trkpt>
      <trkpt lat="49.40903" lon="1.13651">
        <ele>153.1</ele>
        <time>2022-02-27T10:20:13.000Z</time>
      </trkpt>
      <trkpt lat="49.4091" lon="1.13641">
        <ele>154.2</ele>
        <time>2022-02-27T10:20:10.000Z</time>
      </trkpt>
      <trkpt lat="49.40919" lon="1.1363">
        <ele>154.2</ele>
        <time>2022-02-27T10:20:07.000Z</time>
      </trkpt>
      <trkpt lat="49.40928" lon="1.1362">
        <ele>154.9</ele>
        <time>2022-02-27T10:20:04.000Z</time>
      </trkpt>
      <trkpt lat="49.40939" lon="1.1361">
        <ele>155</ele>
        <time>2022-02-27T10:20:01.000Z</time>
      </trkpt>
      <trkpt lat="49.4095" lon="1.13602">
        <ele>155</ele>
        <time>2022-02-27T10:19:58.000Z</time>
      </trkpt>
      <trkpt lat="49.4096" lon="1.13593">
        <ele>154.5</ele>
        <time>2022-02-27T10:19:55.000Z</time>
      </trkpt>
      <trkpt lat="49.40968" lon="1.13586">
        <ele>154.7</ele>
        <time>2022-02-27T10:19:52.000Z</time>
      </trkpt>
      <trkpt lat="49.40979" lon="1.13577">
        <ele>154.9</ele>
        <time>2022-02-27T10:19:49.000Z</time>
      </trkpt>
      <trkpt lat="49.40989" lon="1.13569">
        <ele>154.5</ele>
        <time>2022-02-27T10:19:46.000Z</time>
      </trkpt>
      <trkpt lat="49.40999" lon="1.13561">
        <ele>154.8</ele>
        <time>2022-02-27T10:19:43.000Z</time>
      </trkpt>
      <trkpt lat="49.41009" lon="1.13553">
        <ele>155.3</ele>
        <time>2022-02-27T10:19:40.000Z</time>
      </trkpt>
      <trkpt lat="49.41018" lon="1.13544">
        <ele>155.3</ele>
        <time>2022-02-27T10:19:37.000Z</time>
      </trkpt>
      <trkpt lat="49.41027" lon="1.13536">
        <ele>155.9</ele>
        <time>2022-02-27T10:19:34.000Z</time>
      </trkpt>
      <trkpt lat="49.41036" lon="1.13527">
        <ele>155.9</ele>
        <time>2022-02-27T10:19:31.000Z</time>
      </trkpt>
      <trkpt lat="49.41046" lon="1.13518">
        <ele>156.1</ele>
        <time>2022-02-27T10:19:28.000Z</time>
      </trkpt>
      <trkpt lat="49.41055" lon="1.13509">
        <ele>155.7</ele>
        <time>2022-02-27T10:19:25.000Z</time>
      </trkpt>
      <trkpt lat="49.41064" lon="1.135">
        <ele>155.1</ele>
        <time>2022-02-27T10:19:22.000Z</time>
      </trkpt>
      <trkpt lat="49.41072" lon="1.13492">
        <ele>153.9</ele>
        <time>2022-02-27T10:19:19.000Z</time>
      </trkpt>
      <trkpt lat="49.41081" lon="1.13484">
        <ele>153.5</ele>
        <time>2022-02-27T10:19:16.000Z</time>
      </trkpt>
      <trkpt lat="49.41089" lon="1.13476">
        <ele>153.9</ele>
        <time>2022-02-27T10:19:13.000Z</time>
      </trkpt>
      <trkpt lat="49.41098" lon="1.13465">
        <ele>153</ele>
        <time>2022-02-27T10:19:09.000Z</time>
      </trkpt>
      <trkpt lat="49.41108" lon="1.13457">
        <ele>153.4</ele>
        <time>2022-02-27T10:19:03.000Z</time>
      </trkpt>
      <trkpt lat="49.41117" lon="1.1345">
        <ele>153.7</ele>
        <time>2022-02-27T10:19:00.000Z</time>
      </trkpt>
      <trkpt lat="49.41126" lon="1.13442">
        <ele>153.9</ele>
        <time>2022-02-27T10:18:57.000Z</time>
      </trkpt>
      <trkpt lat="49.41136" lon="1.13435">
        <ele>154.1</ele>
        <time>2022-02-27T10:18:54.000Z</time>
      </trkpt>
      <trkpt lat="49.41145" lon="1.13428">
        <ele>153.2</ele>
        <time>2022-02-27T10:18:51.000Z</time>
      </trkpt>
      <trkpt lat="49.41154" lon="1.13421">
        <ele>153.5</ele>
        <time>2022-02-27T10:18:48.000Z</time>
      </trkpt>
      <trkpt lat="49.41164" lon="1.13414">
        <ele>153.7</ele>
        <time>2022-02-27T10:18:45.000Z</time>
      </trkpt>
      <trkpt lat="49.41174" lon="1.13407">
        <ele>153.3</ele>
        <time>2022-02-27T10:18:42.000Z</time>
      </trkpt>
      <trkpt lat="49.41184" lon="1.13398">
        <ele>152.9</ele>
        <time>2022-02-27T10:18:39.000Z</time>
      </trkpt>
      <trkpt lat="49.41194" lon="1.1339">
        <ele>152.7</ele>
        <time>2022-02-27T10:18:36.000Z</time>
      </trkpt>
      <trkpt lat="49.41204" lon="1.13383">
        <ele>152.5</ele>
        <time>2022-02-27T10:18:33.000Z</time>
      </trkpt>
      <trkpt lat="49.41214" lon="1.13378">
        <ele>152.3</ele>
        <time>2022-02-27T10:18:30.000Z</time>
      </trkpt>
      <trkpt lat="49.41224" lon="1.13372">
        <ele>152.6</ele>
        <time>2022-02-27T10:18:27.000Z</time>
      </trkpt>
      <trkpt lat="49.41235" lon="1.13367">
        <ele>152.5</ele>
        <time>2022-02-27T10:18:24.000Z</time>
      </trkpt>
      <trkpt lat="49.41246" lon="1.13361">
        <ele>152.5</ele>
        <time>2022-02-27T10:18:21.000Z</time>
      </trkpt>
      <trkpt lat="49.41256" lon="1.13356">
        <ele>152.5</ele>
        <time>2022-02-27T10:18:18.000Z</time>
      </trkpt>
      <trkpt lat="49.41267" lon="1.1335">
        <ele>152.1</ele>
        <time>2022-02-27T10:18:15.000Z</time>
      </trkpt>
      <trkpt lat="49.41278" lon="1.13345">
        <ele>151.9</ele>
        <time>2022-02-27T10:18:12.000Z</time>
      </trkpt>
      <trkpt lat="49.41288" lon="1.1334">
        <ele>151.8</ele>
        <time>2022-02-27T10:18:09.000Z</time>
      </trkpt>
      <trkpt lat="49.41298" lon="1.13333">
        <ele>151.6</ele>
        <time>2022-02-27T10:18:06.000Z</time>
      </trkpt>
      <trkpt lat="49.41309" lon="1.13327">
        <ele>151.5</ele>
        <time>2022-02-27T10:18:03.000Z</time>
      </trkpt>
      <trkpt lat="49.41319" lon="1.1332">
        <ele>151.3</ele>
        <time>2022-02-27T10:18:00.000Z</time>
      </trkpt>
      <trkpt lat="49.4133" lon="1.13315">
        <ele>151.4</ele>
        <time>2022-02-27T10:17:57.000Z</time>
      </trkpt>
      <trkpt lat="49.41341" lon="1.13309">
        <ele>151.5</ele>
        <time>2022-02-27T10:17:54.000Z</time>
      </trkpt>
      <trkpt lat="49.41351" lon="1.13304">
        <ele>151</ele>
        <time>2022-02-27T10:17:51.000Z</time>
      </trkpt>
      <trkpt lat="49.41361" lon="1.13298">
        <ele>150.8</ele>
        <time>2022-02-27T10:17:48.000Z</time>
      </trkpt>
      <trkpt lat="49.41372" lon="1.13293">
        <ele>150.5</ele>
        <time>2022-02-27T10:17:45.000Z</time>
      </trkpt>
      <trkpt lat="49.41382" lon="1.13288">
        <ele>150.8</ele>
        <time>2022-02-27T10:17:42.000Z</time>
      </trkpt>
      <trkpt lat="49.41393" lon="1.13283">
        <ele>150.9</ele>
        <time>2022-02-27T10:17:39.000Z</time>
      </trkpt>
      <trkpt lat="49.41404" lon="1.13276">
        <ele>150.6</ele>
        <time>2022-02-27T10:17:36.000Z</time>
      </trkpt>
      <trkpt lat="49.41413" lon="1.1327">
        <ele>150.7</ele>
        <time>2022-02-27T10:17:33.000Z</time>
      </trkpt>
      <trkpt lat="49.41423" lon="1.13264">
        <ele>150.3</ele>
        <time>2022-02-27T10:17:30.000Z</time>
      </trkpt>
      <trkpt lat="49.41432" lon="1.13259">
        <ele>150.3</ele>
        <time>2022-02-27T10:17:27.000Z</time>
      </trkpt>
      <trkpt lat="49.41441" lon="1.13253">
        <ele>149.6</ele>
        <time>2022-02-27T10:17:24.000Z</time>
      </trkpt>
      <trkpt lat="49.4145" lon="1.13247">
        <ele>149.4</ele>
        <time>2022-02-27T10:17:21.000Z</time>
      </trkpt>
      <trkpt lat="49.41459" lon="1.13243">
        <ele>149.1</ele>
        <time>2022-02-27T10:17:18.000Z</time>
      </trkpt>
      <trkpt lat="49.41468" lon="1.13237">
        <ele>149.1</ele>
        <time>2022-02-27T10:17:15.000Z</time>
      </trkpt>
      <trkpt lat="49.41478" lon="1.13232">
        <ele>148.8</ele>
        <time>2022-02-27T10:17:12.000Z</time>
      </trkpt>
      <trkpt lat="49.41487" lon="1.13228">
        <ele>148.9</ele>
        <time>2022-02-27T10:17:09.000Z</time>
      </trkpt>
      <trkpt lat="49.41497" lon="1.13224">
        <ele>148.5</ele>
        <time>2022-02-27T10:17:06.000Z</time>
      </trkpt>
      <trkpt lat="49.41506" lon="1.1322">
        <ele>148.4</ele>
        <time>2022-02-27T10:17:03.000Z</time>
      </trkpt>
      <trkpt lat="49.41516" lon="1.13216">
        <ele>148.3</ele>
        <time>2022-02-27T10:17:00.000Z</time>
      </trkpt>
      <trkpt lat="49.41525" lon="1.13212">
        <ele>147.3</ele>
        <time>2022-02-27T10:16:57.000Z</time>
      </trkpt>
      <trkpt lat="49.41534" lon="1.13208">
        <ele>146.9</ele>
        <time>2022-02-27T10:16:54.000Z</time>
      </trkpt>
      <trkpt lat="49.41544" lon="1.13204">
        <ele>146.7</ele>
        <time>2022-02-27T10:16:51.000Z</time>
      </trkpt>
      <trkpt lat="49.41554" lon="1.13198">
        <ele>146.6</ele>
        <time>2022-02-27T10:16:48.000Z</time>
      </trkpt>
      <trkpt lat="49.41563" lon="1.13192">
        <ele>146.7</ele>
        <time>2022-02-27T10:16:45.000Z</time>
      </trkpt>
      <trkpt lat="49.41572" lon="1.13185">
        <ele>146.3</ele>
        <time>2022-02-27T10:16:42.000Z</time>
      </trkpt>
      <trkpt lat="49.41581" lon="1.1318">
        <ele>145.8</ele>
        <time>2022-02-27T10:16:39.000Z</time>
      </trkpt>
      <trkpt lat="49.4159" lon="1.13175">
        <ele>145.5</ele>
        <time>2022-02-27T10:16:36.000Z</time>
      </trkpt>
      <trkpt lat="49.416" lon="1.13169">
        <ele>145.5</ele>
        <time>2022-02-27T10:16:33.000Z</time>
      </trkpt>
      <trkpt lat="49.41609" lon="1.13163">
        <ele>145.5</ele>
        <time>2022-02-27T10:16:30.000Z</time>
      </trkpt>
      <trkpt lat="49.41619" lon="1.13155">
        <ele>145.5</ele>
        <time>2022-02-27T10:16:26.000Z</time>
      </trkpt>
      <trkpt lat="49.41627" lon="1.13147">
        <ele>145.3</ele>
        <time>2022-02-27T10:16:22.000Z</time>
      </trkpt>
      <trkpt lat="49.41636" lon="1.13138">
        <ele>145.4</ele>
        <time>2022-02-27T10:16:17.000Z</time>
      </trkpt>
      <trkpt lat="49.41645" lon="1.13128">
        <ele>144.6</ele>
        <time>2022-02-27T10:16:12.000Z</time>
      </trkpt>
      <trkpt lat="49.41653" lon="1.13121">
        <ele>144.5</ele>
        <time>2022-02-27T10:16:07.000Z</time>
      </trkpt>
      <trkpt lat="49.41661" lon="1.13115">
        <ele>143.6</ele>
        <time>2022-02-27T10:15:58.000Z</time>
      </trkpt>
      <trkpt lat="49.41661" lon="1.13114">
        <ele>144.2</ele>
        <time>2022-02-27T10:15:34.000Z</time>
      </trkpt>
      <trkpt lat="49.41664" lon="1.13113">
        <ele>143.8</ele>
        <time>2022-02-27T10:15:30.000Z</time>
      </trkpt>
      <trkpt lat="49.41669" lon="1.131">
        <ele>143</ele>
        <time>2022-02-27T10:15:26.000Z</time>
      </trkpt>
      <trkpt lat="49.41668" lon="1.13083">
        <ele>142.5</ele>
        <time>2022-02-27T10:15:23.000Z</time>
      </trkpt>
      <trkpt lat="49.41666" lon="1.13069">
        <ele>142.2</ele>
        <time>2022-02-27T10:15:21.000Z</time>
      </trkpt>
      <trkpt lat="49.41665" lon="1.13054">
        <ele>142</ele>
        <time>2022-02-27T10:15:19.000Z</time>
      </trkpt>
      <trkpt lat="49.41664" lon="1.13039">
        <ele>140.6</ele>
        <time>2022-02-27T10:15:17.000Z</time>
      </trkpt>
      <trkpt lat="49.41663" lon="1.13024">
        <ele>140.5</ele>
        <time>2022-02-27T10:15:15.000Z</time>
      </trkpt>
      <trkpt lat="49.41662" lon="1.13008">
        <ele>140.3</ele>
        <time>2022-02-27T10:15:13.000Z</time>
      </trkpt>
      <trkpt lat="49.41661" lon="1.12992">
        <ele>139.9</ele>
        <time>2022-02-27T10:15:11.000Z</time>
      </trkpt>
      <trkpt lat="49.4166" lon="1.12976">
        <ele>139.3</ele>
        <time>2022-02-27T10:15:09.000Z</time>
      </trkpt>
      <trkpt lat="49.41659" lon="1.12961">
        <ele>139</ele>
        <time>2022-02-27T10:15:07.000Z</time>
      </trkpt>
      <trkpt lat="49.41659" lon="1.12947">
        <ele>138.8</ele>
        <time>2022-02-27T10:15:05.000Z</time>
      </trkpt>
      <trkpt lat="49.4166" lon="1.12932">
        <ele>138.7</ele>
        <time>2022-02-27T10:15:03.000Z</time>
      </trkpt>
      <trkpt lat="49.4166" lon="1.12918">
        <ele>138.1</ele>
        <time>2022-02-27T10:15:01.000Z</time>
      </trkpt>
      <trkpt lat="49.41661" lon="1.12903">
        <ele>137.7</ele>
        <time>2022-02-27T10:14:59.000Z</time>
      </trkpt>
      <trkpt lat="49.41663" lon="1.12889">
        <ele>137.6</ele>
        <time>2022-02-27T10:14:57.000Z</time>
      </trkpt>
      <trkpt lat="49.41666" lon="1.12869">
        <ele>137.2</ele>
        <time>2022-02-27T10:14:54.000Z</time>
      </trkpt>
      <trkpt lat="49.41668" lon="1.12851">
        <ele>136.2</ele>
        <time>2022-02-27T10:14:51.000Z</time>
      </trkpt>
      <trkpt lat="49.4167" lon="1.12834">
        <ele>135.6</ele>
        <time>2022-02-27T10:14:48.000Z</time>
      </trkpt>
      <trkpt lat="49.41673" lon="1.12817">
        <ele>135.2</ele>
        <time>2022-02-27T10:14:44.000Z</time>
      </trkpt>
      <trkpt lat="49.41674" lon="1.12802">
        <ele>135</ele>
        <time>2022-02-27T10:14:40.000Z</time>
      </trkpt>
      <trkpt lat="49.41678" lon="1.12788">
        <ele>134.5</ele>
        <time>2022-02-27T10:14:36.000Z</time>
      </trkpt>
      <trkpt lat="49.41685" lon="1.12779">
        <ele>134.4</ele>
        <time>2022-02-27T10:14:24.000Z</time>
      </trkpt>
      <trkpt lat="49.41687" lon="1.12765">
        <ele>133.5</ele>
        <time>2022-02-27T10:14:18.000Z</time>
      </trkpt>
      <trkpt lat="49.41694" lon="1.12756">
        <ele>133</ele>
        <time>2022-02-27T10:14:14.000Z</time>
      </trkpt>
      <trkpt lat="49.417" lon="1.12743">
        <ele>132.6</ele>
        <time>2022-02-27T10:14:09.000Z</time>
      </trkpt>
      <trkpt lat="49.41706" lon="1.12731">
        <ele>132.7</ele>
        <time>2022-02-27T10:14:05.000Z</time>
      </trkpt>
      <trkpt lat="49.41711" lon="1.12718">
        <ele>131.7</ele>
        <time>2022-02-27T10:14:00.000Z</time>
      </trkpt>
      <trkpt lat="49.41713" lon="1.12705">
        <ele>130</ele>
        <time>2022-02-27T10:13:55.000Z</time>
      </trkpt>
      <trkpt lat="49.41714" lon="1.12689">
        <ele>129.2</ele>
        <time>2022-02-27T10:13:49.000Z</time>
      </trkpt>
      <trkpt lat="49.41712" lon="1.12674">
        <ele>128.8</ele>
        <time>2022-02-27T10:13:37.000Z</time>
      </trkpt>
      <trkpt lat="49.41712" lon="1.12673">
        <ele>128.8</ele>
        <time>2022-02-27T10:13:35.000Z</time>
      </trkpt>
      <trkpt lat="49.41711" lon="1.12672">
        <ele>128.5</ele>
        <time>2022-02-27T10:13:29.000Z</time>
      </trkpt>
      <trkpt lat="49.41709" lon="1.12668">
        <ele>128</ele>
        <time>2022-02-27T10:13:13.000Z</time>
      </trkpt>
      <trkpt lat="49.41708" lon="1.12668">
        <ele>128.3</ele>
        <time>2022-02-27T10:12:25.000Z</time>
      </trkpt>
      <trkpt lat="49.41706" lon="1.12661">
        <ele>127.9</ele>
        <time>2022-02-27T10:12:17.000Z</time>
      </trkpt>
      <trkpt lat="49.41705" lon="1.12661">
        <ele>127.7</ele>
        <time>2022-02-27T10:12:13.000Z</time>
      </trkpt>
      <trkpt lat="49.41703" lon="1.12657">
        <ele>126.5</ele>
        <time>2022-02-27T10:12:07.000Z</time>
      </trkpt>
      <trkpt lat="49.41702" lon="1.12655">
        <ele>126.2</ele>
        <time>2022-02-27T10:11:59.000Z</time>
      </trkpt>
      <trkpt lat="49.41697" lon="1.12651">
        <ele>122.9</ele>
        <time>2022-02-27T10:11:40.000Z</time>
      </trkpt>
      <trkpt lat="49.41696" lon="1.1265">
        <ele>121.9</ele>
        <time>2022-02-27T10:11:30.000Z</time>
      </trkpt>
      <trkpt lat="49.41695" lon="1.1265">
        <ele>121.4</ele>
        <time>2022-02-27T10:11:22.000Z</time>
      </trkpt>
      <trkpt lat="49.41695" lon="1.12649">
        <ele>121.1</ele>
        <time>2022-02-27T10:11:18.000Z</time>
      </trkpt>
      <trkpt lat="49.41694" lon="1.12648">
        <ele>121</ele>
        <time>2022-02-27T10:11:13.000Z</time>
      </trkpt>
      <trkpt lat="49.4169" lon="1.12642">
        <ele>119.4</ele>
        <time>2022-02-27T10:10:55.000Z</time>
      </trkpt>
      <trkpt lat="49.41689" lon="1.12641">
        <ele>119.1</ele>
        <time>2022-02-27T10:10:54.000Z</time>
      </trkpt>
      <trkpt lat="49.41687" lon="1.12639">
        <ele>117.2</ele>
        <time>2022-02-27T10:10:44.000Z</time>
      </trkpt>
      <trkpt lat="49.41687" lon="1.1264">
        <ele>116.4</ele>
        <time>2022-02-27T10:10:42.000Z</time>
      </trkpt>
      <trkpt lat="49.41686" lon="1.12638">
        <ele>115.8</ele>
        <time>2022-02-27T10:10:37.000Z</time>
      </trkpt>
      <trkpt lat="49.4168" lon="1.12628">
        <ele>112.5</ele>
        <time>2022-02-27T10:10:17.000Z</time>
      </trkpt>
      <trkpt lat="49.41673" lon="1.12618">
        <ele>111.9</ele>
        <time>2022-02-27T10:10:10.000Z</time>
      </trkpt>
      <trkpt lat="49.41665" lon="1.1261">
        <ele>111.9</ele>
        <time>2022-02-27T10:10:04.000Z</time>
      </trkpt>
      <trkpt lat="49.41656" lon="1.12602">
        <ele>110.6</ele>
        <time>2022-02-27T10:09:59.000Z</time>
      </trkpt>
      <trkpt lat="49.4165" lon="1.12592">
        <ele>109.6</ele>
        <time>2022-02-27T10:09:54.000Z</time>
      </trkpt>
      <trkpt lat="49.41645" lon="1.12578">
        <ele>109.2</ele>
        <time>2022-02-27T10:09:49.000Z</time>
      </trkpt>
      <trkpt lat="49.41642" lon="1.12564">
        <ele>107.7</ele>
        <time>2022-02-27T10:09:44.000Z</time>
      </trkpt>
      <trkpt lat="49.41639" lon="1.12548">
        <ele>106.9</ele>
        <time>2022-02-27T10:09:39.000Z</time>
      </trkpt>
      <trkpt lat="49.41637" lon="1.12533">
        <ele>107.1</ele>
        <time>2022-02-27T10:09:35.000Z</time>
      </trkpt>
      <trkpt lat="49.41638" lon="1.12519">
        <ele>106.7</ele>
        <time>2022-02-27T10:09:31.000Z</time>
      </trkpt>
      <trkpt lat="49.41636" lon="1.12503">
        <ele>106.1</ele>
        <time>2022-02-27T10:09:26.000Z</time>
      </trkpt>
      <trkpt lat="49.41635" lon="1.12486">
        <ele>104.8</ele>
        <time>2022-02-27T10:09:21.000Z</time>
      </trkpt>
      <trkpt lat="49.41633" lon="1.12469">
        <ele>103.4</ele>
        <time>2022-02-27T10:09:15.000Z</time>
      </trkpt>
      <trkpt lat="49.41633" lon="1.12453">
        <ele>103.6</ele>
        <time>2022-02-27T10:09:10.000Z</time>
      </trkpt>
      <trkpt lat="49.41632" lon="1.12438">
        <ele>103.4</ele>
        <time>2022-02-27T10:09:06.000Z</time>
      </trkpt>
      <trkpt lat="49.41631" lon="1.12422">
        <ele>102.7</ele>
        <time>2022-02-27T10:09:02.000Z</time>
      </trkpt>
      <trkpt lat="49.4163" lon="1.12407">
        <ele>102.8</ele>
        <time>2022-02-27T10:08:57.000Z</time>
      </trkpt>
      <trkpt lat="49.4163" lon="1.12389">
        <ele>101.2</ele>
        <time>2022-02-27T10:08:52.000Z</time>
      </trkpt>
      <trkpt lat="49.4163" lon="1.12373">
        <ele>101.1</ele>
        <time>2022-02-27T10:08:47.000Z</time>
      </trkpt>
      <trkpt lat="49.41629" lon="1.12358">
        <ele>99.3</ele>
        <time>2022-02-27T10:08:42.000Z</time>
      </trkpt>
      <trkpt lat="49.41629" lon="1.12344">
        <ele>98.3</ele>
        <time>2022-02-27T10:08:38.000Z</time>
      </trkpt>
      <trkpt lat="49.41629" lon="1.12328">
        <ele>96.6</ele>
        <time>2022-02-27T10:08:33.000Z</time>
      </trkpt>
      <trkpt lat="49.41628" lon="1.12312">
        <ele>96.3</ele>
        <time>2022-02-27T10:08:28.000Z</time>
      </trkpt>
      <trkpt lat="49.41628" lon="1.12298">
        <ele>95.7</ele>
        <time>2022-02-27T10:08:23.000Z</time>
      </trkpt>
      <trkpt lat="49.41628" lon="1.12284">
        <ele>94.8</ele>
        <time>2022-02-27T10:08:18.000Z</time>
      </trkpt>
      <trkpt lat="49.41627" lon="1.12271">
        <ele>94.6</ele>
        <time>2022-02-27T10:08:13.000Z</time>
      </trkpt>
      <trkpt lat="49.41627" lon="1.12254">
        <ele>93.8</ele>
        <time>2022-02-27T10:08:06.000Z</time>
      </trkpt>
      <trkpt lat="49.41627" lon="1.12253">
        <ele>93.9</ele>
        <time>2022-02-27T10:07:43.000Z</time>
      </trkpt>
      <trkpt lat="49.41627" lon="1.12243">
        <ele>92.9</ele>
        <time>2022-02-27T10:07:37.000Z</time>
      </trkpt>
      <trkpt lat="49.41627" lon="1.12228">
        <ele>91.9</ele>
        <time>2022-02-27T10:07:32.000Z</time>
      </trkpt>
      <trkpt lat="49.41628" lon="1.12214">
        <ele>90.8</ele>
        <time>2022-02-27T10:07:27.000Z</time>
      </trkpt>
      <trkpt lat="49.41632" lon="1.12202">
        <ele>90.4</ele>
        <time>2022-02-27T10:07:23.000Z</time>
      </trkpt>
      <trkpt lat="49.4164" lon="1.1219">
        <ele>89.5</ele>
        <time>2022-02-27T10:07:18.000Z</time>
      </trkpt>
      <trkpt lat="49.41646" lon="1.12178">
        <ele>88.4</ele>
        <time>2022-02-27T10:07:13.000Z</time>
      </trkpt>
      <trkpt lat="49.41652" lon="1.12166">
        <ele>88.3</ele>
        <time>2022-02-27T10:07:09.000Z</time>
      </trkpt>
      <trkpt lat="49.41659" lon="1.12152">
        <ele>88</ele>
        <time>2022-02-27T10:07:05.000Z</time>
      </trkpt>
      <trkpt lat="49.41664" lon="1.1214">
        <ele>87.5</ele>
        <time>2022-02-27T10:07:02.000Z</time>
      </trkpt>
      <trkpt lat="49.41671" lon="1.12126">
        <ele>87</ele>
        <time>2022-02-27T10:06:58.000Z</time>
      </trkpt>
      <trkpt lat="49.41677" lon="1.12114">
        <ele>85</ele>
        <time>2022-02-27T10:06:54.000Z</time>
      </trkpt>
      <trkpt lat="49.41684" lon="1.12105">
        <ele>84.3</ele>
        <time>2022-02-27T10:06:50.000Z</time>
      </trkpt>
      <trkpt lat="49.41693" lon="1.12097">
        <ele>83.9</ele>
        <time>2022-02-27T10:06:44.000Z</time>
      </trkpt>
      <trkpt lat="49.41693" lon="1.12096">
        <ele>83.7</ele>
        <time>2022-02-27T10:06:35.000Z</time>
      </trkpt>
      <trkpt lat="49.41694" lon="1.12096">
        <ele>83.5</ele>
        <time>2022-02-27T10:06:30.000Z</time>
      </trkpt>
      <trkpt lat="49.41697" lon="1.12093">
        <ele>82.8</ele>
        <time>2022-02-27T10:06:25.000Z</time>
      </trkpt>
      <trkpt lat="49.41706" lon="1.12084">
        <ele>82.7</ele>
        <time>2022-02-27T10:06:20.000Z</time>
      </trkpt>
      <trkpt lat="49.41713" lon="1.12075">
        <ele>82.6</ele>
        <time>2022-02-27T10:06:16.000Z</time>
      </trkpt>
      <trkpt lat="49.41722" lon="1.12065">
        <ele>82</ele>
        <time>2022-02-27T10:06:11.000Z</time>
      </trkpt>
      <trkpt lat="49.41729" lon="1.12058">
        <ele>80.5</ele>
        <time>2022-02-27T10:06:06.000Z</time>
      </trkpt>
      <trkpt lat="49.41738" lon="1.12049">
        <ele>79.8</ele>
        <time>2022-02-27T10:06:01.000Z</time>
      </trkpt>
      <trkpt lat="49.41747" lon="1.12042">
        <ele>78.3</ele>
        <time>2022-02-27T10:05:56.000Z</time>
      </trkpt>
      <trkpt lat="49.41756" lon="1.12036">
        <ele>77.5</ele>
        <time>2022-02-27T10:05:51.000Z</time>
      </trkpt>
      <trkpt lat="49.41766" lon="1.1203">
        <ele>77.1</ele>
        <time>2022-02-27T10:05:46.000Z</time>
      </trkpt>
      <trkpt lat="49.41775" lon="1.12025">
        <ele>76.8</ele>
        <time>2022-02-27T10:05:41.000Z</time>
      </trkpt>
      <trkpt lat="49.41785" lon="1.1202">
        <ele>75.8</ele>
        <time>2022-02-27T10:05:36.000Z</time>
      </trkpt>
      <trkpt lat="49.41795" lon="1.12015">
        <ele>74.9</ele>
        <time>2022-02-27T10:05:31.000Z</time>
      </trkpt>
      <trkpt lat="49.41804" lon="1.1201">
        <ele>73.9</ele>
        <time>2022-02-27T10:05:26.000Z</time>
      </trkpt>
      <trkpt lat="49.41814" lon="1.12005">
        <ele>73.2</ele>
        <time>2022-02-27T10:05:21.000Z</time>
      </trkpt>
      <trkpt lat="49.41824" lon="1.12001">
        <ele>72.3</ele>
        <time>2022-02-27T10:05:16.000Z</time>
      </trkpt>
      <trkpt lat="49.41834" lon="1.11998">
        <ele>72.5</ele>
        <time>2022-02-27T10:05:11.000Z</time>
      </trkpt>
      <trkpt lat="49.41842" lon="1.12002">
        <ele>72.1</ele>
        <time>2022-02-27T10:05:06.000Z</time>
      </trkpt>
      <trkpt lat="49.4185" lon="1.12012">
        <ele>71</ele>
        <time>2022-02-27T10:05:01.000Z</time>
      </trkpt>
      <trkpt lat="49.41857" lon="1.12024">
        <ele>69.8</ele>
        <time>2022-02-27T10:04:55.000Z</time>
      </trkpt>
      <trkpt lat="49.41863" lon="1.12034">
        <ele>68.9</ele>
        <time>2022-02-27T10:04:50.000Z</time>
      </trkpt>
      <trkpt lat="49.41871" lon="1.12042">
        <ele>68.3</ele>
        <time>2022-02-27T10:04:45.000Z</time>
      </trkpt>
      <trkpt lat="49.41878" lon="1.12052">
        <ele>67.7</ele>
        <time>2022-02-27T10:04:40.000Z</time>
      </trkpt>
      <trkpt lat="49.41886" lon="1.12063">
        <ele>67</ele>
        <time>2022-02-27T10:04:34.000Z</time>
      </trkpt>
      <trkpt lat="49.41896" lon="1.12067">
        <ele>65.8</ele>
        <time>2022-02-27T10:04:28.000Z</time>
      </trkpt>
      <trkpt lat="49.41905" lon="1.12065">
        <ele>65.6</ele>
        <time>2022-02-27T10:04:22.000Z</time>
      </trkpt>
      <trkpt lat="49.41915" lon="1.12062">
        <ele>64.5</ele>
        <time>2022-02-27T10:04:16.000Z</time>
      </trkpt>
      <trkpt lat="49.41925" lon="1.12059">
        <ele>64</ele>
        <time>2022-02-27T10:04:10.000Z</time>
      </trkpt>
      <trkpt lat="49.41935" lon="1.12057">
        <ele>63.6</ele>
        <time>2022-02-27T10:04:03.000Z</time>
      </trkpt>
      <trkpt lat="49.41936" lon="1.12058">
        <ele>63.9</ele>
        <time>2022-02-27T10:03:20.000Z</time>
      </trkpt>
      <trkpt lat="49.41936" lon="1.12057">
        <ele>63.2</ele>
        <time>2022-02-27T10:03:17.000Z</time>
      </trkpt>
      <trkpt lat="49.41937" lon="1.12058">
        <ele>63.1</ele>
        <time>2022-02-27T10:03:16.000Z</time>
      </trkpt>
      <trkpt lat="49.41937" lon="1.12057">
        <ele>63.2</ele>
        <time>2022-02-27T10:03:14.000Z</time>
      </trkpt>
      <trkpt lat="49.41938" lon="1.12057">
        <ele>63</ele>
        <time>2022-02-27T10:00:35.000Z</time>
      </trkpt>
      <trkpt lat="49.4194" lon="1.12056">
        <ele>63</ele>
        <time>2022-02-27T09:59:55.000Z</time>
      </trkpt>
      <trkpt lat="49.41945" lon="1.12043">
        <ele>62.6</ele>
        <time>2022-02-27T09:59:48.000Z</time>
      </trkpt>
      <trkpt lat="49.41948" lon="1.12029">
        <ele>62</ele>
        <time>2022-02-27T09:59:43.000Z</time>
      </trkpt>
      <trkpt lat="49.41952" lon="1.12016">
        <ele>61</ele>
        <time>2022-02-27T09:59:38.000Z</time>
      </trkpt>
      <trkpt lat="49.41955" lon="1.12001">
        <ele>59.8</ele>
        <time>2022-02-27T09:59:32.000Z</time>
      </trkpt>
      <trkpt lat="49.41954" lon="1.11985">
        <ele>58.9</ele>
        <time>2022-02-27T09:59:26.000Z</time>
      </trkpt>
      <trkpt lat="49.41955" lon="1.11971">
        <ele>58.4</ele>
        <time>2022-02-27T09:59:20.000Z</time>
      </trkpt>
      <trkpt lat="49.41956" lon="1.11956">
        <ele>57.5</ele>
        <time>2022-02-27T09:59:14.000Z</time>
      </trkpt>
      <trkpt lat="49.41956" lon="1.11942">
        <ele>57.1</ele>
        <time>2022-02-27T09:59:09.000Z</time>
      </trkpt>
      <trkpt lat="49.41956" lon="1.11927">
        <ele>56</ele>
        <time>2022-02-27T09:59:03.000Z</time>
      </trkpt>
      <trkpt lat="49.41958" lon="1.11912">
        <ele>54.8</ele>
        <time>2022-02-27T09:58:58.000Z</time>
      </trkpt>
      <trkpt lat="49.41964" lon="1.119">
        <ele>54.3</ele>
        <time>2022-02-27T09:58:53.000Z</time>
      </trkpt>
      <trkpt lat="49.4197" lon="1.11889">
        <ele>53.6</ele>
        <time>2022-02-27T09:58:48.000Z</time>
      </trkpt>
      <trkpt lat="49.41979" lon="1.1188">
        <ele>52.9</ele>
        <time>2022-02-27T09:58:43.000Z</time>
      </trkpt>
      <trkpt lat="49.41987" lon="1.11873">
        <ele>52.8</ele>
        <time>2022-02-27T09:58:38.000Z</time>
      </trkpt>
      <trkpt lat="49.41995" lon="1.11864">
        <ele>52.3</ele>
        <time>2022-02-27T09:58:33.000Z</time>
      </trkpt>
      <trkpt lat="49.42003" lon="1.11858">
        <ele>51.7</ele>
        <time>2022-02-27T09:58:28.000Z</time>
      </trkpt>
      <trkpt lat="49.42012" lon="1.1185">
        <ele>50.4</ele>
        <time>2022-02-27T09:58:22.000Z</time>
      </trkpt>
      <trkpt lat="49.4202" lon="1.11843">
        <ele>49.9</ele>
        <time>2022-02-27T09:58:16.000Z</time>
      </trkpt>
      <trkpt lat="49.42028" lon="1.11835">
        <ele>48.8</ele>
        <time>2022-02-27T09:58:10.000Z</time>
      </trkpt>
      <trkpt lat="49.42037" lon="1.11829">
        <ele>48.2</ele>
        <time>2022-02-27T09:58:04.000Z</time>
      </trkpt>
      <trkpt lat="49.42045" lon="1.11821">
        <ele>47.5</ele>
        <time>2022-02-27T09:57:58.000Z</time>
      </trkpt>
      <trkpt lat="49.42053" lon="1.11813">
        <ele>46.7</ele>
        <time>2022-02-27T09:57:52.000Z</time>
      </trkpt>
      <trkpt lat="49.42063" lon="1.11807">
        <ele>46</ele>
        <time>2022-02-27T09:57:46.000Z</time>
      </trkpt>
      <trkpt lat="49.42072" lon="1.11802">
        <ele>45</ele>
        <time>2022-02-27T09:57:40.000Z</time>
      </trkpt>
      <trkpt lat="49.42082" lon="1.11799">
        <ele>44.1</ele>
        <time>2022-02-27T09:57:35.000Z</time>
      </trkpt>
      <trkpt lat="49.42092" lon="1.11797">
        <ele>43.3</ele>
        <time>2022-02-27T09:57:30.000Z</time>
      </trkpt>
      <trkpt lat="49.42103" lon="1.11794">
        <ele>42.4</ele>
        <time>2022-02-27T09:57:25.000Z</time>
      </trkpt>
      <trkpt lat="49.42112" lon="1.11789">
        <ele>41.9</ele>
        <time>2022-02-27T09:57:18.000Z</time>
      </trkpt>
      <trkpt lat="49.42121" lon="1.11788">
        <ele>42.7</ele>
        <time>2022-02-27T09:57:10.000Z</time>
      </trkpt>
      <trkpt lat="49.4213" lon="1.11793">
        <ele>43.1</ele>
        <time>2022-02-27T09:57:04.000Z</time>
      </trkpt>
      <trkpt lat="49.4214" lon="1.11796">
        <ele>41.7</ele>
        <time>2022-02-27T09:56:58.000Z</time>
      </trkpt>
      <trkpt lat="49.42149" lon="1.1179">
        <ele>39.1</ele>
        <time>2022-02-27T09:56:54.000Z</time>
      </trkpt>
      <trkpt lat="49.42157" lon="1.11783">
        <ele>38.2</ele>
        <time>2022-02-27T09:56:50.000Z</time>
      </trkpt>
      <trkpt lat="49.42166" lon="1.11775">
        <ele>37.4</ele>
        <time>2022-02-27T09:56:46.000Z</time>
      </trkpt>
      <trkpt lat="49.42174" lon="1.11767">
        <ele>36.2</ele>
        <time>2022-02-27T09:56:42.000Z</time>
      </trkpt>
      <trkpt lat="49.42181" lon="1.11756">
        <ele>34.9</ele>
        <time>2022-02-27T09:56:36.000Z</time>
      </trkpt>
      <trkpt lat="49.4219" lon="1.11748">
        <ele>33.4</ele>
        <time>2022-02-27T09:56:30.000Z</time>
      </trkpt>
      <trkpt lat="49.42198" lon="1.1174">
        <ele>31.9</ele>
        <time>2022-02-27T09:56:23.000Z</time>
      </trkpt>
      <trkpt lat="49.42206" lon="1.11732">
        <ele>30.4</ele>
        <time>2022-02-27T09:56:19.000Z</time>
      </trkpt>
      <trkpt lat="49.42214" lon="1.11725">
        <ele>29.4</ele>
        <time>2022-02-27T09:56:15.000Z</time>
      </trkpt>
      <trkpt lat="49.42223" lon="1.11716">
        <ele>28.1</ele>
        <time>2022-02-27T09:56:11.000Z</time>
      </trkpt>
      <trkpt lat="49.42231" lon="1.11708">
        <ele>27.2</ele>
        <time>2022-02-27T09:56:07.000Z</time>
      </trkpt>
      <trkpt lat="49.42234" lon="1.11693">
        <ele>25.1</ele>
        <time>2022-02-27T09:56:02.000Z</time>
      </trkpt>
      <trkpt lat="49.42225" lon="1.11689">
        <ele>23.2</ele>
        <time>2022-02-27T09:55:58.000Z</time>
      </trkpt>
      <trkpt lat="49.42215" lon="1.11691">
        <ele>21.9</ele>
        <time>2022-02-27T09:55:54.000Z</time>
      </trkpt>
      <trkpt lat="49.42204" lon="1.11695">
        <ele>21.1</ele>
        <time>2022-02-27T09:55:49.000Z</time>
      </trkpt>
      <trkpt lat="49.42204" lon="1.11696">
        <ele>21</ele>
        <time>2022-02-27T09:55:45.000Z</time>
      </trkpt>
      <trkpt lat="49.42203" lon="1.11696">
        <ele>20.8</ele>
        <time>2022-02-27T09:54:29.000Z</time>
      </trkpt>
      <trkpt lat="49.42195" lon="1.11699">
        <ele>19.9</ele>
        <time>2022-02-27T09:54:09.000Z</time>
      </trkpt>
      <trkpt lat="49.42185" lon="1.11701">
        <ele>19.3</ele>
        <time>2022-02-27T09:54:03.000Z</time>
      </trkpt>
      <trkpt lat="49.42176" lon="1.11705">
        <ele>18.8</ele>
        <time>2022-02-27T09:53:57.000Z</time>
      </trkpt>
      <trkpt lat="49.42167" lon="1.11706">
        <ele>18.4</ele>
        <time>2022-02-27T09:53:52.000Z</time>
      </trkpt>
      <trkpt lat="49.42157" lon="1.11699">
        <ele>15.4</ele>
        <time>2022-02-27T09:53:47.000Z</time>
      </trkpt>
      <trkpt lat="49.42157" lon="1.11685">
        <ele>13.3</ele>
        <time>2022-02-27T09:53:43.000Z</time>
      </trkpt>
      <trkpt lat="49.42155" lon="1.11671">
        <ele>11.4</ele>
        <time>2022-02-27T09:53:39.000Z</time>
      </trkpt>
      <trkpt lat="49.42153" lon="1.11656">
        <ele>9.8</ele>
        <time>2022-02-27T09:53:35.000Z</time>
      </trkpt>
      <trkpt lat="49.42152" lon="1.11642">
        <ele>7.8</ele>
        <time>2022-02-27T09:53:31.000Z</time>
      </trkpt>
      <trkpt lat="49.4215" lon="1.11628">
        <ele>5.1</ele>
        <time>2022-02-27T09:53:27.000Z</time>
      </trkpt>
      <trkpt lat="49.42151" lon="1.11614">
        <ele>3.8</ele>
        <time>2022-02-27T09:53:21.000Z</time>
      </trkpt>
      <trkpt lat="49.4216" lon="1.11609">
        <ele>3.2</ele>
        <time>2022-02-27T09:53:18.000Z</time>
      </trkpt>
      <trkpt lat="49.42171" lon="1.11601">
        <ele>2.6</ele>
        <time>2022-02-27T09:53:15.000Z</time>
      </trkpt>
      <trkpt lat="49.42178" lon="1.11591">
        <ele>1.3</ele>
        <time>2022-02-27T09:53:12.000Z</time>
      </trkpt>
      <trkpt lat="49.42184" lon="1.11575">
        <ele>0.5</ele>
        <time>2022-02-27T09:53:09.000Z</time>
      </trkpt>
      <trkpt lat="49.4219" lon="1.11565">
        <ele>0.3</ele>
        <time>2022-02-27T09:53:07.000Z</time>
      </trkpt>
      <trkpt lat="49.42199" lon="1.11559">
        <ele>-0.2</ele>
        <time>2022-02-27T09:53:05.000Z</time>
      </trkpt>
      <trkpt lat="49.42208" lon="1.11553">
        <ele>-0.3</ele>
        <time>2022-02-27T09:53:03.000Z</time>
      </trkpt>
      <trkpt lat="49.4222" lon="1.11545">
        <ele>-1</ele>
        <time>2022-02-27T09:53:00.000Z</time>
      </trkpt>
      <trkpt lat="49.42231" lon="1.11536">
        <ele>-1</ele>
        <time>2022-02-27T09:52:57.000Z</time>
      </trkpt>
      <trkpt lat="49.42241" lon="1.11527">
        <ele>-0.9</ele>
        <time>2022-02-27T09:52:54.000Z</time>
      </trkpt>
      <trkpt lat="49.42251" lon="1.11519">
        <ele>-1.1</ele>
        <time>2022-02-27T09:52:51.000Z</time>
      </trkpt>
      <trkpt lat="49.42262" lon="1.11512">
        <ele>-1.1</ele>
        <time>2022-02-27T09:52:48.000Z</time>
      </trkpt>
      <trkpt lat="49.42273" lon="1.11505">
        <ele>-0.9</ele>
        <time>2022-02-27T09:52:45.000Z</time>
      </trkpt>
      <trkpt lat="49.42285" lon="1.11498">
        <ele>-1.1</ele>
        <time>2022-02-27T09:52:42.000Z</time>
      </trkpt>
      <trkpt lat="49.42296" lon="1.11492">
        <ele>-0.9</ele>
        <time>2022-02-27T09:52:39.000Z</time>
      </trkpt>
      <trkpt lat="49.42305" lon="1.11486">
        <ele>-1.1</ele>
        <time>2022-02-27T09:52:36.000Z</time>
      </trkpt>
      <trkpt lat="49.42306" lon="1.11472">
        <ele>-1.2</ele>
        <time>2022-02-27T09:52:32.000Z</time>
      </trkpt>
      <trkpt lat="49.42299" lon="1.11458">
        <ele>-1.2</ele>
        <time>2022-02-27T09:52:28.000Z</time>
      </trkpt>
      <trkpt lat="49.42293" lon="1.11446">
        <ele>-1.5</ele>
        <time>2022-02-27T09:52:25.000Z</time>
      </trkpt>
      <trkpt lat="49.42288" lon="1.11433">
        <ele>-1.8</ele>
        <time>2022-02-27T09:52:22.000Z</time>
      </trkpt>
      <trkpt lat="49.42282" lon="1.11418">
        <ele>-2.6</ele>
        <time>2022-02-27T09:52:19.000Z</time>
      </trkpt>
      <trkpt lat="49.42277" lon="1.11404">
        <ele>-3.1</ele>
        <time>2022-02-27T09:52:16.000Z</time>
      </trkpt>
      <trkpt lat="49.42271" lon="1.1139">
        <ele>-2.9</ele>
        <time>2022-02-27T09:52:13.000Z</time>
      </trkpt>
      <trkpt lat="49.42267" lon="1.11375">
        <ele>-3.3</ele>
        <time>2022-02-27T09:52:10.000Z</time>
      </trkpt>
      <trkpt lat="49.42268" lon="1.11359">
        <ele>-3.7</ele>
        <time>2022-02-27T09:52:07.000Z</time>
      </trkpt>
      <trkpt lat="49.42278" lon="1.11351">
        <ele>-4.1</ele>
        <time>2022-02-27T09:52:04.000Z</time>
      </trkpt>
      <trkpt lat="49.42289" lon="1.11343">
        <ele>-3.5</ele>
        <time>2022-02-27T09:52:01.000Z</time>
      </trkpt>
      <trkpt lat="49.423" lon="1.11335">
        <ele>-3.7</ele>
        <time>2022-02-27T09:51:58.000Z</time>
      </trkpt>
      <trkpt lat="49.42311" lon="1.11327">
        <ele>-3.4</ele>
        <time>2022-02-27T09:51:55.000Z</time>
      </trkpt>
      <trkpt lat="49.42321" lon="1.1132">
        <ele>-3.2</ele>
        <time>2022-02-27T09:51:52.000Z</time>
      </trkpt>
      <trkpt lat="49.42332" lon="1.11312">
        <ele>-3.7</ele>
        <time>2022-02-27T09:51:49.000Z</time>
      </trkpt>
      <trkpt lat="49.42342" lon="1.11304">
        <ele>-3.3</ele>
        <time>2022-02-27T09:51:46.000Z</time>
      </trkpt>
      <trkpt lat="49.42353" lon="1.11296">
        <ele>-3.5</ele>
        <time>2022-02-27T09:51:43.000Z</time>
      </trkpt>
      <trkpt lat="49.42365" lon="1.11287">
        <ele>-3.6</ele>
        <time>2022-02-27T09:51:40.000Z</time>
      </trkpt>
      <trkpt lat="49.42377" lon="1.11278">
        <ele>-3.2</ele>
        <time>2022-02-27T09:51:37.000Z</time>
      </trkpt>
      <trkpt lat="49.42388" lon="1.1127">
        <ele>-3.5</ele>
        <time>2022-02-27T09:51:34.000Z</time>
      </trkpt>
      <trkpt lat="49.424" lon="1.11263">
        <ele>-3.7</ele>
        <time>2022-02-27T09:51:31.000Z</time>
      </trkpt>
      <trkpt lat="49.42413" lon="1.11255">
        <ele>-3.5</ele>
        <time>2022-02-27T09:51:28.000Z</time>
      </trkpt>
      <trkpt lat="49.42421" lon="1.11249">
        <ele>-3.2</ele>
        <time>2022-02-27T09:51:26.000Z</time>
      </trkpt>
      <trkpt lat="49.4243" lon="1.11243">
        <ele>-3.3</ele>
        <time>2022-02-27T09:51:24.000Z</time>
      </trkpt>
      <trkpt lat="49.42439" lon="1.11237">
        <ele>-3.1</ele>
        <time>2022-02-27T09:51:22.000Z</time>
      </trkpt>
      <trkpt lat="49.42448" lon="1.11232">
        <ele>-3.2</ele>
        <time>2022-02-27T09:51:20.000Z</time>
      </trkpt>
      <trkpt lat="49.42461" lon="1.11226">
        <ele>-2.8</ele>
        <time>2022-02-27T09:51:17.000Z</time>
      </trkpt>
      <trkpt lat="49.42469" lon="1.11222">
        <ele>-3.1</ele>
        <time>2022-02-27T09:51:15.000Z</time>
      </trkpt>
      <trkpt lat="49.42478" lon="1.11217">
        <ele>-3</ele>
        <time>2022-02-27T09:51:13.000Z</time>
      </trkpt>
      <trkpt lat="49.42487" lon="1.11213">
        <ele>-3.3</ele>
        <time>2022-02-27T09:51:11.000Z</time>
      </trkpt>
      <trkpt lat="49.42499" lon="1.11208">
        <ele>-3.4</ele>
        <time>2022-02-27T09:51:08.000Z</time>
      </trkpt>
      <trkpt lat="49.42508" lon="1.11203">
        <ele>-3.5</ele>
        <time>2022-02-27T09:51:06.000Z</time>
      </trkpt>
      <trkpt lat="49.42517" lon="1.11199">
        <ele>-3.5</ele>
        <time>2022-02-27T09:51:04.000Z</time>
      </trkpt>
      <trkpt lat="49.42526" lon="1.11194">
        <ele>-3.5</ele>
        <time>2022-02-27T09:51:02.000Z</time>
      </trkpt>
      <trkpt lat="49.42535" lon="1.11189">
        <ele>-3.8</ele>
        <time>2022-02-27T09:51:00.000Z</time>
      </trkpt>
      <trkpt lat="49.42544" lon="1.11185">
        <ele>-3.6</ele>
        <time>2022-02-27T09:50:58.000Z</time>
      </trkpt>
      <trkpt lat="49.42553" lon="1.11181">
        <ele>-3.7</ele>
        <time>2022-02-27T09:50:56.000Z</time>
      </trkpt>
      <trkpt lat="49.42562" lon="1.11178">
        <ele>-3.7</ele>
        <time>2022-02-27T09:50:54.000Z</time>
      </trkpt>
      <trkpt lat="49.42574" lon="1.11172">
        <ele>-3.3</ele>
        <time>2022-02-27T09:50:51.000Z</time>
      </trkpt>
      <trkpt lat="49.42586" lon="1.11166">
        <ele>-3</ele>
        <time>2022-02-27T09:50:48.000Z</time>
      </trkpt>
      <trkpt lat="49.42595" lon="1.11162">
        <ele>-3.1</ele>
        <time>2022-02-27T09:50:46.000Z</time>
      </trkpt>
      <trkpt lat="49.42603" lon="1.11157">
        <ele>-3.3</ele>
        <time>2022-02-27T09:50:44.000Z</time>
      </trkpt>
      <trkpt lat="49.42613" lon="1.11153">
        <ele>-3.2</ele>
        <time>2022-02-27T09:50:42.000Z</time>
      </trkpt>
      <trkpt lat="49.42622" lon="1.11149">
        <ele>-3.1</ele>
        <time>2022-02-27T09:50:40.000Z</time>
      </trkpt>
      <trkpt lat="49.42634" lon="1.11143">
        <ele>-3.5</ele>
        <time>2022-02-27T09:50:37.000Z</time>
      </trkpt>
      <trkpt lat="49.42645" lon="1.11137">
        <ele>-3.1</ele>
        <time>2022-02-27T09:50:34.000Z</time>
      </trkpt>
      <trkpt lat="49.42656" lon="1.11131">
        <ele>-3</ele>
        <time>2022-02-27T09:50:31.000Z</time>
      </trkpt>
      <trkpt lat="49.42667" lon="1.11125">
        <ele>-3.2</ele>
        <time>2022-02-27T09:50:28.000Z</time>
      </trkpt>
      <trkpt lat="49.42679" lon="1.11118">
        <ele>-3.3</ele>
        <time>2022-02-27T09:50:25.000Z</time>
      </trkpt>
      <trkpt lat="49.42691" lon="1.11112">
        <ele>-3.2</ele>
        <time>2022-02-27T09:50:22.000Z</time>
      </trkpt>
      <trkpt lat="49.42703" lon="1.11106">
        <ele>-3.1</ele>
        <time>2022-02-27T09:50:19.000Z</time>
      </trkpt>
      <trkpt lat="49.42715" lon="1.111">
        <ele>-3.1</ele>
        <time>2022-02-27T09:50:16.000Z</time>
      </trkpt>
      <trkpt lat="49.42728" lon="1.11093">
        <ele>-3.2</ele>
        <time>2022-02-27T09:50:13.000Z</time>
      </trkpt>
      <trkpt lat="49.4274" lon="1.11086">
        <ele>-3.4</ele>
        <time>2022-02-27T09:50:10.000Z</time>
      </trkpt>
      <trkpt lat="49.42751" lon="1.11079">
        <ele>-3.3</ele>
        <time>2022-02-27T09:50:07.000Z</time>
      </trkpt>
      <trkpt lat="49.42761" lon="1.11072">
        <ele>-2.8</ele>
        <time>2022-02-27T09:50:04.000Z</time>
      </trkpt>
      <trkpt lat="49.42771" lon="1.11065">
        <ele>-2.9</ele>
        <time>2022-02-27T09:50:01.000Z</time>
      </trkpt>
      <trkpt lat="49.42782" lon="1.11057">
        <ele>-3</ele>
        <time>2022-02-27T09:49:58.000Z</time>
      </trkpt>
      <trkpt lat="49.42792" lon="1.11049">
        <ele>-3.2</ele>
        <time>2022-02-27T09:49:55.000Z</time>
      </trkpt>
      <trkpt lat="49.42802" lon="1.11041">
        <ele>-3.3</ele>
        <time>2022-02-27T09:49:52.000Z</time>
      </trkpt>
      <trkpt lat="49.42813" lon="1.11032">
        <ele>-3.3</ele>
        <time>2022-02-27T09:49:49.000Z</time>
      </trkpt>
      <trkpt lat="49.42823" lon="1.11023">
        <ele>-3.4</ele>
        <time>2022-02-27T09:49:46.000Z</time>
      </trkpt>
      <trkpt lat="49.42833" lon="1.11013">
        <ele>-3.3</ele>
        <time>2022-02-27T09:49:43.000Z</time>
      </trkpt>
      <trkpt lat="49.42843" lon="1.11003">
        <ele>-3.2</ele>
        <time>2022-02-27T09:49:40.000Z</time>
      </trkpt>
      <trkpt lat="49.42853" lon="1.10992">
        <ele>-3.1</ele>
        <time>2022-02-27T09:49:37.000Z</time>
      </trkpt>
      <trkpt lat="49.42863" lon="1.10982">
        <ele>-3.2</ele>
        <time>2022-02-27T09:49:34.000Z</time>
      </trkpt>
      <trkpt lat="49.42873" lon="1.10972">
        <ele>-3.1</ele>
        <time>2022-02-27T09:49:31.000Z</time>
      </trkpt>
      <trkpt lat="49.42882" lon="1.10962">
        <ele>-3.2</ele>
        <time>2022-02-27T09:49:28.000Z</time>
      </trkpt>
      <trkpt lat="49.42891" lon="1.10952">
        <ele>-3.2</ele>
        <time>2022-02-27T09:49:25.000Z</time>
      </trkpt>
      <trkpt lat="49.429" lon="1.10942">
        <ele>-3.2</ele>
        <time>2022-02-27T09:49:22.000Z</time>
      </trkpt>
      <trkpt lat="49.4291" lon="1.10933">
        <ele>-3.2</ele>
        <time>2022-02-27T09:49:19.000Z</time>
      </trkpt>
      <trkpt lat="49.42919" lon="1.10923">
        <ele>-2.8</ele>
        <time>2022-02-27T09:49:16.000Z</time>
      </trkpt>
      <trkpt lat="49.42929" lon="1.10913">
        <ele>-2.8</ele>
        <time>2022-02-27T09:49:13.000Z</time>
      </trkpt>
      <trkpt lat="49.42939" lon="1.10902">
        <ele>-2.9</ele>
        <time>2022-02-27T09:49:10.000Z</time>
      </trkpt>
      <trkpt lat="49.42949" lon="1.10891">
        <ele>-3</ele>
        <time>2022-02-27T09:49:07.000Z</time>
      </trkpt>
      <trkpt lat="49.42959" lon="1.1088">
        <ele>-2.7</ele>
        <time>2022-02-27T09:49:04.000Z</time>
      </trkpt>
      <trkpt lat="49.42969" lon="1.1087">
        <ele>-2.5</ele>
        <time>2022-02-27T09:49:01.000Z</time>
      </trkpt>
      <trkpt lat="49.42978" lon="1.1086">
        <ele>-2.6</ele>
        <time>2022-02-27T09:48:58.000Z</time>
      </trkpt>
      <trkpt lat="49.42987" lon="1.1085">
        <ele>-3</ele>
        <time>2022-02-27T09:48:55.000Z</time>
      </trkpt>
      <trkpt lat="49.42996" lon="1.10842">
        <ele>-2.3</ele>
        <time>2022-02-27T09:48:52.000Z</time>
      </trkpt>
      <trkpt lat="49.43004" lon="1.10833">
        <ele>-2.6</ele>
        <time>2022-02-27T09:48:49.000Z</time>
      </trkpt>
      <trkpt lat="49.43013" lon="1.10824">
        <ele>-2.5</ele>
        <time>2022-02-27T09:48:46.000Z</time>
      </trkpt>
      <trkpt lat="49.43022" lon="1.10814">
        <ele>-2.6</ele>
        <time>2022-02-27T09:48:43.000Z</time>
      </trkpt>
      <trkpt lat="49.43031" lon="1.10805">
        <ele>-2.6</ele>
        <time>2022-02-27T09:48:40.000Z</time>
      </trkpt>
      <trkpt lat="49.43041" lon="1.10795">
        <ele>-2.7</ele>
        <time>2022-02-27T09:48:36.000Z</time>
      </trkpt>
      <trkpt lat="49.4305" lon="1.10785">
        <ele>-2.5</ele>
        <time>2022-02-27T09:48:32.000Z</time>
      </trkpt>
      <trkpt lat="49.43059" lon="1.10777">
        <ele>-3</ele>
        <time>2022-02-27T09:48:29.000Z</time>
      </trkpt>
      <trkpt lat="49.43066" lon="1.10769">
        <ele>-3</ele>
        <time>2022-02-27T09:48:26.000Z</time>
      </trkpt>
      <trkpt lat="49.43074" lon="1.10761">
        <ele>-3.1</ele>
        <time>2022-02-27T09:48:23.000Z</time>
      </trkpt>
      <trkpt lat="49.43081" lon="1.10752">
        <ele>-2.9</ele>
        <time>2022-02-27T09:48:20.000Z</time>
      </trkpt>
      <trkpt lat="49.4309" lon="1.10743">
        <ele>-3.1</ele>
        <time>2022-02-27T09:48:17.000Z</time>
      </trkpt>
      <trkpt lat="49.431" lon="1.10734">
        <ele>-3</ele>
        <time>2022-02-27T09:48:14.000Z</time>
      </trkpt>
      <trkpt lat="49.43109" lon="1.10724">
        <ele>-3</ele>
        <time>2022-02-27T09:48:11.000Z</time>
      </trkpt>
      <trkpt lat="49.43119" lon="1.10714">
        <ele>-2.8</ele>
        <time>2022-02-27T09:48:08.000Z</time>
      </trkpt>
      <trkpt lat="49.43128" lon="1.10704">
        <ele>-2.4</ele>
        <time>2022-02-27T09:48:05.000Z</time>
      </trkpt>
      <trkpt lat="49.4314" lon="1.10701">
        <ele>-2.7</ele>
        <time>2022-02-27T09:48:01.000Z</time>
      </trkpt>
      <trkpt lat="49.43149" lon="1.10698">
        <ele>-2.3</ele>
        <time>2022-02-27T09:47:57.000Z</time>
      </trkpt>
      <trkpt lat="49.43158" lon="1.10694">
        <ele>-2.2</ele>
        <time>2022-02-27T09:47:48.000Z</time>
      </trkpt>
      <trkpt lat="49.43167" lon="1.10692">
        <ele>-2.4</ele>
        <time>2022-02-27T09:47:42.000Z</time>
      </trkpt>
      <trkpt lat="49.43174" lon="1.1068">
        <ele>-2.8</ele>
        <time>2022-02-27T09:32:34.000Z</time>
      </trkpt>
      <trkpt lat="49.43192" lon="1.10666">
        <ele>-4</ele>
        <time>2022-02-27T09:32:13.000Z</time>
      </trkpt>
    </trkseg>
  </trk>
</gpx>